GFSSW_500_rhum_000.txt.gz
RH
15 33 48 33 17 29 33 32 36 33 18 13 24 31 36 30 23 33 51 58 74 77 56 66 65 72 56 47 76 74 73 84 90 94 96 96 97 96 90 89 83 34 29 30 18
14 31 26 17 26 31 35 30 35 25 23 30 28 49 43 41 33 39 51 63 62 65 65 58 54 54 38 85 85 85 91 92 96 97 96 96 97 95 57 43 56 24 17 19 10
19 44 16 24 31 28 33 33 32 20 54 58 55 43 45 38 38 45 61 73 74 63 54 50 48 42 74 95 82 86 91 87 85 86 94 98 96 75 19 11 11 11 10 13 5
22 41 20 28 27 26 34 32 35 38 65 67 65 52 56 37 44 59 84 92 54 39 35 21 40 53 90 87 81 99 94 84 96 97 95 84 60 51 7 9 12 10 10 6 7
33 26 17 26 27 34 37 29 27 48 63 73 67 64 61 49 62 58 81 64 31 17 25 30 87 100 100 100 97 91 92 96 79 71 68 55 56 44 7 13 13 11 12 13 10
27 14 26 36 41 43 43 28 27 37 48 72 64 70 66 65 63 59 63 45 18 25 42 84 100 100 95 92 96 82 68 78 79 66 51 45 37 6 6 13 15 16 17 14 14
22 23 39 43 45 49 43 39 28 34 55 67 76 80 78 55 63 79 41 41 20 44 95 88 100 91 88 91 92 93 77 53 39 41 54 30 4 4 15 15 19 20 18 19 16
21 30 36 44 42 49 41 43 36 60 58 65 78 96 56 53 73 55 30 28 26 43 100 99 100 94 93 82 86 73 65 31 19 24 7 6 6 9 22 20 17 22 19 17 21
22 31 46 39 54 50 47 42 58 60 67 80 91 16 28 43 40 34 32 47 57 93 100 94 94 89 88 82 64 52 52 10 20 6 6 13 17 29 26 34 26 20 19 19 23
23 36 41 44 51 53 44 62 62 69 81 58 27 28 40 32 35 33 53 70 77 86 85 92 89 80 76 68 55 43 26 23 15 10 13 14 17 38 44 25 19 21 19 23 24
28 38 32 47 50 55 71 76 72 61 33 31 36 47 52 34 33 29 54 65 85 92 89 92 87 84 70 65 43 31 67 92 51 20 25 24 24 25 22 20 20 19 21 23 22
32 33 31 48 64 65 70 73 31 30 27 36 46 44 40 29 28 36 50 82 89 98 85 42 69 73 66 68 21 27 48 56 39 31 24 47 31 16 13 11 11 14 31 58 55
39 27 43 56 59 67 26 28 29 28 32 34 29 28 25 23 23 29 44 79 81 74 64 26 44 46 50 51 72 77 45 50 62 50 32 32 20 16 16 16 16 21 33 44 44
37 26 49 68 64 45 27 23 22 25 23 23 23 23 21 20 20 19 28 68 74 61 50 33 57 50 65 89 75 78 73 60 79 80 68 59 38 20 16 16 23 33 42 47 82
27 28 54 51 26 24 20 16 16 17 16 16 18 19 19 14 11 9 10 15 30 27 18 26 24 40 56 50 44 58 41 58 78 68 73 62 38 18 14 23 31 40 45 53 54
10 37 51 24 17 16 14 14 18 24 24 25 29 31 30 31 25 21 14 14 15 17 24 31 35 49 38 33 22 23 26 35 50 55 40 17 17 16 22 30 30 48 65 73 78
30 47 33 15 13 13 19 21 24 24 19 18 17 16 19 19 18 18 20 24 27 30 28 28 27 21 21 21 20 20 20 21 23 23 21 21 19 16 18 31 57 63 65 68 46
40 37 18 14 14 21 24 24 24 22 16 14 13 12 12 12 12 13 16 18 25 28 34 34 29 21 18 20 23 25 27 28 25 20 18 20 24 30 40 38 36 37 35 32 29
37 25 11 12 18 21 23 20 19 16 11 11 11 11 10 11 11 10 8 7 8 8 8 10 12 14 14 16 19 19 22 23 25 25 27 25 19 19 20 22 22 21 24 22 21
34 18 10 14 19 20 18 14 14 10 10 11 12 12 13 15 15 15 14 12 8 9 12 13 17 26 26 25 24 24 27 25 20 18 17 18 18 18 18 18 18 19 20 20 20
25 11 10 16 18 16 13 12 17 11 14 13 13 10 8 10 13 12 11 10 10 13 15 17 27 26 27 27 27 22 16 18 20 19 20 20 20 19 17 18 19 20 22 25 27
16 8 11 16 15 12 10 15 15 14 12 8 6 3 6 8 10 8 9 10 13 15 22 28 26 27 30 28 17 15 19 20 16 16 16 16 17 15 14 14 15 19 25 28 27
10 10 15 16 11 9 9 18 17 14 11 8 6 5 26 33 25 14 13 14 11 18 22 23 25 28 26 21 15 19 17 16 16 17 18 17 15 15 15 17 20 31 33 32 32
9 11 16 15 10 8 10 15 12 13 10 8 7 6 33 39 30 22 21 17 13 20 21 26 26 28 29 24 23 23 19 17 16 18 19 19 17 16 16 21 24 30 38 40 39
8 11 14 12 8 7 10 12 10 12 10 8 8 6 17 35 27 27 22 15 22 20 26 26 26 26 25 27 26 22 20 20 18 20 20 21 20 18 16 18 22 32 36 38 40
8 11 14 14 10 7 9 10 11 12 10 9 9 6 6 23 27 22 20 21 23 21 27 28 28 28 26 26 25 23 21 22 21 22 22 21 22 21 20 18 20 22 27 32 40
8 14 15 14 13 8 8 10 12 12 10 10 10 7 5 6 20 19 23 26 24 22 26 30 28 28 28 28 25 20 20 20 20 21 22 21 22 22 22 22 21 22 23 32 44

GFSSW_500_rhum_003.txt.gz
RH
12 12 9 11 33 19 20 34 36 34 31 23 14 23 36 33 30 25 28 35 34 47 44 35 46 64 71 85 66 75 85 69 72 80 97 97 91 95 94 96 94 82 43 36 34
13 12 10 22 35 20 27 31 34 34 35 19 34 34 41 45 46 32 38 57 70 86 62 56 62 60 65 74 58 77 82 74 92 85 97 90 96 97 94 75 82 61 16 20 17
15 13 11 19 30 27 31 28 33 33 21 29 66 58 46 45 39 44 48 58 67 73 72 61 61 57 69 38 74 90 78 82 97 88 96 95 93 69 46 19 22 14 11 16 9
16 14 12 20 21 24 29 26 33 28 32 54 70 69 62 56 38 46 58 79 74 63 64 51 42 57 31 56 92 82 78 90 98 93 85 52 45 43 16 16 14 15 12 7 7
16 14 14 21 15 19 30 35 36 23 33 49 60 83 60 50 38 45 52 84 85 57 35 30 32 46 72 97 95 87 99 97 95 92 81 47 44 37 23 14 14 17 17 17 16
16 15 18 21 22 26 37 41 43 23 27 38 59 74 61 45 53 55 61 90 36 24 32 90 93 97 90 88 98 95 88 94 92 91 54 52 39 31 6 15 15 17 20 21 22
16 16 21 22 26 32 40 40 46 26 28 40 66 80 66 48 59 54 70 53 23 37 76 89 82 85 96 94 86 85 70 64 62 61 54 54 23 5 5 12 20 24 21 21 22
16 16 22 24 29 35 38 43 47 46 40 53 69 78 88 52 53 63 46 57 38 89 100 100 96 95 90 95 95 93 90 80 36 23 45 46 11 5 15 22 40 32 28 23 24
17 16 24 26 33 36 44 49 50 42 49 55 71 86 73 56 48 85 34 18 58 96 97 98 99 94 94 91 90 85 67 58 27 34 40 26 13 13 21 25 35 25 24 21 27
17 18 25 31 28 36 48 42 36 52 51 74 79 52 28 52 55 40 25 59 98 99 100 79 94 85 87 78 78 62 57 31 34 18 11 19 22 33 64 53 50 24 20 18 23
17 20 25 29 25 39 45 36 58 54 73 68 34 25 21 41 35 33 23 82 97 88 92 97 85 87 80 74 66 54 32 36 29 26 28 37 35 44 36 31 30 27 20 21 23
16 21 28 31 26 42 50 62 69 68 58 37 31 32 34 31 30 31 44 86 100 97 98 78 77 82 79 74 63 34 43 97 86 34 24 37 36 22 17 16 22 18 18 23 26
16 21 33 24 35 53 54 64 79 43 31 35 46 48 48 32 30 32 50 73 100 96 90 89 77 73 66 69 77 43 88 90 79 54 34 39 22 19 21 22 20 24 30 30 35
17 25 31 23 47 49 62 43 30 31 33 39 36 30 24 24 25 28 37 75 98 98 84 61 31 74 73 65 70 32 76 64 86 100 86 49 30 23 21 17 21 25 31 42 38
20 27 25 23 54 56 47 31 27 32 31 28 28 28 25 22 22 27 36 72 91 95 80 60 59 40 81 62 59 42 78 80 55 54 56 40 27 24 16 20 23 26 29 46 49
20 27 12 50 47 26 26 23 25 25 20 21 22 19 19 18 18 17 23 27 76 78 74 50 29 30 43 41 76 67 41 51 46 32 25 24 28 15 19 21 20 32 44 49 59
21 21 23 46 23 22 20 19 16 17 18 22 24 25 20 16 10 8 8 10 20 34 26 28 41 34 42 55 34 36 24 22 22 20 17 21 21 17 22 30 41 36 28 38 39
23 11 47 32 19 16 14 15 21 27 25 26 25 26 28 24 26 23 22 23 21 20 26 28 28 28 30 31 26 22 21 21 20 24 25 21 19 26 33 36 30 21 20 19 21
24 28 46 18 15 14 15 20 26 22 20 16 14 13 12 14 12 16 17 18 22 28 27 25 23 24 22 22 19 19 20 24 22 22 23 23 22 21 22 19 16 17 18 20 22
22 45 30 20 14 19 21 23 23 16 15 12 11 12 12 12 11 10 10 9 9 9 8 8 9 10 14 13 14 16 20 24 25 20 18 19 18 18 17 18 18 20 20 22 26
19 34 20 14 20 21 22 20 18 13 11 11 11 12 12 13 14 15 14 13 13 11 9 11 13 18 24 23 25 24 28 22 20 20 20 21 22 21 18 17 16 16 17 25 31
15 26 14 14 20 20 19 14 13 10 10 12 12 10 7 6 7 12 15 12 12 12 11 12 16 22 25 30 27 25 18 20 22 19 17 17 17 17 16 15 15 19 23 32 38
14 32 12 15 17 19 14 10 14 11 14 10 8 5 2 15 13 10 9 9 10 13 14 17 25 28 25 26 21 16 19 18 16 16 17 17 17 17 16 16 16 18 22 25 28
16 31 11 15 18 18 12 10 17 15 13 11 8 4 6 34 37 29 16 12 13 13 13 21 27 25 28 26 23 17 20 20 18 18 16 18 18 19 18 18 17 17 17 19 20
16 26 10 12 16 15 10 10 18 15 14 10 9 7 8 28 40 35 25 22 19 13 18 20 24 26 27 26 22 19 20 21 20 20 19 19 20 22 19 19 20 20 20 21 22
18 20 11 15 18 13 9 11 16 14 13 10 10 11 6 11 31 34 27 26 21 14 20 22 26 26 25 24 22 21 24 22 23 21 20 20 19 21 21 21 21 21 21 22 23
19 17 11 16 16 11 8 10 12 11 13 11 10 13 9 4 7 25 27 24 17 20 19 22 25 26 22 25 22 19 22 23 22 21 20 19 19 19 20 22 22 23 23 24 25

GFSSW_500_rhum_006.txt.gz
RH
19 17 16 15 12 10 24 25 25 27 30 32 27 15 26 31 33 35 23 23 27 29 22 22 22 30 39 66 82 71 61 88 88 65 64 87 94 94 97 98 95 96 94 50 26
19 19 18 16 13 12 22 24 28 28 30 31 20 24 40 37 38 42 31 32 37 44 56 62 53 44 62 74 80 71 83 99 91 67 100 97 96 97 100 98 96 81 28 27 18
22 20 19 16 14 13 18 19 27 28 30 21 22 49 68 64 44 36 38 47 50 80 88 68 71 74 74 78 83 61 76 95 78 98 98 94 52 61 42 97 70 67 37 20 14
26 24 20 17 16 15 19 17 25 33 31 26 43 57 71 62 48 37 49 56 62 68 75 73 69 66 64 71 54 56 88 92 90 98 93 56 47 32 59 28 20 12 12 9 13
29 26 20 16 17 16 20 22 34 39 41 23 35 52 67 50 42 39 60 76 78 77 69 59 47 44 68 52 55 86 98 93 96 92 87 64 41 34 20 18 18 17 18 19 17
30 28 20 16 16 19 23 29 39 40 45 22 33 59 68 43 36 44 64 77 89 62 51 34 26 66 81 98 98 97 87 95 98 98 76 84 34 35 16 16 19 18 18 22 32
28 29 20 16 17 22 26 34 36 41 42 25 39 65 63 56 46 56 45 63 30 35 49 47 86 73 92 100 99 86 82 95 89 85 63 54 30 16 12 25 15 20 22 22 22
25 28 19 17 18 24 29 30 37 47 42 41 50 63 69 80 53 55 76 45 36 70 95 94 84 90 98 93 84 84 80 76 51 53 44 42 23 8 16 30 28 23 29 27 24
22 26 18 17 20 27 21 23 46 49 47 46 50 56 76 78 59 44 91 72 79 72 100 97 98 95 98 88 82 91 88 80 50 22 37 41 21 10 31 37 43 39 31 27 28
20 22 17 17 22 26 20 28 46 42 42 56 54 63 65 66 45 71 60 88 100 99 97 100 97 97 96 93 92 89 57 54 40 35 30 40 34 25 38 71 71 59 36 25 26
17 20 16 18 23 28 23 34 45 42 53 52 63 65 31 47 58 57 26 73 93 97 95 95 99 96 98 97 89 77 58 63 44 34 28 47 52 59 72 54 43 32 25 25 22
15 18 16 19 26 29 28 41 43 58 59 66 73 41 24 42 52 38 27 74 91 98 95 92 97 90 91 79 70 62 50 86 63 39 50 58 53 49 44 31 29 32 33 29 23
13 18 16 18 30 22 42 53 61 66 74 61 44 30 28 36 36 35 68 99 95 84 98 98 83 86 92 76 79 52 84 98 99 59 43 57 37 22 22 29 29 27 28 26 25
16 18 16 21 30 30 43 47 51 57 61 38 35 37 38 36 30 35 69 95 95 93 91 88 81 84 78 72 74 81 73 95 91 91 80 62 91 27 32 30 28 28 27 26 35
20 18 16 25 26 34 41 47 58 35 31 34 39 40 35 28 28 32 72 82 98 100 96 87 45 44 61 74 65 67 58 64 57 71 84 65 44 63 26 31 28 22 26 32 45
20 18 18 28 20 36 44 55 36 31 29 32 32 28 25 23 24 29 42 65 88 98 98 85 75 64 50 64 75 75 33 60 86 77 61 31 30 80 20 24 18 18 24 44 57
21 17 21 22 26 44 36 30 25 28 29 27 27 25 24 20 22 27 34 42 70 86 90 82 74 67 43 41 48 44 73 57 43 39 35 25 21 17 16 20 29 28 42 37 28
22 17 24 16 30 37 27 20 20 24 19 18 20 18 17 14 16 16 22 26 38 62 62 67 54 43 44 39 46 68 48 37 25 22 45 20 19 20 27 31 34 25 21 19 17
22 17 23 18 39 33 16 13 14 18 18 25 29 28 27 25 22 14 13 11 14 20 29 29 29 25 28 30 33 27 24 24 26 22 22 22 24 26 23 20 17 16 17 19 21
20 18 21 28 36 23 11 10 16 23 24 22 19 18 16 16 15 17 18 19 22 25 29 31 28 25 24 24 21 22 20 18 18 21 23 21 21 19 17 17 17 18 19 18 20
18 18 22 35 29 13 8 12 22 20 17 15 13 13 12 10 11 11 11 11 10 10 9 9 9 9 10 12 14 15 16 22 27 23 20 22 22 21 20 17 16 15 14 16 21
17 19 25 32 34 11 12 17 22 16 13 12 11 11 12 12 13 14 14 14 13 13 11 9 9 11 15 19 20 22 25 26 20 22 19 19 19 17 18 17 16 15 16 18 22
16 22 35 42 20 12 18 21 20 13 11 12 12 12 10 8 6 6 7 11 11 12 10 10 10 12 15 23 24 26 22 18 20 19 16 16 18 17 18 18 18 18 17 17 17
21 30 42 26 14 19 22 20 15 10 10 12 10 7 3 5 14 11 11 11 9 9 11 13 13 18 24 28 30 25 17 19 18 16 17 17 18 18 18 19 21 21 20 21 22
20 26 33 17 12 22 23 17 11 10 13 12 11 7 5 13 34 36 35 21 13 12 12 12 16 24 29 26 28 23 17 16 19 21 19 20 21 21 20 20 20 20 21 22 22
24 25 25 20 16 23 21 13 11 13 14 12 10 9 6 11 28 36 29 30 26 23 17 12 18 22 25 25 25 24 21 17 20 24 22 23 22 21 21 20 20 19 19 22 24
30 22 36 20 16 23 17 10 14 15 14 13 11 12 10 6 5 24 31 28 26 24 15 15 20 24 23 23 21 18 20 21 23 26 26 23 23 21 20 20 21 23 26 28 28

GFSSW_500_rhum_009.txt.gz
RH
21 21 18 18 18 16 15 14 12 18 21 26 30 23 15 32 40 32 34 37 23 23 29 23 18 23 41 39 66 83 51 79 82 88 79 95 59 80 54 59 86 97 86 85 90
24 24 21 22 22 19 16 16 16 18 20 29 30 16 17 42 57 38 36 32 27 28 31 34 44 47 58 61 67 86 51 83 86 72 90 77 81 95 88 87 87 65 79 68 43
27 23 22 24 24 20 16 16 18 20 28 33 26 20 33 50 62 38 36 35 42 50 80 70 90 66 58 67 70 84 80 94 84 96 65 92 98 90 91 88 96 81 77 56 25
31 29 20 23 25 20 16 18 20 24 33 39 30 33 49 44 43 36 37 45 56 67 90 91 88 79 68 70 82 84 66 73 63 58 76 91 94 72 92 96 61 22 23 20 16
34 30 23 24 25 19 16 18 22 29 35 40 37 26 37 53 39 37 40 60 64 69 88 72 75 72 65 53 63 65 71 88 94 80 93 90 92 80 28 26 32 24 15 18 14
35 29 23 27 24 19 16 20 27 31 31 40 37 29 42 54 44 42 45 66 79 75 82 52 61 55 57 67 97 99 73 97 98 93 87 96 72 45 26 30 17 18 18 19 20
30 28 27 28 22 19 17 23 28 27 28 43 34 24 51 70 56 58 53 58 86 55 67 48 38 50 73 76 96 98 94 96 96 96 88 61 44 28 16 33 25 16 21 21 24
22 21 24 28 20 18 18 25 21 19 40 46 32 31 56 67 89 62 45 64 61 56 47 35 51 78 84 97 92 95 95 100 91 94 84 57 68 11 11 18 16 18 21 23 20
18 18 22 25 17 16 19 26 23 22 41 43 33 35 49 66 80 52 66 78 96 76 66 88 97 98 97 96 93 89 92 97 90 78 44 72 72 12 31 38 25 24 21 22 22
16 15 18 25 15 16 20 27 25 27 40 40 37 41 41 71 80 43 71 90 96 93 98 98 99 97 91 92 94 94 87 86 74 39 40 85 64 13 22 34 39 42 47 30 22
22 17 17 24 15 16 21 30 26 33 47 42 48 40 58 54 65 47 76 100 98 100 100 96 100 98 100 96 98 94 72 71 74 38 72 89 56 24 59 78 66 50 35 28 31
27 20 18 22 15 16 27 27 29 32 46 50 49 50 61 39 51 74 66 100 91 100 96 92 94 93 99 99 95 86 87 86 64 32 53 87 100 50 60 65 43 46 38 39 33
25 23 20 18 15 17 30 24 36 48 52 59 58 63 56 29 60 82 36 90 99 94 97 100 94 99 96 99 94 87 76 98 86 35 45 98 94 33 29 30 28 31 32 32 37
26 24 22 16 16 20 27 28 42 46 55 60 60 58 31 27 50 50 36 85 100 99 96 94 97 94 95 98 95 93 75 92 88 94 83 43 92 85 26 16 30 34 30 32 37
22 23 21 18 16 23 26 34 44 44 50 75 42 30 35 38 50 41 63 91 100 98 86 93 82 85 94 98 60 91 82 55 84 81 96 99 64 77 67 35 30 32 31 32 38
21 22 23 19 17 25 25 30 48 47 56 47 26 26 41 42 36 33 64 86 84 88 77 99 77 54 82 50 51 44 52 53 51 88 86 72 99 96 96 69 34 26 22 22 25
16 21 28 19 16 25 20 38 59 42 40 23 19 28 29 27 26 31 43 87 94 94 99 84 87 76 72 68 37 65 92 88 78 95 76 90 65 47 96 78 39 19 17 18 20
11 18 28 19 19 23 21 42 55 23 36 16 22 27 25 23 22 27 29 48 84 100 99 84 63 51 52 63 96 39 97 84 92 91 74 86 70 61 65 30 20 17 24 33 29
7 12 26 20 20 23 26 47 20 21 33 20 23 24 26 23 22 25 30 93 68 42 100 98 100 78 26 37 44 97 43 63 68 52 26 30 67 81 31 21 22 21 19 18 17
4 18 28 21 23 22 29 31 15 14 16 16 17 16 31 14 13 12 19 83 26 21 55 85 95 59 24 26 27 32 45 28 26 24 26 82 87 83 59 18 17 17 17 18 17
3 23 30 20 25 20 23 24 14 12 12 18 25 28 81 39 24 24 94 35 20 21 21 29 33 34 27 23 49 22 21 21 29 47 31 30 71 71 23 21 19 17 16 14 14
3 20 26 20 21 22 33 12 10 14 17 22 18 16 14 16 12 13 43 47 13 12 12 12 12 10 23 8 10 12 16 17 20 26 23 22 28 25 19 18 17 16 16 16 16
3 33 32 22 20 43 35 11 9 19 19 16 13 12 10 10 12 12 13 11 13 14 13 12 10 9 10 11 13 23 26 28 26 20 20 19 27 17 16 16 17 17 18 19 20
16 34 33 20 26 56 26 7 13 19 15 13 10 11 12 12 11 9 9 10 12 13 15 13 12 11 13 94 46 28 27 26 17 16 19 15 17 16 15 16 17 19 20 20 20
15 27 30 19 29 54 26 10 19 19 13 10 11 12 8 6 3 3 11 8 8 8 10 9 11 12 15 18 27 24 27 22 14 17 17 19 21 22 22 20 20 19 20 21 21
6 30 32 35 46 42 16 13 20 18 11 10 11 9 6 5 10 36 40 37 28 17 12 11 12 14 18 28 26 23 24 23 18 16 17 20 22 26 24 23 24 24 24 27 32
29 40 30 41 53 35 13 17 24 18 10 12 11 8 6 6 13 30 39 38 33 31 26 22 14 14 18 22 22 18 22 25 26 26 27 26 28 23 23 23 26 27 32 37 40

GFSSW_500_rhum_012.txt.gz
RH
28 30 25 24 20 17 21 15 14 15 13 12 18 28 31 15 22 34 44 39 34 26 22 27 27 17 25 31 34 81 76 42 61 67 87 93 94 84 78 40 71 20 54 74 75
30 31 28 27 28 20 23 16 16 15 14 14 25 34 24 21 35 37 48 39 30 26 27 35 33 27 37 80 49 74 70 73 93 100 92 92 93 62 97 70 91 76 87 94 62
34 35 31 30 32 24 25 18 16 16 14 19 29 39 30 39 32 47 36 34 35 49 59 63 58 72 49 74 70 79 69 100 83 94 94 84 85 91 67 93 90 97 88 80 73
37 37 34 33 33 26 25 18 16 16 16 23 27 41 33 27 47 35 36 37 45 57 84 81 94 92 55 64 72 92 75 95 86 81 91 97 87 64 65 80 85 93 49 45 48
40 40 38 35 36 28 26 16 16 17 17 19 23 41 30 24 51 42 34 38 53 61 77 91 89 81 60 70 73 94 90 100 92 82 90 79 83 67 83 46 74 77 12 22 18
43 43 40 38 37 30 25 17 16 19 17 13 27 42 23 24 54 55 39 44 56 67 79 63 81 77 96 86 54 97 84 68 83 88 94 94 96 55 45 45 29 16 15 14 9
43 44 40 33 31 26 22 16 16 19 16 13 35 36 19 32 58 68 58 52 60 74 73 64 72 69 70 87 100 95 78 59 96 97 100 93 73 38 25 30 30 24 18 17 20
46 44 31 25 24 22 20 15 15 21 17 13 35 24 18 28 49 69 65 60 59 54 50 46 65 58 65 64 94 97 91 95 97 76 68 84 74 26 16 10 18 18 15 15 17
45 40 30 20 20 20 20 14 15 21 20 16 32 20 20 31 55 68 51 74 71 60 47 37 56 67 74 90 91 84 99 97 95 72 53 74 78 30 7 19 15 14 13 15 18
46 39 31 18 18 19 20 14 16 19 21 21 32 26 26 40 49 66 53 56 70 92 60 74 94 95 94 96 93 94 91 90 88 78 42 78 76 50 4 25 96 12 13 13 14
47 44 30 21 20 23 21 14 15 20 20 22 41 35 36 44 52 42 60 63 73 97 80 96 98 98 97 92 92 94 92 96 92 56 44 88 83 40 7 24 52 45 59 13 17
46 43 35 26 23 27 20 13 16 19 19 27 42 38 49 56 55 34 64 85 75 77 98 94 95 92 90 95 96 98 96 89 80 56 35 81 97 14 14 24 23 18 14 15 13
45 42 40 32 27 28 19 14 18 20 20 29 36 45 52 59 34 33 68 77 95 99 99 88 91 96 95 91 90 98 96 86 96 23 38 91 100 99 25 25 62 23 22 17 15
36 34 37 32 28 31 19 15 21 22 24 26 38 52 51 53 28 49 82 89 100 98 97 98 89 83 89 82 96 98 78 100 95 80 61 84 95 95 76 33 18 18 19 16 14
46 35 32 29 32 28 20 17 21 22 31 34 40 50 41 31 52 28 49 57 99 99 98 100 70 72 96 99 98 85 100 81 95 99 98 84 91 83 85 67 24 37 39 21 15
34 32 30 29 29 30 19 20 26 24 31 35 37 39 28 26 26 56 52 37 84 99 100 94 79 100 95 94 54 45 35 50 94 84 99 93 95 92 93 98 98 81 79 41 22
24 22 24 23 23 29 19 18 36 15 37 60 41 30 30 36 31 30 49 40 56 92 98 71 72 70 50 53 55 30 39 85 87 87 64 95 97 81 82 79 98 79 60 34 20
17 18 18 15 19 30 20 22 31 23 44 64 42 32 40 94 32 30 32 35 43 78 74 100 97 51 36 34 84 83 50 99 88 90 87 94 76 99 89 66 46 31 40 18 18
12 13 15 10 19 30 20 20 24 48 56 87 75 96 77 100 62 27 31 37 47 71 73 58 82 98 70 24 36 77 86 86 93 98 89 66 70 69 47 80 91 57 19 20 18
8 9 8 5 22 29 20 20 32 62 50 92 82 85 94 98 41 32 29 35 77 76 92 96 89 95 88 33 16 27 56 35 30 23 18 18 72 92 92 64 50 18 16 16 18
5 6 5 4 19 26 16 18 48 56 27 85 27 90 90 89 23 46 82 98 86 62 53 63 98 99 21 20 21 24 25 20 24 38 24 20 77 97 78 63 21 20 17 16 15
4 4 6 5 11 18 16 23 55 43 13 19 33 96 69 100 24 29 96 85 40 13 12 19 21 27 19 19 16 18 37 32 16 16 16 20 26 38 57 34 19 18 17 16 16
3 3 23 8 9 14 20 27 46 28 15 16 20 38 46 93 89 26 94 88 41 20 19 19 18 12 28 54 11 10 13 25 50 20 19 22 21 20 22 20 17 16 17 17 17
2 3 30 23 9 20 23 29 39 15 12 18 25 27 20 22 27 13 17 15 11 11 11 11 12 12 11 29 97 82 19 26 29 21 24 18 20 28 20 13 14 16 20 20 20
2 2 4 15 17 16 28 36 41 14 12 25 24 17 13 11 11 12 14 10 11 11 13 15 14 16 15 49 60 100 61 30 27 24 19 18 19 26 56 40 19 20 17 23 28
3 3 3 16 23 24 25 43 40 11 16 20 18 13 12 12 12 8 7 4 7 9 6 7 11 11 10 15 15 18 19 21 25 25 20 16 18 34 18 18 21 23 28 26 30
2 3 12 9 40 37 27 52 40 13 22 23 16 13 14 16 6 5 13 77 42 30 25 19 13 12 12 13 16 19 26 26 24 28 27 26 26 31 28 20 18 28 30 24 30

GFSSW_500_rhum_015.txt.gz
RH
30 24 26 32 32 30 28 24 16 15 13 12 12 10 18 25 33 25 36 31 33 33 29 26 28 27 17 18 26 82 79 61 73 90 100 99 95 96 75 68 86 70 70 70 35
35 28 30 34 35 32 30 22 18 15 14 12 11 12 18 26 34 35 39 31 27 27 27 26 34 27 46 33 34 85 59 88 94 95 99 97 97 82 75 71 76 82 79 86 92
40 35 33 35 37 34 32 23 20 16 13 12 12 11 16 30 30 33 32 30 33 43 51 57 36 35 69 89 52 81 81 87 88 98 67 87 99 84 82 83 84 68 95 96 96
41 39 35 38 38 37 32 24 20 16 12 13 13 11 21 31 22 32 37 32 35 50 62 86 71 63 64 91 58 78 99 89 96 84 83 100 95 97 73 61 62 66 84 95 96
46 42 41 41 40 38 32 23 20 15 12 12 13 11 25 22 22 43 49 45 39 52 64 81 99 92 71 90 78 93 96 96 91 98 92 73 49 64 82 63 46 94 95 82 78
48 46 46 43 42 38 26 22 20 14 11 12 13 12 23 18 22 36 53 78 48 54 67 74 87 83 82 86 80 94 100 89 95 92 64 69 80 87 61 42 26 56 95 20 25
49 48 48 45 44 35 22 21 22 13 10 12 12 12 23 18 16 40 59 71 53 74 65 74 80 73 75 94 90 99 100 86 99 74 80 98 86 79 31 34 27 40 33 33 24
49 47 47 49 46 31 20 21 20 12 11 12 12 13 22 17 18 47 53 55 63 77 84 62 65 67 57 63 69 76 99 80 69 67 97 95 62 26 14 13 16 16 13 20 18
51 50 51 51 44 30 18 17 18 12 12 13 10 17 25 22 27 42 53 46 52 50 54 42 66 61 67 65 83 93 87 95 92 90 65 82 55 70 26 9 15 12 12 14 12
54 61 62 54 42 33 19 17 17 13 13 13 12 21 29 29 26 30 40 53 70 56 42 44 55 55 84 96 86 100 84 96 91 61 68 73 62 67 33 6 62 31 14 14 14
64 81 89 68 47 35 23 20 20 14 13 11 10 17 33 30 27 33 39 61 59 72 83 77 82 86 82 87 98 95 95 80 67 37 47 62 80 85 56 12 62 71 87 62 15
93 95 93 93 61 38 27 24 24 16 12 12 12 20 33 30 40 28 44 62 53 66 78 73 82 72 80 92 70 100 99 94 96 84 49 82 73 90 19 16 21 18 38 22 28
97 96 93 69 54 44 33 28 25 17 12 12 13 19 25 24 38 33 33 61 72 61 95 78 84 92 88 85 93 96 89 95 91 79 57 76 94 94 44 20 24 22 26 16 13
90 87 91 69 50 48 37 35 30 18 13 14 17 29 32 36 40 31 25 61 92 91 70 92 85 93 93 85 100 85 98 93 83 93 25 70 94 78 98 56 82 32 23 24 16
70 47 45 44 40 39 38 36 30 21 15 17 18 25 33 33 36 24 22 54 78 82 76 95 99 100 97 80 66 91 88 93 70 91 85 98 94 80 86 70 84 57 42 26 11
46 35 39 32 25 35 34 33 31 23 23 27 16 30 31 22 20 22 36 57 93 80 56 85 65 53 66 76 94 48 47 66 90 76 99 95 83 87 80 88 70 91 64 50 31
66 44 45 48 28 38 29 30 32 28 34 26 16 30 28 14 16 19 26 62 62 82 40 61 68 97 98 73 55 39 31 39 38 62 62 71 78 87 95 87 91 54 53 57 36
81 97 92 29 34 27 21 25 26 26 35 41 23 38 20 12 24 24 34 48 48 41 78 74 90 77 81 50 80 70 37 76 90 82 43 58 87 95 86 72 44 46 68 68 24
61 32 54 15 26 20 22 26 23 26 43 38 43 51 19 18 45 35 31 35 47 37 61 55 92 85 84 92 82 77 86 78 100 77 81 95 77 99 79 64 28 64 40 17 16
23 36 24 9 35 40 55 29 20 30 43 67 62 47 17 67 84 96 35 33 34 40 56 67 84 99 98 70 55 51 46 71 72 61 18 19 29 30 83 72 87 48 19 18 18
12 15 10 7 11 12 40 32 20 34 41 53 51 75 29 64 67 72 37 60 68 89 100 90 74 91 89 90 56 35 24 34 44 29 20 18 66 67 70 58 41 44 20 18 18
5 10 5 6 12 23 27 28 22 44 46 55 55 94 29 87 96 46 30 83 62 100 96 82 62 34 73 34 33 27 21 32 40 31 20 12 17 28 74 75 72 53 23 18 17
4 4 4 5 10 16 17 13 28 34 40 39 29 35 21 100 96 65 31 100 94 91 58 45 30 24 33 38 24 25 20 21 11 10 19 15 18 26 27 30 26 24 20 18 17
4 3 4 4 10 12 14 9 25 33 48 48 18 30 21 98 97 91 34 59 69 72 26 18 18 19 20 16 16 20 69 23 16 15 18 22 22 28 24 20 17 16 20 23 19
4 4 3 6 9 11 12 8 27 30 43 39 14 23 17 59 100 100 44 27 18 17 20 16 11 10 10 11 14 17 40 54 30 25 22 27 20 22 21 24 18 13 12 14 24
4 5 4 4 9 8 9 10 27 28 48 30 10 25 23 22 29 33 26 11 8 10 11 11 10 10 11 13 13 13 49 26 30 26 24 25 22 19 18 17 17 16 18 25 22
3 4 4 4 8 13 14 10 23 29 44 30 13 24 28 19 15 12 14 13 7 7 6 7 6 6 10 11 11 11 12 19 26 36 42 32 31 33 25 18 15 18 27 29 29

GFSSW_500_rhum_018.txt.gz
RH
28 30 30 33 28 27 32 34 32 24 19 14 12 8 8 9 17 28 28 28 30 30 27 30 28 25 27 19 47 86 91 68 72 85 83 84 70 77 71 85 86 85 89 94 74
34 36 37 38 36 31 33 36 34 25 19 14 12 8 8 10 22 24 29 28 31 34 44 31 27 32 23 25 85 88 89 60 68 88 80 67 89 78 97 98 81 96 83 62 94
41 43 44 43 44 37 36 38 36 24 18 14 11 8 8 10 22 18 36 44 35 39 55 59 50 38 32 58 75 90 92 88 70 92 64 60 80 98 96 94 81 56 51 70 77
44 47 50 48 48 44 40 39 37 24 16 14 10 8 8 11 18 18 27 37 50 46 58 70 62 59 100 96 65 81 96 85 88 66 44 61 75 82 90 88 52 53 62 58 100
51 54 53 49 54 50 42 41 34 21 17 16 9 8 9 14 17 16 28 50 64 48 65 76 83 89 98 92 63 88 80 98 67 52 66 93 88 94 80 72 56 61 88 85 89
58 57 54 54 58 55 45 43 33 18 18 16 9 8 9 19 15 16 35 36 44 51 68 71 71 60 85 89 77 85 86 85 60 52 84 84 92 89 41 28 24 60 97 94 95
61 58 53 53 60 58 48 48 32 18 18 16 9 9 10 17 16 18 34 31 31 53 62 72 82 79 60 74 91 90 94 60 73 84 92 76 90 84 29 31 27 65 67 36 36
60 60 53 53 58 60 59 50 30 17 17 16 10 10 10 19 20 22 32 32 37 59 70 71 76 81 55 65 82 89 81 95 76 100 86 91 78 40 22 25 12 18 51 52 21
63 57 53 53 59 61 65 49 29 16 17 16 11 10 13 20 24 20 36 38 47 51 72 59 64 73 70 71 67 65 73 76 86 83 95 56 67 30 12 11 21 23 14 18 16
71 66 60 57 64 70 82 50 28 18 18 16 12 10 13 22 24 20 34 44 57 47 56 43 69 69 77 85 79 77 99 97 97 94 81 47 60 61 35 20 68 65 28 14 12
94 87 88 72 88 85 84 46 32 23 21 18 12 9 16 23 24 24 26 43 39 53 46 53 54 58 80 88 84 87 85 97 91 64 65 62 61 75 85 35 61 79 68 63 16
96 96 96 94 91 88 89 54 34 28 25 21 12 11 12 19 20 25 26 37 32 52 70 67 53 67 71 93 92 74 81 81 56 57 49 60 69 96 77 21 25 33 75 69 35
98 97 95 96 81 94 94 57 42 33 27 24 14 14 15 14 15 23 34 33 36 48 88 80 80 77 99 98 92 91 96 80 69 69 72 70 51 53 59 66 55 39 31 18 17
95 97 98 95 96 97 87 70 47 39 27 26 16 16 19 22 30 24 39 27 36 49 76 77 81 82 92 100 90 89 78 84 94 89 85 65 63 58 56 77 66 71 56 20 17
93 96 96 94 99 96 88 69 50 39 29 24 16 18 19 26 24 27 35 23 29 40 55 92 73 68 96 88 66 76 85 89 90 85 96 50 58 70 96 89 73 60 65 68 37
86 93 86 98 97 86 88 59 45 35 30 26 20 28 21 29 26 23 22 18 35 35 71 92 78 77 96 87 78 51 66 74 80 73 79 68 78 84 91 98 100 76 55 37 23
66 84 92 81 74 84 51 54 37 33 31 28 25 29 22 28 22 15 14 17 29 42 64 77 74 68 92 81 79 59 46 94 74 76 73 72 64 50 73 86 84 77 52 40 52
84 79 77 100 90 67 32 54 44 35 31 32 30 26 24 30 15 11 16 18 28 57 90 93 65 76 88 66 50 52 61 42 40 56 77 80 65 45 72 77 68 48 68 74 60
59 89 59 100 82 70 40 59 43 40 29 32 29 28 25 31 13 16 22 20 24 44 57 91 69 80 56 42 38 65 64 65 55 66 53 83 71 80 77 64 32 47 44 22 18
34 56 76 89 93 100 57 51 50 32 26 30 27 28 30 30 11 23 30 24 46 46 46 68 98 96 72 64 52 45 70 73 79 72 46 56 26 34 23 36 78 71 48 23 21
12 23 47 80 93 96 59 46 49 24 24 29 29 31 30 25 16 37 54 42 33 35 44 44 57 82 79 79 98 88 60 59 55 74 57 28 27 21 18 48 64 55 36 34 20
7 15 22 24 76 74 51 52 50 36 27 28 37 36 40 22 46 74 46 37 47 45 44 53 88 71 66 82 78 95 44 38 22 25 35 22 15 49 43 69 56 25 18 18 20
6 7 15 6 33 58 47 45 56 41 28 28 31 44 50 22 28 50 68 45 52 41 49 55 91 91 64 49 67 31 33 30 24 33 33 17 16 29 30 30 25 19 17 18 17
6 5 7 8 27 39 51 48 31 19 22 25 31 44 38 31 21 77 62 25 57 70 83 100 72 40 15 19 29 28 37 55 18 12 11 14 26 40 27 28 26 18 15 16 18
5 6 6 10 18 29 43 41 18 14 19 27 28 40 55 18 16 48 88 15 46 37 92 75 54 22 18 20 18 17 10 18 28 47 28 21 31 34 28 20 18 17 13 12 13
3 5 6 6 6 14 31 36 22 11 17 17 26 43 48 12 11 34 93 34 31 35 73 94 72 39 19 12 10 12 12 12 21 59 61 47 34 33 24 19 18 16 16 17 21
3 3 6 6 5 6 14 21 13 8 16 25 29 50 50 13 20 32 87 96 84 43 27 16 12 13 10 10 11 11 10 10 16 37 23 27 37 24 25 26 23 24 27 29 32

GFSSW_500_rhum_021.txt.gz
RH
26 24 21 24 29 34 36 31 28 33 35 32 21 14 11 8 8 7 17 24 34 38 30 34 28 30 27 29 23 54 72 56 66 57 67 84 93 69 67 79 86 92 85 81 82
30 29 27 28 30 37 40 36 32 35 37 32 20 15 12 8 8 11 16 23 34 43 45 35 41 35 34 25 26 82 79 55 65 70 93 92 73 74 82 78 90 83 74 75 68
36 36 32 32 34 38 40 39 36 35 39 33 19 16 11 8 8 13 16 27 44 49 50 58 58 34 38 56 33 97 99 81 69 74 94 70 67 78 96 94 81 66 68 57 62
43 39 34 37 36 40 44 42 39 37 41 30 18 17 11 9 8 14 15 26 32 48 49 69 52 48 95 96 64 93 93 88 91 75 93 74 88 94 95 87 70 59 58 76 76
50 44 40 42 40 44 46 46 42 39 41 27 19 18 10 10 8 13 16 24 28 39 51 60 64 37 74 43 51 94 86 84 99 90 81 84 90 86 75 64 58 60 91 86 94
50 51 50 51 48 49 48 46 44 41 45 27 18 18 10 10 10 15 17 25 25 30 50 59 76 75 80 56 85 78 99 83 93 67 66 86 91 55 41 31 30 67 89 94 97
58 58 58 61 60 55 51 47 44 45 53 24 18 17 11 10 10 18 19 25 27 23 40 64 83 87 58 93 76 75 90 94 71 55 68 93 95 43 30 31 27 56 66 43 70
71 80 69 80 64 60 54 47 46 50 50 24 17 17 11 10 10 20 19 25 32 41 61 73 62 80 78 88 75 76 83 70 65 66 77 94 89 86 42 12 12 26 57 48 17
95 91 88 91 80 59 53 48 50 57 52 23 17 17 12 11 11 20 18 28 38 43 56 73 57 80 85 72 83 79 72 65 58 61 82 93 95 68 36 13 19 22 18 13 11
98 99 97 93 88 66 52 52 54 54 63 22 18 17 13 10 11 20 22 26 44 48 52 54 60 73 89 83 78 62 71 70 66 64 80 74 70 80 51 61 43 49 26 19 13
97 98 96 96 92 78 62 63 57 63 42 25 22 19 13 10 12 16 26 25 42 55 45 47 68 72 95 77 72 58 64 92 91 86 71 54 71 69 58 57 80 66 43 28 28
94 94 96 97 93 89 71 67 68 70 55 28 25 22 15 11 11 13 23 25 34 44 48 48 63 62 86 84 91 96 91 96 95 92 58 33 38 55 62 23 35 37 55 65 25
96 88 99 97 98 96 87 85 89 80 63 34 27 24 16 13 13 12 19 32 30 37 66 57 57 79 83 88 92 96 95 68 62 50 46 51 48 52 57 56 65 49 38 17 15
94 99 96 95 96 97 93 88 93 92 79 37 28 23 18 15 18 17 24 30 26 42 66 51 48 72 95 88 92 87 99 88 83 86 79 73 65 58 63 66 73 84 74 70 20
92 100 99 82 98 93 88 94 93 98 60 39 30 22 18 19 20 21 32 27 31 41 54 59 45 61 79 86 92 86 75 68 47 59 91 83 70 48 67 67 55 65 82 87 82
100 91 96 97 98 91 96 97 97 92 55 39 30 25 19 23 22 22 27 24 30 28 56 55 41 60 68 97 88 84 78 81 76 76 78 86 57 47 68 72 66 58 50 66 45
97 95 96 100 84 95 96 97 96 71 51 39 32 27 24 24 25 22 21 17 18 24 55 62 78 72 76 95 72 60 52 76 85 85 82 76 80 62 79 77 65 48 58 53 59
73 98 99 88 91 76 96 97 77 60 40 37 33 29 27 26 28 26 15 11 16 21 67 69 82 65 75 88 77 66 56 57 73 77 64 50 39 39 56 58 83 83 34 50 60
48 71 96 57 64 100 62 85 62 60 39 33 32 32 32 26 28 28 12 10 20 21 54 68 85 89 88 95 84 71 52 47 41 38 37 37 40 45 51 66 71 60 35 43 21
26 32 69 93 22 88 85 59 65 53 40 32 32 32 31 28 28 27 10 20 22 18 43 70 73 76 93 86 94 74 54 58 61 54 56 44 55 68 44 75 58 59 51 37 20
10 15 29 28 77 47 58 50 63 52 42 30 33 30 29 26 28 28 12 42 27 37 39 56 59 79 86 83 80 89 90 86 54 56 46 39 30 48 24 16 15 50 62 42 37
8 15 18 7 57 66 52 55 62 60 45 39 40 29 27 26 29 28 36 56 34 35 49 47 46 70 75 93 84 79 88 89 77 25 22 26 16 20 24 18 17 18 26 35 36
6 10 14 6 28 51 55 59 77 57 66 60 43 32 26 26 34 35 30 58 40 34 33 35 37 37 41 57 56 46 77 99 82 23 13 21 21 22 26 17 14 14 16 21 22
7 6 8 9 22 42 57 63 71 89 49 57 40 33 26 26 39 44 46 53 35 41 48 44 40 50 52 67 94 72 86 64 38 21 23 14 11 18 23 26 16 20 17 17 17
7 6 6 10 15 23 39 58 75 92 77 50 48 47 29 27 39 51 29 46 55 32 46 69 56 58 84 57 30 20 22 27 23 14 16 14 22 16 24 26 23 21 17 16 15
6 8 8 7 10 15 25 37 61 73 78 64 69 58 30 31 43 64 30 35 55 36 23 36 80 92 81 48 30 22 24 25 12 10 10 10 18 26 25 36 32 24 19 17 21
4 6 8 9 7 10 14 25 37 65 44 38 42 41 29 32 64 82 58 29 99 98 28 34 52 83 70 51 35 20 11 11 11 13 13 12 16 22 27 30 29 31 30 28 24

GFSSW_500_rhum_024.txt.gz
RH
26 27 28 28 28 27 23 23 29 36 35 32 35 38 27 18 12 9 9 9 13 19 45 45 29 25 25 28 27 34 65 75 71 78 74 66 67 59 54 52 75 78 98 94 90
30 31 31 32 31 31 30 26 26 36 39 36 36 39 26 18 14 10 9 10 13 22 46 45 46 28 28 24 34 99 67 71 75 81 89 93 66 81 52 43 69 74 76 95 92
36 36 35 35 36 37 31 30 28 37 42 39 37 39 23 17 14 11 10 10 14 24 32 42 46 30 21 23 85 96 73 85 79 83 82 94 91 78 80 71 86 97 96 88 60
46 45 43 43 50 45 37 38 33 36 44 42 40 39 23 17 14 11 10 12 13 19 23 45 60 37 23 21 87 100 99 100 99 90 86 96 93 91 82 96 92 77 72 56 62
55 53 53 53 53 58 46 41 38 39 49 45 42 42 25 17 15 11 8 13 15 23 19 45 67 59 34 45 83 95 93 98 97 89 90 97 93 89 91 57 64 69 70 76 83
65 51 53 52 54 58 56 48 46 47 51 48 46 45 27 17 14 11 8 14 16 20 23 46 68 78 57 78 59 87 95 87 90 98 94 97 91 49 43 25 50 72 91 91 91
77 70 59 53 56 62 63 58 58 51 54 49 50 46 34 16 14 11 8 14 16 22 28 57 74 84 76 80 82 74 95 82 93 88 83 89 76 67 32 26 46 70 51 36 37
91 87 78 74 85 77 77 66 54 58 55 51 52 45 53 17 15 11 9 12 18 33 36 65 72 69 78 73 90 69 97 93 90 90 84 85 92 66 37 13 44 48 88 20 22
98 97 96 84 93 95 85 89 61 60 55 53 55 56 43 17 15 10 9 10 21 32 39 61 54 69 77 81 93 68 99 95 72 70 81 90 78 47 49 14 37 41 22 15 16
94 98 96 86 91 85 95 95 74 65 57 54 56 68 30 19 16 11 10 10 21 33 42 62 53 66 65 94 83 83 83 80 64 61 82 94 82 38 42 67 55 28 22 17 17
90 97 99 96 92 92 85 96 90 75 61 52 58 62 26 21 18 12 10 10 19 30 36 47 51 60 54 92 81 82 73 74 64 67 86 87 79 37 53 66 73 71 24 17 20
98 98 96 93 93 97 95 85 99 83 70 59 58 68 26 24 19 12 12 11 18 34 45 51 64 70 55 86 100 83 74 81 78 78 86 68 55 46 38 27 46 68 59 36 22
98 98 96 90 88 94 87 94 100 90 75 68 69 66 30 25 20 14 14 14 16 25 54 63 53 66 61 95 99 98 95 93 67 53 41 39 39 58 71 47 66 55 65 52 30
100 97 97 87 89 86 82 98 96 95 81 74 76 76 50 28 22 16 16 17 20 27 33 58 48 46 54 64 79 98 100 86 70 53 70 77 64 54 73 71 76 70 96 55 24
83 100 92 87 89 87 80 92 96 86 79 78 89 84 60 28 22 19 22 17 22 34 31 54 56 54 63 69 77 98 90 77 64 69 62 75 63 61 62 68 75 75 79 76 42
68 93 98 94 93 100 87 98 93 92 77 79 88 93 37 30 24 18 21 19 24 29 25 44 58 59 81 69 63 77 78 70 63 54 50 48 54 53 55 69 81 74 63 75 70
58 91 83 100 88 89 90 97 91 79 89 88 84 63 37 29 20 21 26 19 22 24 23 49 54 61 77 64 58 70 65 70 68 57 58 58 50 41 53 62 60 69 60 50 45
31 70 80 80 78 87 80 92 69 59 77 92 79 41 34 30 23 23 27 22 20 16 26 43 66 65 71 78 84 76 65 65 71 61 69 66 49 47 52 50 64 61 74 54 42
16 38 74 71 97 89 70 82 51 62 78 100 82 55 36 33 26 26 30 26 21 11 18 32 66 89 88 94 92 73 65 61 58 53 54 55 40 33 37 41 55 49 58 57 30
13 17 43 75 36 91 75 62 59 77 94 98 80 48 37 34 30 30 29 27 20 8 18 34 65 93 100 100 91 94 77 71 60 50 40 42 44 42 38 59 54 66 64 67 52
9 14 27 67 29 74 58 50 59 68 99 97 86 53 37 35 34 31 31 26 15 11 20 28 53 96 97 87 99 96 80 72 60 67 58 45 36 28 41 45 39 26 30 63 68
10 12 17 43 51 54 48 49 62 75 97 98 77 36 34 35 32 31 29 26 20 18 20 25 49 85 88 87 97 88 78 68 64 60 62 67 29 17 25 29 24 20 20 60 79
12 9 10 14 41 38 44 55 53 94 98 92 62 33 30 32 33 31 32 34 37 33 27 40 43 76 81 74 60 70 77 73 60 49 46 66 34 14 20 27 19 22 16 16 21
9 9 8 9 22 36 45 52 53 92 99 86 63 32 32 35 30 35 36 33 38 46 38 47 51 50 45 43 58 75 58 62 51 50 41 29 24 34 22 15 18 15 18 15 21
6 10 9 14 17 19 29 41 68 72 96 84 36 35 31 35 34 33 40 42 36 47 50 45 38 39 42 56 48 55 60 63 48 40 33 26 19 17 14 50 30 22 23 25 23
3 9 12 11 13 18 20 25 52 77 97 85 71 36 35 45 37 48 60 59 44 53 52 42 46 46 83 86 71 74 47 22 16 18 20 14 7 10 11 39 60 34 30 26 22
2 6 12 12 10 12 12 18 34 83 92 92 72 44 51 48 60 60 61 66 50 59 66 48 42 63 80 100 95 49 23 27 22 17 10 7 10 13 12 14 27 49 43 33 27

GFSSW_500_rhum_027.txt.gz
RH
27 27 27 26 27 27 29 30 28 30 28 27 33 39 37 36 36 23 14 12 10 9 12 15 30 32 20 23 27 31 52 87 98 96 69 77 72 69 69 66 61 69 50 44 74
32 31 30 30 30 32 33 33 35 36 37 34 31 42 40 39 35 24 16 13 9 10 12 15 24 20 16 22 36 80 73 75 84 93 89 74 84 75 66 43 54 60 70 63 73
36 37 37 38 37 37 37 39 57 47 47 38 29 44 43 40 38 32 18 13 9 10 12 16 28 22 19 20 58 67 68 81 85 86 73 98 97 92 92 87 54 59 72 63 63
51 45 42 45 45 43 44 51 49 58 50 44 35 50 48 42 40 38 18 12 9 10 15 19 34 25 18 42 68 77 76 98 80 84 67 92 92 96 95 96 84 60 90 87 80
73 70 54 51 56 52 50 55 63 58 52 50 46 54 51 44 42 47 18 13 9 10 16 23 41 34 25 43 87 82 82 79 100 69 98 80 95 95 92 60 96 95 74 60 63
77 80 75 70 73 70 54 52 55 61 64 63 60 58 54 45 44 59 21 13 8 11 16 24 46 43 36 43 77 87 80 66 91 100 94 87 87 39 28 53 87 92 80 78 80
65 81 83 83 79 75 70 58 57 61 68 68 62 64 56 49 50 62 23 12 8 12 18 29 46 45 58 73 41 78 86 98 84 98 96 99 59 50 33 25 76 48 30 33 24
64 66 78 81 81 83 82 77 73 80 72 72 70 62 58 52 57 57 20 13 8 13 22 31 52 36 36 70 60 71 97 100 100 83 88 93 93 66 48 22 74 52 23 26 19
75 70 62 78 83 78 83 90 85 91 92 93 78 65 58 54 58 50 19 13 9 12 23 33 45 42 38 51 73 87 88 99 98 97 98 96 89 85 64 25 49 51 24 24 24
68 81 73 76 91 92 83 85 89 90 77 99 89 72 59 58 59 38 25 14 9 12 24 30 36 46 51 31 77 78 87 97 98 87 86 98 85 64 88 63 33 18 17 18 22
68 88 89 76 77 92 86 92 91 81 78 92 98 87 64 60 60 38 29 15 10 12 25 35 40 49 47 32 62 71 90 91 82 73 85 90 84 58 69 60 72 56 19 18 22
53 79 100 93 85 81 82 77 78 85 82 93 88 100 71 61 64 39 29 16 12 12 17 34 40 50 49 37 67 79 84 77 70 66 76 96 86 52 42 55 50 68 49 24 23
42 77 98 98 89 92 81 83 87 72 62 93 88 94 75 66 69 38 26 17 13 15 16 25 43 43 47 59 74 84 87 75 67 83 98 79 69 58 58 74 71 66 75 62 26
32 58 82 95 92 97 89 85 88 66 60 74 85 94 89 74 82 34 28 18 14 17 20 26 41 38 49 58 94 80 84 85 78 83 69 50 51 60 68 68 99 91 98 51 29
20 37 60 77 90 99 93 95 90 73 68 65 63 79 88 77 83 81 33 20 18 19 20 27 39 38 41 55 76 84 86 80 85 79 48 53 52 61 65 72 92 100 100 100 35
16 24 40 48 68 83 91 98 89 81 56 63 63 74 90 91 95 92 30 23 22 17 17 22 27 50 50 57 63 71 88 86 78 47 55 58 59 58 59 75 83 94 96 97 98
12 16 26 42 55 63 75 96 92 60 55 62 64 85 96 94 93 77 34 25 22 20 21 23 19 46 59 65 63 68 73 73 72 59 59 63 57 53 55 59 64 72 82 89 86
7 15 19 32 64 55 62 86 77 45 55 71 72 72 96 97 93 49 34 22 26 21 22 18 20 32 47 54 63 69 80 68 63 55 56 52 45 45 54 52 42 48 78 73 73
7 11 16 24 54 30 52 73 33 39 52 84 86 83 96 92 58 36 27 25 30 28 27 19 19 47 59 61 63 75 81 79 68 60 53 50 46 43 41 38 40 50 52 55 71
7 10 15 16 35 39 36 44 38 41 65 80 91 91 99 80 42 35 29 30 29 31 26 19 24 54 78 81 77 84 93 82 66 62 62 49 37 32 40 45 43 52 63 48 60
6 10 13 10 25 33 55 28 38 34 59 74 90 96 98 76 42 40 38 36 36 35 19 12 18 42 71 84 86 96 93 90 78 71 60 44 49 58 34 26 40 45 44 52 60
8 6 11 8 19 43 44 23 30 43 55 76 77 98 100 96 69 44 40 42 42 29 14 15 20 27 55 92 96 89 80 92 97 75 65 52 40 59 35 17 33 40 38 27 19
20 5 9 12 10 24 31 30 28 55 59 78 88 99 100 95 83 61 47 46 38 26 18 21 21 23 40 70 82 75 77 94 96 80 56 54 42 58 28 17 20 28 23 20 20
33 8 6 16 9 12 30 32 27 44 62 84 91 100 100 86 88 73 50 50 34 28 30 36 27 26 26 37 79 77 66 80 96 74 58 46 39 32 24 27 26 16 11 12 18
43 22 4 10 11 10 21 26 39 43 64 80 93 98 88 98 99 79 70 49 44 38 50 51 33 32 37 48 65 61 62 68 73 60 44 46 31 29 20 21 15 12 23 17 18
55 23 4 6 12 10 17 19 25 48 60 69 86 100 63 94 100 91 85 62 51 59 84 72 40 37 36 42 44 43 47 43 42 58 65 27 15 21 18 9 12 12 14 27 24
30 23 5 5 10 11 13 17 19 46 52 71 100 98 42 32 99 97 85 71 57 56 75 94 58 46 40 47 50 36 44 55 76 53 28 15 17 15 10 10 11 11 12 15 34

GFSSW_500_rhum_030.txt.gz
RH
28 28 29 28 26 26 27 28 28 30 32 35 37 45 50 28 32 36 37 35 31 16 10 7 10 13 16 10 15 20 24 99 78 51 58 61 62 64 68 76 61 56 49 53 63
39 34 31 31 33 31 31 32 33 34 36 50 53 51 45 31 34 39 38 37 36 16 9 7 11 14 20 12 16 24 50 77 91 99 100 84 58 62 68 80 82 60 58 51 56
69 64 51 38 35 35 35 36 37 39 41 53 52 58 49 37 37 42 40 40 43 17 8 8 12 18 22 13 20 49 68 77 79 78 82 94 89 78 69 91 70 60 77 82 74
66 65 68 66 50 44 40 39 43 43 48 52 61 58 53 45 49 45 42 45 52 18 8 8 12 21 24 14 34 64 69 72 69 66 58 72 90 97 98 100 90 52 80 74 86
63 64 65 69 69 69 64 49 52 58 48 56 63 63 64 60 54 51 44 48 53 15 8 9 12 23 24 18 50 72 79 99 76 46 96 58 73 77 52 80 89 99 80 56 86
64 62 59 66 72 73 74 73 69 75 58 54 58 60 65 62 57 51 47 55 54 13 8 10 11 29 28 15 60 74 76 81 90 98 85 95 80 35 35 59 91 96 93 88 90
60 65 67 57 67 73 88 81 79 76 87 72 65 66 68 70 62 56 50 59 39 12 9 12 13 29 25 16 36 67 91 71 81 100 97 81 62 41 28 49 65 35 64 35 63
51 54 58 60 58 63 82 92 81 83 78 81 76 86 78 79 70 59 55 52 24 11 10 16 16 23 18 22 22 51 82 97 100 100 98 91 93 76 30 44 63 27 22 26 36
46 47 48 49 49 55 69 76 89 92 88 82 89 93 94 81 75 62 56 52 21 12 11 16 22 21 20 18 26 58 100 97 89 100 100 92 86 79 75 64 77 45 58 25 25
35 47 50 48 55 54 49 64 74 83 91 86 83 86 81 87 80 66 58 50 21 13 12 18 26 28 26 22 96 100 100 100 100 96 95 94 90 74 82 54 65 24 20 23 25
13 18 24 38 53 63 55 58 61 64 82 82 80 83 81 89 82 71 61 52 23 14 14 18 26 35 36 25 24 46 75 100 96 83 78 85 87 74 66 64 62 54 20 19 23
9 9 12 15 23 37 55 58 66 62 67 73 76 83 78 81 86 79 63 52 28 15 15 20 20 41 34 28 24 48 64 87 83 73 73 93 91 72 63 74 55 71 33 23 18
9 9 9 10 11 21 38 52 73 51 60 77 69 77 75 65 88 80 67 54 33 17 17 21 22 38 32 27 34 44 79 63 70 61 71 99 95 79 53 45 43 70 67 55 29
7 9 9 9 12 23 26 33 77 63 55 66 76 66 73 64 75 80 70 67 37 20 19 23 23 36 43 44 35 52 54 73 37 39 99 86 98 64 70 64 70 62 61 52 59
3 6 7 9 10 20 33 45 61 89 60 60 68 65 64 58 73 77 89 83 62 30 20 30 24 38 41 52 57 72 67 80 92 75 92 72 60 84 58 66 84 82 60 70 32
2 2 5 7 9 17 33 54 66 82 66 59 54 61 62 58 71 83 76 78 94 36 20 24 19 26 57 44 50 51 57 61 89 96 83 55 61 98 81 70 70 82 81 83 83
3 3 3 5 8 16 24 49 73 59 52 62 58 69 66 61 74 91 84 80 82 28 21 26 22 25 46 60 55 64 52 98 100 97 96 68 59 74 69 62 71 75 86 78 84
6 4 6 6 8 13 23 39 52 19 48 51 47 65 72 66 66 85 89 93 96 35 24 28 23 22 26 62 66 68 74 77 100 100 100 74 58 76 59 56 51 50 57 68 69
44 10 5 7 10 12 18 44 16 20 32 40 60 66 73 71 65 81 81 88 89 35 24 27 29 21 29 45 51 54 68 92 71 72 79 87 63 64 52 41 38 35 31 48 75
54 44 13 6 10 14 29 30 11 18 21 42 48 80 88 80 72 80 79 91 74 30 28 30 34 24 22 47 64 78 76 77 63 75 70 93 66 75 47 40 36 38 43 52 58
65 71 28 11 7 16 26 25 10 20 22 44 67 79 86 92 86 90 94 94 41 27 33 32 30 25 22 38 98 82 78 83 94 77 64 81 82 54 58 61 36 27 42 43 50
60 61 38 24 7 10 15 13 18 28 29 53 46 80 88 97 100 94 90 60 34 34 37 31 31 18 22 30 83 100 100 100 100 94 64 62 54 59 61 55 47 23 33 41 41
62 73 66 42 14 6 10 11 26 41 47 54 73 84 95 100 100 97 92 53 54 44 44 35 24 17 17 24 47 78 86 88 93 87 71 74 62 58 58 44 58 18 16 20 25
69 98 100 44 28 7 7 11 14 37 52 48 72 75 84 100 97 95 72 70 90 53 47 34 28 20 15 18 52 61 81 86 88 82 70 62 64 60 59 46 30 23 27 20 15
97 100 82 45 29 12 6 10 12 25 50 50 68 72 83 98 100 100 88 97 89 54 45 26 23 21 21 32 41 34 80 92 87 68 72 48 60 56 57 41 39 19 18 12 11
100 90 70 54 44 20 6 8 11 14 37 49 56 65 73 96 100 100 99 89 93 71 39 26 28 28 30 34 44 44 38 57 57 62 43 41 43 61 37 18 20 17 10 12 12
94 99 88 80 55 37 6 6 13 12 25 42 37 85 69 97 100 99 98 98 95 60 38 34 38 45 31 37 41 33 35 39 38 36 39 42 45 26 21 19 17 13 10 12 12

GFSSW_500_rhum_033.txt.gz
RH
38 32 29 30 29 29 30 28 27 27 28 30 32 33 45 53 53 44 27 32 38 37 44 25 9 6 9 13 8 8 54 99 100 96 86 30 30 43 36 49 54 52 54 76 92
47 46 41 35 34 34 33 35 33 31 33 34 35 37 49 53 57 52 39 41 42 41 50 20 7 7 12 12 11 10 95 100 68 99 100 59 51 42 53 60 56 66 46 54 66
48 55 58 59 57 48 42 38 37 37 38 38 40 42 50 61 56 53 46 46 43 43 51 13 7 6 15 13 13 34 100 93 100 78 58 78 83 65 65 94 98 80 63 67 78
50 51 57 60 74 77 69 59 47 43 43 42 44 47 54 62 59 59 54 48 45 46 39 10 7 8 20 30 17 20 48 40 45 29 30 28 45 72 84 71 92 83 61 78 56
50 49 52 55 64 79 80 83 76 66 63 52 64 64 55 57 59 64 57 53 48 48 35 10 8 6 33 18 27 30 56 83 55 38 34 86 72 57 57 90 76 94 72 56 64
54 49 52 52 60 63 69 73 84 88 89 90 86 75 61 64 61 67 66 58 51 50 29 9 8 9 22 16 30 42 32 52 83 94 61 90 95 76 49 52 75 85 95 66 60
60 55 52 55 61 62 66 68 66 80 91 94 91 91 89 70 70 69 69 63 54 52 22 10 8 10 15 19 21 47 51 40 45 62 80 67 66 78 60 65 78 44 95 88 83
56 55 61 56 60 62 64 64 60 65 67 90 96 87 82 76 82 85 79 66 55 54 21 11 9 14 14 15 15 36 58 99 89 66 63 48 97 62 59 41 68 25 28 44 55
61 57 53 56 56 57 58 58 58 55 64 63 86 87 86 84 88 87 88 67 56 55 24 12 10 16 23 16 80 55 100 98 84 67 62 78 96 56 57 61 64 54 33 21 24
27 37 42 45 51 55 57 52 56 53 54 67 69 83 75 77 78 82 88 72 58 57 28 14 11 18 24 91 99 100 90 85 74 99 76 100 100 48 57 57 62 20 20 24 23
12 10 11 15 20 28 36 44 52 52 52 60 58 64 77 72 72 75 88 76 62 58 38 15 12 16 29 92 97 99 97 100 95 96 70 98 80 98 58 56 54 41 47 16 19
8 9 10 11 10 10 13 19 25 37 42 52 54 56 70 68 67 66 77 82 74 60 50 24 13 14 23 48 28 38 96 90 99 72 56 91 99 95 67 57 63 53 28 20 17
7 8 7 7 9 10 9 11 16 18 19 36 51 54 67 59 72 69 76 88 75 65 51 24 18 13 22 25 19 76 97 98 92 96 55 54 92 92 86 44 48 47 57 28 25
4 5 4 5 7 8 9 9 10 10 19 22 37 40 59 58 46 74 72 88 76 62 41 38 18 14 22 39 36 100 64 98 72 58 100 86 98 96 100 54 26 40 55 48 34
2 2 2 2 3 5 7 10 10 14 24 24 23 30 46 54 67 74 77 78 76 64 45 58 22 17 21 43 57 99 96 83 100 100 100 87 89 82 90 89 52 38 56 34 44
2 2 2 2 2 3 4 9 11 21 13 19 18 24 36 56 61 68 66 68 80 63 61 78 27 17 21 45 46 79 51 65 99 98 99 97 86 92 100 97 100 98 58 64 68
4 2 2 2 2 3 4 8 24 12 14 16 17 22 36 47 60 62 62 58 63 66 68 95 27 21 20 64 43 43 67 100 100 98 82 100 68 99 94 100 72 79 93 86 72
32 29 9 3 3 4 5 13 25 4 6 10 15 22 32 50 60 60 65 61 76 79 73 73 33 21 18 19 83 55 82 93 98 96 99 88 47 61 98 88 70 63 65 67 78
29 28 30 26 5 5 7 18 7 3 7 17 18 25 30 56 71 71 61 59 76 76 87 92 60 66 28 24 27 89 97 62 91 75 76 100 86 72 66 59 56 54 50 50 37
26 23 26 35 40 16 7 7 7 3 20 18 18 35 69 61 63 74 70 60 73 76 97 99 100 97 51 42 19 31 94 91 93 98 80 95 95 99 71 68 41 34 35 36 40
41 30 24 31 51 40 17 5 6 6 17 28 19 51 79 94 79 82 78 71 73 84 97 94 56 100 69 28 34 18 26 51 99 100 97 98 98 89 97 56 54 55 43 33 40
59 36 31 45 50 45 37 19 5 6 29 27 29 51 65 100 98 89 92 99 90 97 93 92 67 50 79 40 22 99 90 99 100 100 96 85 88 97 82 68 54 50 45 49 19
96 64 49 62 49 31 33 32 18 5 10 29 22 100 98 100 100 98 100 100 92 98 91 88 43 45 97 95 23 23 86 98 100 100 82 97 65 100 84 68 62 58 42 42 28
100 100 79 68 56 48 36 34 24 7 6 21 38 66 100 100 96 100 100 99 99 98 98 56 43 38 35 39 91 29 23 98 98 100 67 86 98 99 100 88 86 70 51 32 22
100 98 86 78 61 34 26 24 31 14 6 9 36 52 85 100 100 100 100 98 98 100 68 51 58 48 41 61 100 98 71 78 100 100 99 78 100 98 96 100 69 60 54 37 22
100 99 96 81 80 72 46 34 38 20 7 7 16 39 89 97 100 100 95 100 97 98 77 63 65 61 45 43 94 94 100 97 100 97 94 100 95 100 100 95 46 47 30 21 20
100 100 100 100 90 79 56 31 49 32 10 7 13 31 64 100 100 94 100 96 97 86 96 82 84 81 42 30 57 65 35 88 91 89 94 69 49 85 88 98 40 25 15 16 18

GFSSW_500_rhum_036.txt.gz
RH
45 46 47 43 36 29 26 26 28 28 27 26 27 29 32 34 35 48 58 54 47 38 39 40 49 19 8 4 6 10 48 95 96 99 53 85 54 18 55 62 77 68 85 68 64
47 43 47 52 48 45 37 33 33 34 33 32 31 33 34 37 38 54 59 54 47 41 42 41 48 18 6 4 7 20 62 96 99 65 40 50 32 64 80 58 71 93 78 59 34
52 50 48 53 54 50 56 54 51 44 39 36 36 37 37 39 43 51 58 57 53 47 45 44 49 12 5 5 8 21 78 98 96 20 18 32 48 54 59 69 76 93 86 77 36
52 46 51 54 53 57 56 64 67 71 62 47 43 45 42 45 52 52 53 60 55 51 47 48 38 10 5 12 25 14 54 65 30 18 14 26 67 68 54 58 78 74 91 71 50
63 55 51 58 56 55 56 58 58 66 77 74 65 62 58 55 74 55 55 60 60 54 49 52 28 12 5 33 20 21 21 39 49 70 66 39 75 79 70 45 70 77 72 57 46
71 68 54 62 62 59 62 57 56 54 64 68 75 74 75 75 69 68 65 67 64 60 50 52 27 13 5 6 7 48 16 29 72 95 68 58 86 61 64 65 76 43 97 74 50
72 74 73 65 68 62 62 64 59 60 62 60 58 68 69 89 82 67 68 81 80 61 52 53 24 13 6 5 7 10 15 34 83 56 42 35 72 74 49 52 58 35 38 71 55
85 79 78 78 70 66 63 62 66 68 68 65 54 51 58 75 78 70 74 81 87 66 51 52 29 14 6 5 6 10 25 61 89 98 89 82 71 82 50 52 55 50 31 39 47
84 82 81 75 72 65 65 66 62 66 62 61 56 46 59 60 74 74 76 72 74 66 54 52 43 16 8 6 8 26 48 88 86 88 65 56 88 92 73 59 52 48 42 18 24
39 42 53 66 66 62 61 62 63 63 56 60 54 54 45 51 66 77 77 74 73 64 57 52 45 22 8 7 21 100 77 100 97 95 99 73 84 95 82 68 50 37 18 11 15
15 14 14 15 16 27 28 30 40 47 46 53 48 61 51 43 50 60 78 72 73 69 63 53 47 32 10 9 18 95 90 95 99 92 88 64 94 70 92 70 62 44 59 16 11
11 10 14 14 15 13 11 9 10 18 28 30 37 48 50 48 43 59 70 78 77 76 74 57 51 41 13 11 17 49 82 96 93 64 65 58 100 90 96 66 61 41 38 27 12
6 6 7 8 8 8 10 9 11 12 14 14 23 26 49 41 52 54 64 82 73 79 76 67 43 40 14 11 20 14 16 81 100 100 76 52 54 91 100 54 54 29 24 35 32
3 3 3 4 3 5 7 7 8 9 13 15 16 19 25 28 33 65 58 81 72 76 82 72 43 45 34 12 23 23 41 82 96 83 65 70 74 95 100 81 52 36 28 24 28
2 2 2 2 2 2 2 3 5 7 10 14 14 16 20 20 36 60 72 76 72 88 89 62 48 54 24 16 22 60 80 79 91 100 86 83 88 100 89 80 66 46 44 41 43
2 2 2 2 2 2 2 2 3 5 8 9 11 13 16 18 24 45 58 66 80 91 92 80 58 56 40 17 25 81 53 91 96 58 66 58 100 99 65 74 100 96 91 70 67
2 2 2 2 2 2 2 2 16 4 5 10 11 10 11 15 24 34 37 51 58 66 63 70 69 68 68 20 36 71 86 79 89 97 53 91 99 77 65 93 89 98 88 92 59
22 9 7 3 3 4 2 3 7 2 2 7 12 10 9 15 18 23 33 47 61 69 84 73 63 70 66 20 81 57 42 66 96 94 96 90 77 96 62 55 97 66 51 44 44
43 40 30 28 28 17 7 4 2 1 2 6 10 40 52 12 17 32 32 28 59 74 73 75 72 84 64 35 28 98 44 68 86 98 92 97 92 99 82 59 68 50 48 49 55
35 41 34 35 48 40 26 12 2 2 2 6 21 44 54 17 12 17 44 39 56 72 82 84 92 92 97 78 41 24 94 95 76 98 85 70 95 99 84 99 70 42 43 41 39
24 24 26 22 30 35 30 22 18 8 3 9 30 20 48 36 62 40 40 61 68 70 80 86 84 91 98 97 71 48 41 70 100 96 77 98 86 85 75 100 91 57 37 35 35
32 29 29 34 31 26 20 13 18 22 14 4 15 53 23 35 100 100 81 78 88 79 73 84 72 85 86 100 84 75 66 41 79 94 97 90 61 74 71 99 92 55 53 42 37
70 58 52 46 42 31 27 23 21 16 19 12 5 25 57 23 90 96 99 94 100 100 77 80 76 88 93 98 99 72 37 100 85 88 78 100 58 86 100 85 80 70 60 52 41
94 98 84 81 59 58 50 36 29 22 17 28 10 8 22 30 100 99 96 100 100 86 95 100 92 71 76 80 98 80 68 98 99 88 79 71 47 78 81 78 73 80 83 64 39
100 95 70 55 36 26 53 43 42 36 31 31 24 8 10 20 65 91 100 94 97 78 100 98 71 79 100 95 93 95 85 68 78 99 99 74 98 66 91 70 90 98 78 95 48
100 96 76 68 72 74 81 68 51 45 41 23 36 26 7 17 99 100 100 98 95 96 92 97 89 86 96 100 83 71 97 100 84 48 94 100 97 89 95 100 87 82 89 55 47
100 100 99 90 84 86 68 46 49 59 47 23 29 41 14 8 42 96 100 100 97 96 100 97 81 98 89 92 72 72 65 100 100 100 100 84 89 91 100 89 95 83 46 37 39

GFSSW_500_rhum_039.txt.gz
RH
56 59 60 57 51 46 42 37 34 27 26 24 25 26 26 27 31 34 37 42 56 54 40 36 39 44 25 10 4 5 12 41 85 96 96 84 45 36 45 62 69 68 66 72 90
69 66 68 69 65 63 55 47 42 40 34 33 34 34 31 31 34 36 40 43 56 56 42 38 40 46 27 8 4 5 13 27 89 60 58 53 28 55 57 55 52 64 63 72 97
65 65 69 69 70 66 59 52 51 50 51 49 53 49 39 35 37 41 44 50 56 57 43 37 41 45 35 6 4 6 11 21 98 29 16 21 29 68 86 71 58 61 64 79 90
71 65 65 66 65 70 64 50 47 53 57 57 58 57 57 46 49 49 54 59 54 56 49 41 39 46 27 6 3 7 11 16 42 27 35 20 44 64 98 72 66 65 67 72 77
75 77 75 71 70 70 69 60 49 48 53 53 50 47 47 58 64 64 64 61 62 62 54 42 42 46 24 7 3 6 14 13 18 62 57 42 44 71 77 65 66 50 69 62 57
82 84 83 84 82 82 76 68 55 50 52 54 51 47 44 45 66 76 69 74 66 71 70 46 44 47 29 7 4 4 13 12 48 63 38 33 54 66 69 46 62 34 44 59 56
87 93 91 82 80 83 86 82 69 60 54 53 52 50 50 63 49 71 88 73 65 70 72 54 44 47 37 8 4 4 11 12 37 57 84 78 87 69 75 71 59 52 43 42 48
97 97 96 88 87 78 86 88 78 71 65 50 48 54 57 53 36 57 73 73 65 66 71 55 46 47 38 10 5 4 10 19 43 92 79 65 95 71 83 90 75 32 38 23 31
95 96 96 96 94 86 85 86 82 68 63 59 48 46 62 57 44 33 53 74 68 69 64 57 48 46 41 16 7 5 13 27 56 95 81 61 60 94 84 81 60 26 14 14 18
94 86 80 91 94 97 78 76 77 70 58 56 50 52 54 57 50 44 44 56 66 69 56 64 50 46 44 21 10 9 16 53 53 89 98 80 51 78 78 83 52 41 48 10 12
93 76 56 19 20 20 53 88 70 60 62 58 52 55 58 56 51 47 41 36 46 69 67 70 53 48 46 25 8 6 12 56 83 95 89 79 63 53 53 60 56 31 26 23 20
34 45 58 17 15 12 13 11 18 47 56 47 46 43 45 45 49 51 47 48 44 66 76 64 61 48 48 26 9 6 7 52 95 85 84 93 79 56 40 64 64 32 26 26 34
3 4 6 13 9 9 12 10 16 17 22 20 24 26 25 32 46 49 51 63 55 47 66 63 72 59 47 37 14 7 8 29 80 85 98 88 72 71 75 78 86 58 32 24 30
2 2 2 3 3 4 4 6 8 19 20 23 13 21 17 16 23 50 50 60 55 51 80 50 80 67 60 54 18 9 11 10 73 100 75 94 99 65 71 98 87 57 51 37 22
2 2 2 2 2 2 2 2 3 3 12 19 20 19 14 16 21 41 52 60 59 71 72 56 77 70 59 66 22 17 24 21 20 56 53 58 90 95 70 63 73 71 82 66 53
2 2 2 2 2 2 2 2 2 2 7 8 13 14 16 16 14 18 33 36 56 72 64 53 82 77 62 55 26 18 23 58 57 71 62 62 90 96 74 79 71 58 93 87 58
2 2 2 2 3 2 2 2 2 2 4 5 6 8 8 10 12 16 18 21 28 42 42 59 67 76 72 61 48 19 24 55 42 61 29 39 72 63 95 100 99 92 81 72 66
5 6 3 2 4 3 3 2 2 1 2 2 3 4 5 6 9 11 14 17 19 26 48 70 70 82 71 67 72 27 21 25 33 46 46 66 78 90 95 95 89 62 83 53 33
21 21 15 23 18 16 7 3 1 1 1 2 26 9 3 6 11 12 11 12 16 19 39 65 59 87 83 64 80 42 44 46 64 56 68 54 75 86 88 77 92 60 66 50 43
48 43 49 60 49 40 30 6 2 2 2 2 35 25 38 56 89 32 14 14 16 19 51 58 76 91 91 81 79 61 41 72 62 91 57 43 81 91 96 78 93 91 62 52 35
90 57 53 74 58 49 25 12 18 9 8 3 3 17 52 29 72 96 32 22 30 26 49 67 80 84 95 89 90 63 39 52 49 97 67 38 53 71 80 97 99 94 76 51 40
100 64 54 79 54 37 23 19 16 17 23 19 7 4 24 74 91 85 48 14 55 100 64 77 87 90 85 95 100 67 78 54 33 35 81 92 72 50 95 100 100 99 62 65 46
100 91 81 75 40 19 20 18 18 17 15 16 26 16 9 32 85 84 83 88 68 88 39 96 75 92 95 89 93 94 88 64 70 66 50 96 38 81 80 99 93 99 99 87 60
100 99 76 47 35 28 26 25 25 27 22 18 19 29 19 16 70 51 69 70 100 98 81 100 87 75 46 65 88 88 76 66 83 61 41 45 30 57 65 88 83 84 72 73 60
100 80 60 44 28 33 38 33 32 28 28 30 27 25 20 20 17 15 17 66 100 99 89 100 93 72 68 84 92 96 98 88 72 54 50 55 85 75 76 83 98 96 100 88 89
100 82 62 59 58 52 49 43 32 40 46 40 31 28 33 25 24 12 9 19 86 100 94 100 83 85 74 93 91 97 90 98 79 78 64 45 49 89 69 84 99 92 64 88 68
100 97 94 69 70 67 38 26 34 57 58 60 52 41 36 25 26 18 8 26 85 98 100 100 87 98 68 91 100 98 60 78 83 86 97 57 34 48 90 90 92 76 85 77 72

GFSSW_500_rhum_042.txt.gz
RH
71 56 43 34 30 28 30 32 34 31 32 31 28 25 24 25 28 27 29 35 38 39 52 49 40 41 42 27 8 4 8 15 18 36 38 26 22 23 38 57 59 48 47 74 82
86 77 74 57 54 58 59 55 50 46 42 39 37 33 33 39 41 35 33 36 40 40 53 52 41 43 43 22 6 6 8 13 14 18 14 16 13 35 50 71 76 52 57 58 68
95 90 75 78 72 66 60 60 55 52 53 45 46 47 46 50 50 46 39 41 45 54 55 53 44 44 45 18 6 5 8 12 14 14 20 12 33 53 65 65 56 59 64 75 72
95 99 90 90 73 68 66 59 56 52 43 42 39 47 51 54 45 48 47 54 53 61 56 56 44 47 45 19 6 5 6 11 10 14 32 34 39 66 74 44 54 52 65 48 65
98 70 96 91 87 67 67 65 62 57 51 41 37 41 50 48 62 34 51 68 66 67 63 58 58 46 46 24 8 4 4 12 12 24 37 36 33 83 78 70 53 46 50 58 45
90 97 94 96 94 83 80 67 63 69 63 48 36 35 43 51 58 39 44 67 70 74 68 68 63 44 44 22 9 4 6 12 12 26 39 54 50 83 79 60 65 49 42 44 44
90 88 97 92 97 92 92 83 75 74 72 58 45 38 41 67 60 42 57 53 65 77 65 67 64 46 42 30 14 5 5 11 18 38 55 41 45 71 89 68 56 28 30 27 40
97 96 97 97 95 89 92 96 82 66 73 64 53 41 51 54 56 47 32 40 67 80 69 61 64 49 44 37 15 6 6 12 25 35 45 49 80 75 92 77 52 44 17 14 19
96 98 98 92 94 99 99 97 91 71 64 58 60 53 58 55 57 51 36 55 46 63 65 61 66 52 45 42 21 8 7 16 42 36 58 82 81 72 76 68 62 46 31 12 14
97 96 96 97 99 99 98 96 87 82 64 61 54 60 64 56 59 57 43 40 37 52 52 58 67 56 46 45 24 14 9 13 16 33 72 94 71 74 48 51 63 41 36 20 11
76 95 96 97 94 94 86 97 92 73 60 63 56 62 63 57 58 62 51 42 35 31 48 64 63 61 50 46 37 15 9 11 16 31 69 91 66 48 50 50 53 30 28 31 13
4 6 51 74 94 96 94 26 51 61 68 68 64 66 61 54 52 60 55 50 40 41 60 51 56 65 60 52 45 24 8 10 17 64 86 74 52 69 43 52 82 67 27 29 28
10 3 3 10 41 14 85 85 75 36 30 33 46 57 43 47 43 48 50 57 47 43 42 49 86 62 58 60 52 36 9 10 20 60 64 62 68 74 39 61 76 74 48 23 29
3 3 3 2 2 10 11 8 62 51 38 34 15 21 24 37 38 34 36 48 46 45 55 40 91 63 63 68 57 51 19 10 9 29 39 47 44 46 55 63 80 88 60 31 20
2 2 2 2 2 2 3 7 8 17 26 25 24 21 20 21 21 26 34 36 46 64 52 48 89 92 79 79 59 48 21 15 13 10 14 24 37 30 55 53 69 85 65 74 48
2 2 2 2 2 2 2 2 2 3 19 16 17 17 18 19 17 14 18 24 34 43 39 44 75 70 68 80 64 57 28 20 17 15 10 21 30 27 51 72 51 75 67 80 73
2 2 2 2 2 2 2 2 2 3 12 8 7 7 7 8 14 15 15 15 18 27 28 44 52 72 79 74 61 55 34 30 24 15 12 28 32 15 59 59 60 47 78 67 69
2 2 2 3 2 2 2 2 2 2 2 2 3 3 4 5 6 8 11 15 15 17 21 30 37 70 75 78 87 59 52 36 16 15 25 22 10 14 35 64 71 70 49 67 60
3 3 3 21 4 3 3 2 2 1 2 3 2 2 2 4 6 6 7 9 12 16 18 22 24 59 87 98 94 72 69 64 39 31 23 17 17 29 52 55 75 63 81 61 58
8 7 21 52 18 15 7 1 1 2 3 3 4 2 2 3 7 7 5 6 9 11 18 23 22 50 84 97 83 77 75 78 49 43 28 13 14 28 52 68 92 59 50 59 50
62 57 57 89 68 42 5 3 4 6 6 5 4 3 5 20 10 6 15 11 7 13 14 18 25 46 82 72 87 78 70 70 59 58 44 24 15 40 61 73 93 73 65 84 52
100 91 77 100 89 43 11 16 22 23 20 26 9 5 7 58 98 47 46 38 17 14 20 19 23 19 45 70 86 88 76 78 59 50 44 32 20 62 42 54 53 80 70 74 96
100 89 70 90 62 28 29 39 34 31 37 35 26 22 9 97 99 100 91 86 71 41 38 38 40 21 35 58 68 70 79 77 81 59 37 37 25 31 72 60 50 68 89 90 80
100 96 71 57 50 42 40 34 34 24 22 19 22 23 26 19 63 72 91 96 100 98 92 88 61 42 15 52 90 87 90 82 81 62 57 47 32 26 85 55 67 65 50 80 54
99 78 55 38 38 45 34 23 26 21 18 20 18 23 22 19 22 16 41 100 95 98 67 89 65 70 35 38 76 99 98 97 80 70 72 60 46 38 44 67 59 68 66 77 81
97 74 52 46 38 59 53 34 27 29 26 26 23 28 30 23 25 22 21 17 48 67 100 99 95 99 44 55 78 80 100 90 91 86 78 78 66 55 63 81 94 93 64 66 92
94 89 78 61 52 44 23 24 52 65 46 44 36 33 32 33 35 32 26 22 20 15 53 94 97 88 63 92 100 100 34 76 87 100 86 87 76 57 47 49 74 94 98 65 60

GFSSW_500_rhum_045.txt.gz
RH
48 69 85 68 47 31 25 23 20 19 20 18 23 24 26 25 24 26 30 30 30 31 38 39 50 48 40 39 28 11 5 5 10 11 13 10 10 21 46 72 71 63 60 60 60
71 63 86 95 84 66 43 32 26 22 26 31 31 33 34 32 30 32 38 41 38 36 40 44 53 51 39 39 27 11 5 6 10 10 14 10 22 44 72 59 49 60 47 61 77
94 82 87 99 92 89 85 55 41 36 44 45 43 38 40 44 40 42 47 47 43 43 47 52 57 55 42 41 28 13 5 5 10 9 11 9 34 50 73 67 51 56 46 52 70
98 90 99 99 82 96 96 82 64 58 55 50 44 39 40 47 49 51 50 50 48 52 59 59 60 60 47 39 30 10 5 5 10 10 15 16 28 36 62 56 56 50 40 49 49
89 96 88 98 87 90 96 92 83 68 54 53 48 40 33 36 60 57 55 58 52 64 64 68 68 63 49 40 34 13 5 4 13 11 19 26 34 51 57 60 56 27 36 42 45
91 98 98 96 98 90 98 93 82 81 64 56 52 47 39 38 43 61 46 61 54 70 65 72 66 72 58 42 37 22 6 5 12 14 32 46 45 43 50 59 38 32 20 32 38
84 93 96 96 97 97 98 92 96 88 76 62 53 48 48 51 42 60 54 60 54 72 70 76 67 73 68 42 35 20 7 5 10 16 40 50 48 44 39 57 49 41 12 17 29
95 95 90 98 98 97 96 96 95 84 76 62 53 49 52 50 45 54 63 54 38 50 68 74 65 64 73 46 40 18 10 7 8 16 38 62 57 39 46 52 39 34 17 10 20
97 95 86 88 99 97 97 89 96 83 75 73 70 58 62 55 50 51 57 58 43 50 67 56 68 69 66 52 40 20 15 8 9 19 48 81 76 57 52 48 34 33 29 14 18
94 98 100 99 98 97 97 94 95 91 78 67 66 77 70 62 57 50 56 66 52 49 46 29 64 70 57 54 38 33 25 12 11 23 35 41 73 69 61 41 42 42 27 24 15
81 72 86 95 100 97 96 94 79 73 69 75 76 83 78 64 61 55 53 59 56 39 37 38 54 60 83 64 49 46 37 13 10 23 27 39 63 80 56 42 42 35 25 29 16
10 79 50 13 30 95 97 84 84 70 76 77 91 86 80 67 64 61 61 57 53 46 45 51 36 85 90 67 54 52 47 23 14 22 24 50 76 68 45 51 50 37 33 24 27
10 11 51 34 8 13 61 78 83 81 67 85 92 83 76 60 65 64 64 66 58 50 42 41 58 90 82 66 61 57 52 34 14 15 16 28 66 70 42 48 63 55 48 32 25
3 2 5 6 17 12 5 30 56 55 70 63 29 45 78 72 54 52 56 59 55 54 54 42 72 77 64 65 67 61 52 43 32 14 13 31 32 56 81 44 58 67 60 47 27
3 2 2 2 2 6 51 14 7 22 47 33 69 35 32 43 36 41 41 42 46 61 54 48 70 68 84 82 85 70 52 50 45 33 16 18 24 23 32 32 53 71 78 70 56
2 2 2 2 2 2 2 9 9 7 19 33 27 35 35 24 18 16 31 35 38 42 48 61 81 73 80 87 87 80 62 53 51 39 30 25 14 11 21 35 41 64 66 75 70
2 2 2 2 2 2 2 2 3 17 14 10 13 21 20 19 21 16 18 29 28 28 28 38 49 60 76 78 82 74 73 54 50 48 37 28 19 12 21 35 32 46 61 65 70
2 2 2 2 2 2 2 2 2 2 2 2 4 6 10 11 10 13 17 17 16 18 22 30 46 62 68 72 82 81 79 64 56 57 52 28 18 13 14 16 19 38 51 68 56
2 2 2 3 2 2 2 2 2 2 2 2 2 2 4 6 6 6 7 13 15 15 15 19 20 43 55 69 82 86 86 84 70 59 53 37 19 18 14 16 24 48 54 49 59
4 3 2 5 2 3 2 2 2 2 2 2 4 4 3 3 3 4 6 6 8 13 16 18 18 24 40 48 62 85 99 92 77 62 54 40 31 29 17 24 38 39 54 45 43
33 24 6 13 8 4 2 2 2 5 6 7 6 5 5 6 4 3 5 6 7 8 9 11 14 19 27 33 61 82 88 83 78 68 60 45 30 31 21 21 30 42 53 50 45
80 93 20 39 29 10 2 3 15 12 18 16 13 6 8 7 6 8 6 6 7 6 7 8 9 11 24 43 64 90 83 95 90 74 65 58 32 37 30 31 46 59 56 52 55
100 98 54 71 35 18 28 41 28 22 37 37 31 14 7 13 20 22 55 40 23 16 13 10 6 7 16 46 55 48 69 86 89 83 54 64 34 44 41 30 32 31 50 51 57
100 90 93 71 45 66 82 79 52 47 65 53 42 35 18 9 27 77 100 99 68 53 46 25 16 9 7 26 53 46 70 100 100 74 67 45 53 49 37 35 27 39 46 37 56
98 60 64 47 46 59 71 76 66 55 62 59 46 35 26 20 10 23 99 100 99 100 98 74 51 30 20 22 53 54 50 66 45 56 67 61 65 66 52 46 33 32 64 44 52
94 78 73 69 59 65 68 68 77 75 60 58 39 50 35 23 27 15 69 100 98 93 90 100 100 89 35 43 52 61 59 51 70 75 61 80 73 86 72 67 52 53 27 35 26
86 91 97 87 79 57 52 64 64 69 59 54 50 50 43 38 37 28 22 36 59 74 83 66 78 99 98 94 99 51 70 100 100 88 74 72 93 100 79 83 80 67 39 35 48

GFSSW_500_rhum_048.txt.gz
RH
33 48 82 92 88 68 52 57 49 30 26 24 21 18 17 16 18 21 23 24 26 30 31 32 37 42 46 46 33 37 20 7 4 10 10 11 11 16 61 51 59 53 56 40 66
34 45 64 66 76 86 76 75 75 59 36 29 26 21 19 19 24 27 28 28 31 38 38 38 40 44 54 46 36 37 19 9 4 10 11 11 11 22 64 61 51 50 49 35 55
44 47 48 60 54 92 90 79 95 82 64 37 32 27 25 30 32 35 35 34 38 45 45 42 52 49 56 49 35 38 20 10 4 11 10 12 12 20 52 63 49 36 44 37 50
36 52 63 84 94 75 94 87 87 97 95 74 41 44 38 40 43 43 42 42 47 51 50 51 60 58 58 53 38 42 24 12 5 10 11 11 14 19 38 64 60 30 33 35 47
36 37 47 64 78 80 97 94 98 81 84 88 66 66 60 54 53 43 50 48 52 51 55 63 68 63 64 57 47 41 28 12 5 10 13 15 15 28 45 54 49 32 21 25 39
43 45 51 52 71 82 98 96 95 93 86 89 78 74 62 61 46 41 45 54 67 59 53 67 74 63 59 67 50 37 31 15 7 7 13 18 13 32 42 54 56 38 17 19 33
36 60 61 65 72 83 95 94 96 97 77 87 89 79 71 77 49 44 43 48 72 60 52 63 77 73 65 71 56 39 35 21 11 7 12 14 23 36 45 57 57 39 18 13 25
41 60 84 100 92 90 92 93 91 96 96 99 97 69 79 84 56 48 43 47 54 64 57 51 70 77 78 68 67 45 40 27 17 10 9 12 19 33 35 36 39 37 30 13 30
12 56 41 97 98 91 90 90 86 85 97 95 97 80 88 93 69 54 50 48 46 58 61 51 50 82 85 72 66 51 44 36 28 13 9 12 22 40 40 32 43 41 30 23 23
16 17 56 72 97 92 86 90 82 87 96 91 89 95 92 96 94 72 62 59 53 54 55 45 42 74 84 76 80 64 44 40 33 17 12 12 31 50 45 38 39 36 41 26 15
4 3 11 44 63 95 90 78 75 74 83 86 89 96 98 96 96 94 74 66 59 52 48 46 36 42 91 98 83 58 46 44 39 21 20 18 17 24 48 50 44 34 32 23 26
4 4 3 10 52 69 74 70 80 77 93 92 100 89 97 96 90 96 86 72 65 57 56 50 34 60 94 95 82 64 52 50 45 29 28 28 21 23 26 45 49 50 35 29 23
4 4 3 3 4 46 70 57 49 99 87 100 96 99 99 85 94 98 92 79 78 65 57 60 53 63 82 93 83 73 56 52 43 37 36 33 23 30 28 39 49 58 49 42 25
5 4 4 3 3 3 20 45 66 10 56 61 95 80 92 86 70 98 95 83 74 69 74 60 66 54 55 76 69 66 68 56 50 49 43 42 28 30 26 26 48 54 63 42 31
5 4 4 3 2 2 3 20 20 60 24 32 63 76 79 100 75 91 88 87 75 85 72 59 71 59 59 81 84 82 88 69 58 52 48 42 34 28 27 23 34 46 72 60 54
5 4 4 3 2 2 2 2 11 12 43 28 30 46 82 58 65 91 93 76 61 79 79 81 85 73 65 84 77 87 88 70 72 62 45 46 47 35 24 22 20 36 61 63 56
3 3 2 2 2 2 2 2 3 5 7 19 24 27 38 72 37 24 64 62 67 74 53 58 70 73 69 72 88 81 82 80 76 65 47 50 51 40 32 20 24 35 47 58 54
2 2 2 2 2 2 2 2 2 2 2 4 13 14 20 31 62 49 16 23 26 26 38 49 64 63 73 79 85 85 88 90 86 82 78 60 49 50 46 25 15 20 45 56 46
2 2 2 2 2 1 2 2 2 2 2 2 3 5 8 10 28 26 66 49 16 14 22 31 40 60 70 90 92 89 83 90 87 83 75 62 57 54 50 23 22 16 28 50 59
2 2 2 3 3 2 2 1 2 2 2 3 3 4 4 4 6 8 10 22 47 58 39 37 32 42 64 78 89 89 98 91 82 67 61 55 52 46 53 46 32 19 29 53 64
4 3 3 5 5 3 2 1 2 3 6 6 4 7 7 6 4 7 10 10 12 15 17 17 21 23 32 43 67 79 84 90 80 63 53 38 41 46 54 52 41 23 39 41 50
6 5 6 10 13 5 2 2 4 5 7 13 9 9 12 8 11 7 10 8 8 9 12 14 15 15 22 32 47 56 52 58 67 60 52 40 32 50 51 68 64 68 37 44 53
7 6 6 16 23 25 12 10 14 14 30 38 26 19 13 15 20 16 12 8 6 7 7 8 10 11 15 26 29 27 33 33 39 43 38 38 34 44 62 68 75 71 65 58 47
10 9 8 31 50 88 47 24 19 45 74 52 45 34 25 16 29 68 41 23 19 10 11 8 9 10 12 19 24 29 27 31 40 38 30 21 32 60 62 65 77 72 62 40 63
9 8 16 56 78 82 66 66 93 100 98 84 72 59 52 27 18 78 100 77 43 45 16 12 11 14 12 13 16 21 40 58 54 50 39 29 31 42 51 56 74 83 64 52 39
8 14 43 71 90 96 100 100 100 100 100 100 71 96 90 48 30 19 42 66 100 86 56 36 46 44 28 24 20 15 24 50 69 73 42 24 17 48 55 55 65 70 74 59 53
10 36 53 71 87 99 86 100 100 100 100 100 100 100 96 88 42 30 17 16 27 67 85 98 90 57 59 66 77 27 22 41 57 77 56 34 25 39 50 56 70 71 71 82 80

GFSSW_500_rhum_051.txt.gz
RH
8 9 10 11 12 18 24 35 53 78 73 51 48 36 27 26 21 19 20 20 20 22 23 24 33 36 36 44 46 36 34 38 15 5 9 6 6 8 15 46 40 25 33 42 41
9 10 11 15 20 29 35 44 54 64 80 68 61 53 34 34 30 23 22 24 25 26 26 31 41 40 43 46 50 38 36 38 15 4 10 7 6 10 17 44 43 32 31 37 37
13 13 13 15 22 26 33 50 66 76 70 78 74 82 52 39 36 28 26 29 31 32 31 36 46 43 50 53 54 40 38 40 19 5 11 9 8 10 16 36 46 43 30 31 34
15 15 17 20 20 23 30 40 62 77 73 90 81 99 85 52 46 33 35 37 36 37 37 43 48 46 56 58 56 40 39 41 27 6 10 10 11 13 14 29 49 36 27 26 34
20 21 30 33 31 29 29 36 46 76 91 94 84 98 94 84 84 49 63 56 45 45 46 49 48 48 63 63 53 40 38 40 32 11 7 9 11 18 21 21 40 43 26 17 24
26 25 35 26 29 38 45 46 49 59 69 88 92 95 96 97 95 79 80 74 56 50 52 53 50 44 56 69 62 60 45 40 36 18 7 8 12 18 16 23 34 42 28 16 19
17 13 35 16 19 42 59 66 61 65 64 86 94 98 89 100 90 97 84 70 61 52 52 60 53 42 45 73 70 61 47 43 38 27 13 8 13 16 21 26 32 40 31 23 20
7 4 4 32 14 43 53 83 79 73 70 85 96 96 89 97 92 97 82 77 64 55 49 51 53 44 40 70 78 62 45 42 38 33 23 11 16 15 18 31 30 29 30 31 17
4 4 4 12 6 23 63 74 93 91 77 89 88 88 98 97 97 96 94 88 66 58 47 43 52 48 41 65 83 74 65 45 40 37 33 14 20 20 32 40 40 36 39 33 26
6 7 5 4 4 5 25 80 74 85 91 82 84 90 100 96 96 96 97 94 78 75 60 50 44 51 39 49 83 90 77 44 43 40 38 23 16 21 29 52 49 27 35 34 30
8 8 8 5 4 3 9 19 67 66 87 93 90 95 95 96 96 97 96 95 94 74 65 54 40 46 53 79 92 73 65 51 48 45 43 37 24 27 28 55 61 34 31 36 26
13 11 8 6 4 4 3 4 21 69 49 79 95 99 96 92 84 94 97 93 93 93 81 58 40 65 67 75 81 71 66 62 59 50 46 39 34 33 20 53 47 41 31 42 37
25 18 10 7 5 4 3 4 5 27 63 82 90 94 95 76 95 95 96 93 98 94 88 70 66 64 80 78 77 68 64 72 68 53 46 42 41 38 33 35 41 35 35 48 48
37 31 17 9 6 4 4 3 2 6 35 42 71 88 94 91 90 98 93 96 91 97 98 84 74 67 78 76 79 49 70 83 70 70 54 39 25 40 41 34 43 40 38 55 49
37 28 18 12 8 6 4 3 3 2 7 26 36 56 62 89 93 96 96 83 79 100 93 85 89 66 71 86 87 81 88 91 66 66 53 49 40 35 44 40 36 47 41 53 64
31 22 16 12 8 6 4 4 3 2 3 9 23 27 33 61 98 97 98 95 93 97 93 97 97 81 90 96 93 90 77 74 64 63 37 46 56 34 44 43 32 24 34 61 53
26 19 15 8 6 6 4 4 3 3 4 4 10 17 24 34 62 97 97 96 92 97 91 100 98 98 90 87 89 87 81 74 74 60 35 55 66 50 49 51 33 25 26 49 49
15 12 10 5 3 4 3 3 4 4 3 2 3 6 21 18 24 85 66 88 97 97 98 94 97 97 100 93 89 97 99 94 92 73 61 64 49 49 52 55 44 23 30 43 38
7 6 4 3 2 2 3 3 3 3 2 2 4 4 4 14 18 29 96 23 54 96 92 96 89 93 95 97 96 95 93 100 93 86 78 60 48 53 53 54 54 28 20 36 42
4 3 2 3 2 2 2 3 3 2 2 2 2 5 6 4 14 12 47 88 41 17 29 29 46 86 91 97 94 92 100 96 86 79 72 60 59 65 58 68 70 47 23 25 50
4 4 5 5 4 2 2 2 2 2 2 2 3 4 8 8 7 6 14 29 68 82 24 12 14 20 45 66 90 94 93 88 84 80 72 68 58 55 64 64 66 56 23 30 55
6 5 7 7 5 4 3 2 2 3 3 2 4 16 11 12 10 8 6 12 14 35 81 54 26 17 26 47 66 79 83 81 74 71 62 51 41 61 56 62 67 66 44 26 45
7 8 11 9 6 5 4 4 4 5 6 5 6 9 38 28 19 14 10 5 6 10 18 31 43 43 31 75 84 83 82 71 57 56 53 52 38 53 52 48 54 63 82 46 34
9 10 11 10 6 6 6 6 6 11 21 14 14 17 26 46 37 25 15 13 10 8 11 13 19 22 24 19 20 21 28 35 39 43 43 34 30 34 64 54 59 68 76 74 55
11 11 12 7 6 8 8 9 30 53 54 42 36 61 52 50 43 29 30 16 13 12 9 10 8 13 20 22 24 25 26 28 28 29 26 28 30 36 41 49 55 60 73 91 72
12 12 10 7 9 9 11 31 93 100 100 96 97 100 100 78 72 43 32 20 20 17 17 10 14 13 22 34 18 15 17 26 29 29 23 32 27 37 42 58 49 57 73 78 91
14 13 7 8 8 9 27 84 100 100 100 100 100 100 100 100 77 66 39 28 28 26 34 40 61 42 39 58 42 12 16 20 28 38 30 19 32 37 28 33 51 50 59 77 95

GFSSW_500_rhum_054.txt.gz
RH
7 4 4 5 4 4 4 5 6 8 11 20 23 41 75 60 46 34 27 21 18 15 16 18 21 22 26 35 36 42 47 38 29 34 7 7 7 6 7 12 24 41 32 30 30
7 5 4 4 5 6 6 6 8 9 16 21 30 54 80 69 65 40 34 26 22 21 21 22 23 24 35 38 40 44 53 43 31 36 8 6 8 6 7 10 21 38 42 25 27
7 6 5 5 6 7 8 9 11 15 16 22 31 51 74 79 94 52 41 34 28 26 26 26 27 28 40 39 41 49 55 47 32 37 10 6 9 8 7 9 12 33 42 21 21
8 7 7 9 10 12 12 12 19 21 24 20 24 57 67 90 100 86 49 41 40 35 32 31 31 33 42 42 43 56 60 55 33 38 16 6 8 10 8 10 11 26 39 34 20
9 10 11 12 13 16 19 24 22 22 28 30 30 52 78 77 99 95 64 46 44 43 38 38 36 38 43 42 43 62 70 61 36 38 23 8 7 10 10 10 13 19 32 29 21
13 17 18 19 20 22 18 25 16 35 42 39 40 54 81 83 93 98 87 65 59 48 45 44 44 45 43 42 41 64 72 62 50 38 32 15 9 9 10 14 18 23 27 25 24
25 24 25 27 23 12 6 18 14 40 50 57 50 46 63 92 92 98 76 68 94 72 64 60 53 50 49 47 40 54 73 65 62 45 36 24 12 11 11 14 19 24 24 26 26
24 25 23 21 17 8 3 13 9 34 43 80 71 56 57 97 91 98 97 88 97 94 95 79 67 59 56 46 46 50 72 69 76 47 36 32 17 12 13 16 21 25 30 31 25
19 20 18 15 12 8 4 4 4 25 30 73 95 82 72 74 96 98 98 96 97 96 97 87 70 52 51 52 48 48 68 77 80 55 38 38 18 15 15 19 26 26 36 34 35
16 20 22 22 14 10 6 5 4 10 33 77 72 78 90 86 97 91 98 97 97 94 91 93 78 51 45 46 44 68 90 81 77 58 46 40 29 17 19 22 27 21 34 38 29
15 19 23 27 25 13 7 8 4 4 13 67 70 79 82 86 96 96 98 97 97 91 79 94 72 46 63 70 90 93 80 82 74 63 58 44 40 29 28 28 26 28 23 35 31
18 21 24 28 28 25 12 8 5 4 9 36 63 76 83 79 88 96 98 97 97 97 94 72 56 71 66 71 95 76 65 79 84 72 55 48 43 38 36 33 30 28 23 22 36
19 23 30 34 31 29 23 10 6 4 4 6 46 52 90 83 95 99 95 98 99 96 86 72 85 77 60 89 100 85 61 79 96 77 54 50 43 44 41 40 37 32 20 28 32
19 29 36 40 38 33 30 17 9 5 4 3 5 52 50 98 100 90 96 95 96 100 100 76 94 75 72 95 100 94 74 84 89 87 78 53 40 35 43 44 42 36 26 28 32
28 33 37 42 39 35 30 21 11 6 4 4 3 24 51 63 95 96 99 94 95 99 95 96 100 87 80 95 100 100 76 91 92 81 71 52 43 46 41 46 44 36 27 32 31
30 31 38 44 42 38 25 17 13 6 4 4 3 4 35 41 32 93 97 97 100 96 96 100 97 90 80 100 100 97 86 91 85 78 54 54 51 44 53 49 46 35 29 25 25
32 32 45 47 43 37 26 16 11 7 5 4 4 4 5 24 38 30 94 98 99 95 96 100 99 96 92 98 97 95 88 95 84 69 55 66 64 52 59 65 53 48 31 18 22
36 36 50 51 46 27 20 13 9 7 4 3 3 3 3 6 18 30 34 94 98 97 98 98 95 98 99 100 100 99 94 91 90 81 77 69 74 58 63 68 56 54 32 19 22
50 55 54 47 34 21 15 12 7 6 4 3 2 2 2 5 11 24 18 62 95 97 97 98 96 97 96 98 96 95 82 94 99 91 84 81 73 68 58 62 70 59 50 23 19
49 46 24 25 12 15 14 10 5 4 3 3 3 2 3 4 5 8 25 29 80 88 89 98 98 98 98 96 95 97 97 92 91 91 93 84 73 74 64 65 79 70 56 43 26
8 12 8 6 6 9 9 4 3 3 2 2 2 2 2 2 6 5 7 24 29 90 74 61 98 98 98 91 96 96 98 96 95 95 92 100 98 61 72 69 67 72 60 48 30
4 4 5 4 4 4 3 3 3 4 3 3 3 2 2 3 3 6 6 10 25 33 89 68 31 88 83 77 87 94 93 94 100 100 95 84 96 82 68 66 65 75 59 49 28
5 4 4 4 4 4 4 4 5 5 5 4 4 3 3 3 6 6 7 11 9 19 34 76 72 17 19 30 48 78 74 80 82 82 83 81 86 69 75 76 64 69 82 55 38
6 5 5 4 5 6 7 8 8 8 6 5 4 4 3 4 10 12 15 10 34 26 14 28 46 74 26 23 25 28 55 73 72 76 80 76 76 66 70 64 58 52 73 84 73
7 6 5 6 6 8 11 10 10 6 5 6 6 9 11 6 8 25 36 44 15 91 88 64 23 25 48 53 32 32 48 78 95 72 56 58 53 49 44 40 45 41 52 66 92
7 6 6 8 10 13 13 11 7 7 6 11 40 35 32 18 15 47 40 37 33 38 34 44 100 91 39 44 44 36 31 26 26 25 27 32 30 33 27 25 23 25 35 48 62
8 7 9 13 17 14 13 8 8 9 19 95 97 51 88 100 66 28 29 36 43 44 97 48 30 38 60 59 31 20 27 37 42 44 40 35 30 18 16 15 18 25 28 39 51

GFSSW_500_rhum_057.txt.gz
RH
25 22 18 15 10 5 3 3 3 2 2 2 3 4 6 9 20 39 61 61 42 29 21 15 10 11 14 19 22 28 33 40 48 51 42 28 13 6 6 6 7 11 26 32 31
28 24 15 11 8 5 4 4 3 3 3 3 3 5 8 10 18 42 52 73 49 33 21 16 13 13 17 21 24 33 36 42 57 57 46 34 16 6 7 7 7 7 8 34 36
29 21 13 11 8 6 5 4 3 3 4 4 5 6 10 17 19 33 69 83 59 36 23 19 18 18 20 22 28 34 37 45 50 58 49 37 19 6 7 9 7 7 7 16 32
26 17 13 10 8 7 5 4 4 4 6 7 7 12 18 22 30 27 60 89 80 42 28 23 22 23 23 25 30 37 41 50 56 56 50 39 24 6 6 10 8 8 8 11 21
21 15 12 11 9 7 6 6 5 7 10 12 16 20 24 26 34 42 59 74 96 48 40 30 27 26 25 28 33 42 44 56 61 60 42 42 30 9 7 8 9 10 12 15 20
18 14 13 12 10 9 8 8 10 16 12 12 16 18 30 42 50 53 59 77 98 53 47 40 33 28 28 32 40 45 51 61 65 62 42 40 35 16 10 9 10 11 16 18 17
16 16 15 14 12 10 12 15 20 17 11 4 12 18 34 65 42 51 67 86 98 64 55 51 46 37 35 37 43 49 53 66 66 67 52 38 37 25 11 12 12 12 23 21 21
19 18 18 16 15 15 21 20 18 17 9 3 4 15 39 69 64 50 79 94 98 95 73 58 51 47 42 43 50 56 57 60 72 70 64 41 37 29 16 14 14 12 16 24 23
20 22 23 20 19 22 20 20 19 19 10 5 4 9 38 64 76 70 69 90 97 96 95 73 60 58 52 56 60 64 52 65 85 74 70 46 44 34 26 17 18 16 16 26 19
27 26 25 22 19 19 21 24 24 20 12 6 4 7 32 43 73 75 73 89 97 96 84 89 84 75 64 65 63 73 68 82 97 98 65 65 52 40 36 21 20 20 12 15 22
32 30 23 15 14 16 21 23 23 22 14 7 5 5 27 25 67 83 96 94 97 97 79 100 94 79 68 78 85 97 100 100 98 100 64 67 54 43 40 30 28 22 15 12 19
40 32 17 12 14 18 23 28 28 25 24 13 6 4 8 12 49 86 98 94 96 97 98 96 75 88 96 98 100 100 93 79 99 84 77 71 53 47 43 37 37 28 18 9 10
54 45 30 22 14 19 24 33 33 29 27 19 8 4 4 7 43 79 96 96 98 98 95 98 96 99 95 100 99 100 95 87 89 96 75 70 55 49 42 42 39 32 27 12 12
50 44 29 20 19 19 28 36 37 34 30 24 12 5 4 12 48 77 97 97 97 98 98 98 98 96 92 92 100 98 100 100 99 91 70 86 57 56 42 42 40 37 33 16 12
43 37 31 26 19 21 30 38 41 34 27 20 15 6 4 6 24 83 96 99 100 99 97 97 98 94 84 79 97 85 96 100 98 91 73 66 60 60 65 91 61 43 39 25 14
52 33 21 20 19 22 30 34 44 39 26 18 11 6 5 4 10 50 93 97 99 95 96 98 97 94 92 98 96 98 96 98 97 96 65 51 64 60 82 89 63 45 45 31 13
56 42 26 22 21 27 29 34 47 40 29 18 9 6 4 4 4 12 42 89 98 98 95 99 96 96 100 96 94 98 100 100 100 96 58 52 66 54 62 64 65 55 51 45 28
64 43 35 28 27 30 29 34 49 40 28 15 8 4 3 3 4 4 10 36 88 99 99 97 95 99 100 96 98 98 93 91 96 96 98 62 100 56 70 73 78 69 54 52 34
67 61 49 38 35 40 48 50 50 45 33 14 9 5 4 3 3 4 6 16 41 90 97 99 96 97 98 98 97 96 83 95 97 99 94 100 98 74 59 74 80 78 66 56 52
15 42 51 57 49 47 50 52 46 34 24 17 7 5 4 5 4 3 4 6 19 27 94 100 97 100 98 97 94 95 100 98 94 99 100 100 100 98 69 72 84 82 84 65 70
5 6 15 24 33 51 57 42 23 20 13 11 6 3 3 3 3 3 3 4 7 25 38 93 98 100 97 90 98 99 96 91 100 100 100 100 100 99 96 61 65 77 86 82 52
5 5 5 6 12 24 39 17 11 8 5 4 4 3 3 2 2 2 2 3 5 14 43 82 94 95 100 100 97 100 98 99 99 100 99 99 99 96 100 70 83 82 86 75 72
9 6 6 6 5 5 7 6 6 5 4 4 3 3 3 3 2 2 2 2 4 5 23 56 79 96 100 100 100 97 98 99 100 100 98 98 98 99 98 91 92 96 97 82 69
11 10 8 8 6 5 5 5 5 4 5 5 4 4 3 3 3 2 2 2 5 16 9 25 76 92 99 100 99 95 99 98 99 98 98 98 99 100 96 98 98 97 95 91 86
14 11 11 10 8 6 7 6 5 5 6 8 6 5 5 4 3 2 2 4 10 92 97 39 30 84 100 86 87 100 89 47 61 88 100 99 99 97 92 84 94 84 75 81 62
47 13 13 15 10 10 8 7 7 8 9 10 10 7 5 4 4 6 8 6 5 18 100 100 86 34 60 59 86 99 72 30 43 64 64 84 96 99 78 59 50 35 36 35 34
49 25 21 18 13 13 11 12 12 14 12 13 30 28 62 99 34 23 16 6 6 26 49 100 100 100 94 78 59 49 59 66 46 42 45 60 92 58 32 25 21 23 20 19 22

GFSSW_500_rhum_060.txt.gz
RH
42 38 29 25 27 26 19 13 10 6 4 4 3 2 2 2 2 2 2 2 3 7 18 47 44 21 12 11 12 14 16 19 29 43 74 76 61 30 31 13 7 5 6 7 10
43 41 36 31 30 26 17 12 9 7 5 4 4 3 3 2 2 3 3 4 6 11 17 68 48 22 12 13 14 15 17 22 32 72 85 76 63 32 35 21 6 6 6 6 7
49 44 36 34 31 24 16 12 8 7 6 5 4 4 3 3 3 4 6 10 14 24 29 77 48 22 13 12 14 17 19 24 39 95 84 77 71 40 37 25 8 6 9 6 7
50 45 38 34 26 22 16 10 8 7 6 5 4 4 3 3 9 7 5 13 24 28 36 85 68 24 14 13 15 19 21 27 40 56 56 67 61 40 37 28 8 7 9 9 9
59 51 41 32 27 21 14 11 9 8 6 6 5 4 4 7 7 11 10 30 27 36 51 94 93 31 18 15 18 19 22 29 42 58 57 64 60 38 36 30 9 8 9 9 10
65 57 39 31 22 16 14 12 11 9 8 6 6 6 8 7 6 9 17 39 31 37 56 85 96 40 22 18 19 22 24 30 45 53 62 62 59 37 34 30 13 10 9 10 11
66 49 32 23 20 18 16 14 12 10 10 8 7 7 14 8 6 8 36 52 37 34 57 99 100 60 26 23 21 22 26 33 45 59 65 67 53 42 37 31 15 12 10 9 12
67 52 30 23 21 22 19 18 16 15 11 9 12 15 14 9 6 7 25 54 66 48 51 100 97 73 32 27 25 25 28 39 52 66 72 71 46 50 36 30 18 15 14 8 7
69 41 24 22 24 23 22 21 20 17 14 14 18 18 16 9 6 6 25 37 73 58 59 97 98 85 49 33 54 30 35 47 61 70 74 74 60 54 42 31 21 17 19 11 10
64 36 24 24 24 24 23 22 21 19 19 19 18 19 13 10 5 6 17 27 82 64 67 94 97 87 64 51 46 50 45 62 67 83 96 99 65 69 51 34 33 22 21 14 9
58 38 30 31 32 27 24 22 22 20 19 22 22 20 20 15 7 4 10 18 74 78 67 96 96 80 96 81 58 74 85 99 100 94 100 86 74 70 58 41 38 30 30 19 9
61 66 59 49 44 35 28 24 29 24 22 24 28 24 21 20 8 4 6 28 69 96 96 94 95 96 98 94 92 96 87 84 98 100 84 97 70 76 66 44 41 37 36 25 15
59 55 62 62 54 53 46 42 38 30 27 29 31 26 23 21 12 5 7 25 76 97 96 91 100 98 94 92 93 92 90 97 77 100 100 76 82 76 66 48 40 39 35 30 23
55 55 66 64 56 45 44 38 36 28 25 29 31 26 22 19 12 5 7 23 75 98 98 97 100 90 96 94 98 97 100 98 98 100 83 98 80 91 71 57 45 38 37 36 33
44 49 61 73 63 55 41 34 29 25 34 32 33 29 22 16 9 5 6 15 39 97 97 99 98 98 97 96 98 92 98 98 100 100 87 79 75 74 86 94 67 64 38 37 36
10 33 53 65 73 57 38 28 24 32 35 38 39 36 26 17 10 6 4 6 20 89 97 100 99 96 98 97 93 97 97 100 99 94 77 62 67 61 70 78 90 97 86 40 34
2 2 16 52 69 62 50 31 28 32 37 40 37 40 27 12 9 5 4 4 9 32 97 98 98 96 100 97 98 98 95 100 97 95 71 72 58 41 73 100 87 96 67 48 39
2 2 2 15 71 67 48 38 36 34 35 35 36 43 26 12 6 4 4 4 4 14 62 96 96 99 96 96 99 98 98 92 90 98 91 76 59 41 65 86 64 61 63 69 46
2 2 2 4 25 62 57 47 46 36 39 41 43 46 32 16 7 5 4 4 4 5 19 74 97 99 98 98 97 98 92 92 99 100 96 75 83 84 86 69 73 69 75 77 61
3 3 4 4 6 24 58 63 52 37 39 48 51 46 31 14 10 6 7 46 11 7 8 23 77 98 98 99 96 96 100 97 96 96 89 98 99 93 79 66 87 96 82 84 82
8 5 6 6 6 9 18 59 59 42 39 42 47 38 28 9 11 3 12 19 7 7 7 18 30 90 98 85 100 100 98 97 97 97 96 97 94 93 91 63 83 81 81 77 75
9 9 10 7 10 7 7 20 38 32 42 39 41 26 18 10 8 4 2 8 4 4 4 10 11 27 97 100 98 98 97 100 96 98 95 95 99 92 100 94 76 78 92 87 90
8 10 13 40 39 9 7 7 17 24 25 22 20 17 9 7 6 4 2 3 3 2 3 5 16 40 85 100 99 94 99 98 100 99 98 96 91 98 90 89 98 100 92 92 86
13 9 12 18 33 36 14 7 6 8 9 8 8 6 5 4 4 3 3 4 2 2 3 3 5 26 65 99 100 93 97 99 98 98 98 98 100 98 95 98 97 97 83 93 92
34 27 29 71 15 14 17 37 56 7 7 7 6 5 5 5 5 4 4 3 2 2 2 22 14 24 33 50 99 100 97 96 96 98 97 97 98 98 98 98 99 92 76 89 94
72 66 51 49 97 87 63 26 25 97 54 8 7 8 7 7 18 34 14 2 2 2 2 27 87 33 24 56 64 90 95 99 92 99 100 100 98 99 98 95 93 98 100 99 91
75 60 51 61 71 88 88 70 26 26 93 89 56 30 10 70 17 9 5 5 5 7 2 7 100 100 85 42 42 74 96 97 100 100 96 98 100 99 95 100 100 86 97 84 70

GFSSW_500_rhum_063.txt.gz
RH
50 49 45 40 39 38 34 29 27 28 21 15 11 7 4 4 4 3 3 3 2 3 2 2 3 6 17 45 32 14 14 15 12 14 50 78 95 90 80 59 33 29 12 5 4
52 47 46 41 41 45 39 33 30 27 19 12 10 8 7 5 4 4 4 3 3 3 3 3 7 13 16 59 35 16 15 14 14 24 54 72 99 92 78 52 35 25 10 6 6
64 57 52 49 44 41 42 38 30 24 17 13 9 7 6 6 5 4 4 4 4 3 4 4 12 20 18 50 48 18 17 14 16 43 40 72 97 97 58 51 36 24 12 7 6
65 64 59 54 56 50 42 39 31 25 18 13 10 8 7 6 6 5 5 4 4 3 4 13 23 27 27 54 62 18 14 15 18 46 43 48 90 95 69 62 43 31 21 8 6
70 65 68 59 59 62 53 40 32 26 18 13 10 9 8 7 6 6 5 5 5 5 7 26 29 38 33 81 75 28 14 16 21 42 54 45 60 66 67 62 45 28 22 9 8
76 67 61 53 54 61 55 46 28 22 16 13 11 10 9 8 8 7 6 7 7 6 20 44 40 43 37 86 88 32 15 15 20 25 44 50 52 68 66 61 43 30 22 11 12
78 73 66 60 58 60 53 38 26 22 17 15 13 10 10 9 8 7 7 8 6 11 17 52 52 67 54 71 77 50 18 14 18 24 34 51 52 59 70 63 42 30 23 12 12
97 96 86 69 66 67 48 31 23 21 20 17 16 13 12 11 9 8 7 9 6 7 22 62 52 61 50 78 96 40 26 17 19 25 36 54 45 77 74 62 41 30 21 16 17
83 81 76 70 73 62 42 29 25 23 22 20 19 16 14 12 10 12 10 10 6 6 20 71 79 67 74 89 91 77 24 20 22 38 46 56 57 92 73 56 37 32 25 20 20
88 82 83 82 76 55 38 29 27 24 22 21 20 18 18 13 12 15 14 13 7 5 12 59 80 70 73 91 86 59 32 23 38 48 67 80 67 97 91 61 44 38 29 23 25
88 84 77 76 71 55 40 31 32 29 23 21 21 21 19 15 16 15 11 14 8 6 12 49 67 46 63 100 100 89 29 31 77 80 96 95 86 86 91 82 49 39 36 29 27
82 74 68 66 63 66 70 66 42 38 33 28 28 24 21 18 19 14 13 15 10 6 12 32 68 70 80 96 98 94 42 85 71 81 98 99 95 100 98 79 57 42 38 34 30
56 55 57 59 59 58 56 58 61 55 48 36 33 30 26 23 25 19 16 17 11 6 13 29 83 95 81 99 92 91 82 63 88 97 97 76 93 73 75 95 66 46 40 36 31
18 20 30 38 43 52 50 55 50 47 40 36 34 31 28 27 25 21 17 14 9 8 11 33 88 87 96 100 88 90 90 86 98 98 76 100 72 95 96 94 83 52 44 39 36
2 2 2 4 8 30 43 54 56 54 42 36 33 33 30 32 27 21 16 13 9 6 15 48 81 93 100 100 97 92 99 98 89 94 92 82 62 61 87 92 77 74 62 54 43
2 2 2 2 2 2 11 36 53 53 44 40 37 35 35 36 36 30 22 14 8 5 16 44 94 89 94 98 95 93 93 82 94 92 87 78 74 43 80 76 98 99 100 74 49
2 2 2 2 2 2 2 7 44 43 47 49 38 35 35 35 35 34 17 10 8 5 6 32 76 95 98 94 99 100 99 98 97 81 67 78 80 47 78 94 79 86 95 83 63
2 2 2 2 2 2 2 2 5 29 51 61 45 42 33 35 37 39 23 11 4 4 5 27 80 96 98 98 95 100 99 94 99 88 83 83 66 46 76 93 97 96 78 86 62
4 4 3 3 3 3 2 2 2 29 47 42 46 46 36 38 42 40 27 11 5 5 6 18 40 91 100 100 98 98 94 100 98 84 80 71 62 72 77 99 88 85 89 87 76
6 5 5 4 4 4 3 2 2 18 52 48 42 43 42 45 46 45 30 19 13 9 19 15 28 56 97 99 98 98 100 98 94 98 82 81 88 86 81 98 88 88 98 99 92
8 6 7 6 6 6 4 3 4 26 48 44 46 39 39 36 50 43 27 23 54 69 16 12 14 31 84 99 100 100 97 95 98 96 94 99 94 94 99 96 94 99 96 94 90
8 6 8 11 10 11 9 7 6 16 34 47 53 39 31 34 41 47 12 11 33 42 15 12 9 13 43 85 99 99 97 99 97 100 99 94 100 93 98 100 99 99 98 87 76
6 8 15 12 14 15 27 10 8 12 24 28 41 40 25 22 29 30 14 9 7 9 5 10 9 9 15 58 100 100 100 98 100 100 98 93 97 100 95 87 98 98 100 96 86
14 16 12 10 12 99 44 48 11 9 15 20 23 29 23 22 13 14 11 8 6 7 3 3 6 8 15 41 93 99 100 98 99 97 99 86 96 98 96 98 93 96 100 95 92
14 15 34 29 28 17 36 58 78 57 12 14 14 15 14 10 9 9 8 7 8 4 3 3 3 3 5 35 65 100 100 99 97 97 95 100 97 96 98 96 94 95 94 79 80
23 49 66 59 61 100 89 50 30 100 100 77 11 11 10 9 9 8 5 4 4 3 5 2 3 4 18 34 51 93 100 100 100 99 96 98 97 98 98 98 97 87 79 72 73
61 91 84 79 62 70 99 100 74 56 99 100 99 26 10 29 7 5 6 5 6 5 4 3 2 3 16 20 35 46 71 100 98 97 98 99 98 100 98 98 94 93 100 99 95

GFSSW_500_rhum_066.txt.gz
RH
68 62 60 53 44 47 46 44 38 34 34 28 27 27 24 19 14 10 4 4 4 4 3 3 3 4 4 3 3 4 3 3 13 20 16 86 41 31 78 63 68 40 34 34 30
70 76 73 62 58 54 49 45 41 36 37 38 32 27 20 16 11 10 6 5 5 4 4 4 5 5 3 3 4 6 5 7 26 21 16 90 61 45 43 62 51 35 38 32 24
67 66 71 82 76 65 55 50 44 42 38 38 35 26 19 15 12 9 7 6 5 5 5 4 4 4 2 3 6 13 7 23 34 19 19 89 69 62 44 37 29 41 36 28 17
70 65 74 89 88 80 68 58 51 48 43 41 36 32 25 16 12 10 8 7 6 5 5 5 4 3 2 3 23 18 18 25 39 21 23 64 81 53 40 34 32 50 43 29 22
78 77 91 99 100 92 77 69 63 52 48 47 42 36 30 18 14 10 8 8 7 6 6 6 3 3 3 13 24 20 28 37 58 22 21 52 81 55 50 35 39 51 39 32 24
80 78 80 93 94 96 87 71 68 59 53 53 46 34 24 18 14 12 11 9 8 7 7 5 4 4 4 10 29 33 35 44 69 25 20 36 71 56 37 44 56 57 47 36 26
93 99 100 100 94 95 93 73 64 63 53 46 40 27 20 18 15 13 12 10 8 7 7 5 5 5 8 32 41 45 42 42 66 33 16 36 33 36 43 61 69 66 50 35 24
98 98 98 96 94 95 96 97 91 86 69 46 33 24 21 19 17 16 13 11 9 9 8 7 6 6 13 44 55 44 50 70 69 51 16 25 22 26 47 68 75 71 48 30 18
98 96 100 96 93 95 96 97 92 79 54 36 32 24 22 20 19 18 16 13 11 10 9 9 7 7 15 56 60 50 44 63 90 47 18 22 22 36 76 80 84 75 47 30 20
97 97 98 97 94 96 95 96 86 68 46 34 30 28 24 22 21 19 18 16 13 11 10 11 8 7 19 59 52 43 62 94 57 28 24 30 29 78 92 98 76 63 44 30 23
96 97 97 95 95 92 87 77 75 63 49 39 33 28 24 24 22 22 21 18 14 12 11 11 8 7 14 65 82 48 60 96 65 31 31 42 42 82 81 91 72 55 45 37 28
98 98 98 95 92 81 71 66 64 61 62 62 48 37 26 29 30 29 24 20 17 14 13 11 10 8 10 52 55 45 67 92 50 98 83 44 64 94 88 78 66 57 42 39 36
64 53 66 80 91 75 50 48 50 50 46 59 58 58 53 44 35 30 25 21 19 16 16 14 10 9 8 46 50 45 78 100 73 78 96 66 61 88 78 73 76 79 67 42 40
3 3 7 4 13 16 10 17 31 38 39 44 43 40 38 35 33 31 26 24 22 17 14 11 10 8 11 50 84 69 87 98 81 92 64 80 75 71 64 57 87 94 78 48 37
2 2 2 2 2 2 2 2 3 7 28 33 39 40 39 37 34 31 28 27 24 18 13 11 9 10 13 82 95 83 92 94 69 63 72 91 83 71 53 57 62 75 64 55 39
2 2 2 2 2 2 2 2 2 2 6 24 32 38 39 39 37 35 32 32 28 20 16 8 9 16 26 73 85 91 91 94 84 81 62 76 79 62 42 46 77 81 71 61 40
2 3 2 2 3 2 2 2 2 2 6 19 25 29 39 41 37 34 35 36 33 21 15 9 7 37 29 58 93 100 100 99 94 76 60 71 91 48 61 70 94 84 60 47 40
3 3 3 4 3 2 3 2 2 2 4 20 10 17 33 48 39 34 34 36 35 26 12 8 15 36 69 66 96 98 95 100 99 97 82 76 77 43 76 97 98 84 75 65 48
4 3 4 5 5 4 4 3 2 2 2 14 21 25 36 58 44 41 37 36 39 25 8 5 8 40 50 48 97 96 78 100 98 100 87 70 71 74 76 76 92 72 79 64 72
4 4 9 9 9 8 6 4 3 3 3 24 78 38 48 56 47 41 40 41 39 31 10 11 12 29 48 72 89 100 99 95 97 100 96 90 98 94 95 96 79 68 55 63 92
8 8 11 10 10 9 6 5 4 5 7 13 58 95 73 87 56 43 52 64 55 34 19 15 14 23 37 85 86 100 98 96 100 100 99 100 98 93 94 89 91 82 67 55 61
8 7 8 8 8 8 7 7 7 6 10 17 42 48 92 100 74 56 48 47 54 52 44 42 17 15 34 80 91 99 100 95 99 99 98 97 99 93 96 90 89 92 81 65 60
7 7 11 11 10 9 10 12 11 9 12 19 75 100 66 92 89 82 46 47 46 26 43 48 26 17 17 44 72 83 98 100 100 99 97 97 98 98 98 92 79 80 94 86 73
12 14 28 24 31 28 75 66 32 33 13 16 30 81 93 100 84 48 44 33 25 19 13 9 13 16 20 37 63 85 95 98 99 99 99 85 97 100 98 97 80 78 63 96 100
16 30 33 44 42 34 91 100 99 93 81 25 20 37 57 44 67 44 28 27 24 20 16 11 9 5 8 32 46 72 100 94 94 100 98 99 95 97 98 97 100 96 96 81 100
26 41 33 70 98 50 66 100 98 93 100 75 25 32 47 34 33 33 29 20 22 19 21 14 7 3 3 6 16 54 93 96 95 96 97 100 97 95 98 95 96 99 94 99 100
42 51 56 72 91 100 65 58 48 55 100 100 99 56 25 31 51 39 52 31 22 12 10 7 5 4 4 8 9 12 97 100 100 100 100 99 100 98 100 98 83 96 98 98 99

GFSSW_500_rhum_069.txt.gz
RH
50 52 54 55 52 51 43 47 50 44 46 42 38 34 33 28 26 27 26 19 16 12 10 11 4 4 3 3 3 5 6 6 4 4 6 19 20 42 62 51 37 42 84 66 44
43 51 60 64 61 59 54 49 47 51 53 49 42 41 36 33 33 29 22 16 12 8 5 5 5 4 4 4 5 6 7 6 4 4 6 20 22 44 56 72 53 38 75 80 52
49 55 62 74 74 65 65 64 61 59 56 58 56 47 42 39 38 32 23 15 13 10 8 6 5 5 4 5 6 6 7 4 4 7 10 16 27 68 70 88 75 53 47 57 56
58 60 61 73 69 67 72 81 73 74 74 66 62 57 52 45 32 29 24 17 14 10 8 7 7 6 5 6 6 8 6 3 4 14 22 27 24 40 84 87 75 52 36 39 54
66 62 59 62 67 70 76 74 79 86 89 89 72 66 57 48 42 35 25 20 15 11 8 8 7 6 6 7 7 6 3 3 8 19 22 40 31 41 91 73 73 55 44 43 53
70 62 63 63 62 70 77 84 93 93 93 97 92 76 64 50 43 36 24 18 15 11 10 9 8 7 7 8 7 4 3 4 13 23 28 48 45 32 89 75 68 66 49 51 55
70 63 67 74 78 91 94 97 95 88 96 96 96 92 61 45 41 33 30 21 16 13 12 10 8 8 10 9 5 4 3 12 33 31 25 51 52 21 35 83 64 53 42 58 58
62 76 85 86 85 92 96 96 93 90 94 97 96 95 55 44 35 40 21 18 16 15 13 11 10 10 9 7 5 5 5 21 40 45 50 66 56 26 27 64 62 51 56 68 60
89 96 95 91 96 97 98 98 91 96 98 97 96 97 97 81 35 24 22 20 18 17 15 13 12 11 10 6 6 5 13 43 48 61 82 79 63 35 24 29 51 69 68 72 70
92 97 97 95 95 92 94 96 94 94 97 96 94 96 85 68 35 32 28 20 20 20 18 16 15 12 9 7 6 7 15 55 38 88 92 83 61 41 23 38 50 76 88 71 69
98 98 97 94 96 91 97 96 88 85 88 92 96 95 69 45 27 22 23 21 21 22 20 18 17 13 10 8 7 7 14 42 33 63 87 61 37 33 22 27 45 65 91 82 55
99 97 98 96 97 93 93 100 91 75 77 77 88 81 92 81 44 25 40 24 27 28 24 20 16 13 11 10 8 8 9 42 31 92 74 52 35 29 22 31 49 74 88 76 46
82 71 48 38 32 43 37 48 72 76 66 64 73 56 65 79 54 45 45 41 34 30 25 20 16 14 12 11 10 8 13 45 41 95 68 54 38 33 36 39 49 77 94 64 42
36 19 10 11 18 10 9 10 12 20 43 33 47 50 50 50 50 46 43 38 33 29 26 22 18 16 13 11 10 8 51 59 59 73 55 53 39 31 37 52 74 88 86 62 45
4 4 3 3 3 4 3 2 2 2 21 19 26 29 40 45 42 37 35 35 33 30 28 23 19 15 12 10 10 9 52 69 62 75 58 62 52 32 48 64 72 75 67 52 40
10 6 4 4 3 4 3 2 2 3 6 7 10 20 25 34 39 40 39 36 34 32 30 26 21 16 11 11 11 13 74 90 84 72 64 66 56 40 54 60 85 79 73 57 53
2 3 3 4 3 3 3 2 3 5 4 4 5 6 10 19 36 40 40 39 37 34 33 29 23 18 13 10 10 22 92 100 98 76 52 70 56 41 94 99 98 98 95 71 55
3 4 5 4 4 4 3 3 3 4 4 3 3 3 3 27 30 38 39 38 36 34 34 32 18 14 10 12 20 46 100 99 86 78 77 77 60 49 91 88 83 80 84 74 64
4 4 5 4 4 4 4 3 3 3 5 5 4 3 3 12 8 30 40 39 35 34 35 33 22 8 8 15 24 68 97 99 100 100 95 93 77 69 94 76 93 84 69 79 78
4 5 4 5 5 5 5 4 6 7 7 6 4 19 8 12 23 44 61 41 40 37 37 35 21 10 9 26 53 78 100 98 100 100 90 100 92 75 72 89 89 74 54 58 77
5 5 6 7 7 7 7 7 8 9 9 7 6 7 13 35 86 77 63 52 67 51 50 38 25 20 13 35 51 93 100 98 100 99 79 99 97 82 74 81 83 77 66 64 57
6 10 9 7 7 6 6 6 7 7 10 8 6 6 20 100 100 100 78 69 100 99 79 50 30 32 19 34 72 99 100 100 100 100 98 100 90 76 78 89 90 80 73 77 68
10 9 8 8 8 8 9 12 11 10 11 9 7 6 13 94 100 100 100 69 56 74 86 77 62 75 63 21 54 92 100 100 100 99 98 100 98 82 60 63 88 75 74 80 94
8 8 12 15 16 18 70 89 84 38 18 24 10 9 12 51 100 100 100 87 72 59 60 58 50 82 67 37 35 61 97 100 100 99 97 97 99 100 91 76 75 81 80 94 85
10 13 18 20 18 22 88 99 100 100 86 92 45 18 21 93 100 96 100 100 95 91 52 54 29 42 36 42 40 33 93 100 100 100 97 100 97 95 98 100 100 99 87 68 79
20 18 26 28 18 25 34 71 100 100 99 100 95 45 56 77 100 100 100 100 100 100 58 33 25 16 14 20 25 31 92 100 100 100 100 100 92 92 99 98 99 99 98 99 96
30 37 41 45 26 33 58 51 92 94 100 87 90 64 27 60 77 100 100 100 98 68 67 73 31 15 13 11 6 8 42 96 96 100 100 94 93 89 87 98 98 97 98 100 99

GFSSW_500_rhum_072.txt.gz
RH
42 45 43 42 41 40 39 42 58 59 50 48 46 43 41 38 48 44 39 35 31 26 26 23 16 13 9 6 11 8 7 4 4 5 6 8 16 19 9 8 13 19 36 55 48
48 48 45 46 45 42 42 42 48 62 62 51 54 61 55 53 50 44 43 41 38 32 27 20 14 10 6 5 6 4 5 4 5 6 6 5 12 23 10 10 23 29 70 80 63
49 50 50 52 48 50 48 48 47 53 51 69 64 72 69 71 62 54 49 45 41 35 28 18 14 11 7 6 5 5 6 5 6 6 6 6 7 23 16 13 26 44 90 79 47
54 50 52 55 56 52 56 54 53 52 56 64 73 70 78 81 81 62 54 48 39 32 27 16 13 11 9 7 6 7 5 6 6 6 6 5 4 14 22 17 36 42 76 47 28
60 57 54 50 52 49 56 56 54 54 57 62 77 75 79 95 96 83 68 54 42 35 29 22 14 13 10 8 7 7 6 6 6 6 5 3 3 8 25 29 35 53 66 59 51
59 59 50 47 43 54 62 64 61 56 64 69 70 68 78 98 93 96 80 53 40 28 26 22 15 13 10 8 8 8 8 7 8 7 4 4 7 10 23 35 35 36 49 37 49
55 55 50 46 42 54 67 63 59 64 72 76 80 86 94 100 98 98 97 49 28 24 22 18 14 12 12 11 10 8 9 9 8 5 5 12 9 18 32 33 32 36 40 44 44
53 51 47 46 51 62 74 72 64 74 80 88 89 85 90 96 97 96 97 60 32 18 18 18 16 14 13 11 10 10 11 10 7 6 10 21 10 43 43 43 47 44 57 51 37
62 56 55 53 68 73 79 78 72 77 87 93 88 88 100 99 98 98 99 93 55 26 24 31 21 16 15 13 12 12 14 11 6 6 10 27 20 50 55 45 32 62 51 28 36
64 65 66 64 69 72 85 89 84 81 89 84 84 88 99 100 96 99 92 93 81 70 52 43 28 18 17 17 20 15 15 9 6 6 20 31 32 42 66 54 42 30 40 32 39
69 72 72 72 71 74 95 97 86 78 82 78 88 93 100 96 95 98 97 93 86 58 38 56 35 23 21 19 17 14 10 9 6 6 33 36 27 32 65 60 52 24 23 25 37
80 87 89 86 89 93 99 98 92 78 74 82 78 81 88 90 99 81 86 63 43 25 30 38 55 31 26 21 17 14 11 9 6 9 31 39 24 24 56 65 35 23 22 29 52
86 94 85 78 71 70 64 52 44 51 36 52 80 77 79 84 87 100 72 82 79 44 55 45 32 28 24 20 16 14 11 10 6 14 38 31 26 38 57 53 28 24 27 31 52
88 77 59 60 49 34 29 33 25 20 30 19 21 36 43 56 89 82 95 95 80 71 58 41 32 28 24 20 18 15 13 11 8 7 32 40 17 43 58 33 25 27 32 37 54
52 24 13 16 21 16 15 11 8 7 16 13 12 17 23 33 46 57 78 91 78 46 39 33 30 27 24 20 19 15 13 11 9 8 34 44 36 22 53 34 25 35 44 59 66
21 16 15 21 12 5 3 3 3 4 5 7 8 7 11 23 31 41 48 47 54 60 37 35 32 30 27 22 19 16 12 11 8 13 23 45 44 30 54 36 39 50 66 86 98
15 4 5 6 4 4 4 4 4 5 5 4 4 4 5 6 13 28 36 40 42 40 38 37 35 33 30 25 20 15 12 11 13 15 36 57 59 48 66 40 40 69 85 87 91
5 3 3 3 4 4 4 4 4 4 4 4 3 4 4 3 4 7 16 31 40 40 38 38 36 35 30 20 17 11 11 19 20 30 73 81 72 75 67 62 43 63 84 91 91
3 3 4 4 4 4 4 5 4 4 4 4 4 4 4 3 3 4 6 22 39 40 38 37 37 35 31 20 14 13 17 28 33 81 86 92 91 79 55 65 62 92 96 97 91
4 4 4 5 5 5 5 5 6 5 6 7 8 6 5 4 4 5 9 15 33 43 41 39 37 34 28 19 9 9 19 44 82 96 94 94 87 74 57 70 70 94 90 76 90
5 6 6 6 6 6 6 7 7 7 7 8 9 9 8 6 6 27 10 20 50 50 49 42 37 42 37 26 14 13 41 76 94 99 98 96 90 68 75 67 88 88 69 72 98
7 7 7 6 6 6 7 6 6 6 7 7 6 8 9 8 6 9 25 18 22 79 83 80 48 44 47 49 27 24 37 75 96 99 99 98 100 70 68 84 99 98 79 74 79
9 8 9 8 8 7 7 7 8 10 9 10 10 8 10 8 7 9 88 38 35 68 100 95 100 86 72 52 42 29 52 97 100 99 100 100 96 93 79 86 85 87 86 74 78
9 11 10 10 9 9 11 14 15 33 70 35 24 16 12 9 7 8 60 100 90 60 100 100 99 100 100 100 80 30 91 100 100 100 100 100 100 95 88 68 74 84 81 71 67
12 16 21 15 15 14 15 15 21 83 100 98 90 61 28 11 8 6 73 100 88 100 74 77 67 96 100 100 97 47 59 98 98 100 99 100 94 99 99 98 73 92 96 96 79
17 33 22 23 23 23 23 19 23 81 86 100 100 90 47 20 15 50 34 100 100 100 74 62 88 92 74 69 89 50 30 52 96 83 90 97 98 94 98 100 100 100 99 98 98
28 20 21 30 35 36 28 29 30 44 77 100 100 100 84 67 20 29 95 100 100 100 100 100 96 97 76 51 26 19 25 26 63 85 98 96 83 91 98 100 99 100 100 100 94

GFSSW_500_rhum_078.txt.gz
RH
49 45 44 40 36 30 30 28 30 27 26 26 22 24 30 28 29 30 39 46 47 59 63 61 57 59 49 42 36 35 29 24 22 20 10 6 6 8 6 5 4 4 6 7 7
53 50 48 45 41 40 39 39 36 30 28 28 24 23 26 34 30 26 33 37 45 46 53 76 72 69 65 54 44 39 35 28 20 13 8 5 6 6 5 4 4 5 6 8 7
58 58 58 57 53 51 45 34 32 30 30 31 26 25 26 31 30 29 31 37 41 46 52 55 67 74 81 70 53 40 34 28 19 11 7 6 6 6 8 5 5 7 7 9 8
58 54 53 51 52 55 47 36 34 34 35 28 30 29 31 31 32 24 31 36 46 50 50 52 73 79 74 79 56 45 36 32 23 11 7 6 6 6 5 5 7 7 8 9 8
54 52 50 45 44 41 37 35 37 40 35 30 30 33 30 30 28 24 26 34 49 52 54 56 60 83 92 90 53 41 32 25 20 13 8 6 6 6 6 6 8 7 8 8 8
57 54 49 45 46 44 41 44 48 39 32 29 32 33 29 29 24 26 34 43 56 60 68 85 91 95 93 87 46 54 22 21 17 11 8 8 7 6 7 7 7 8 10 10 9
56 55 51 46 47 45 48 48 42 36 32 32 29 30 31 32 36 47 57 61 66 73 85 100 97 92 94 95 64 44 29 17 13 11 10 9 8 7 8 8 8 9 10 10 10
68 63 56 50 50 55 46 44 40 42 42 38 35 33 39 41 46 59 63 64 72 87 100 100 97 98 99 98 65 32 31 16 13 12 11 10 12 10 12 13 12 14 12 11 14
67 60 57 55 57 59 54 55 54 50 46 40 36 38 41 48 56 63 65 74 71 92 97 96 96 98 76 65 60 51 54 37 15 14 12 10 10 9 11 12 12 10 8 8 16
76 70 65 69 82 79 60 59 56 52 47 46 45 46 46 54 70 75 77 80 84 89 94 96 87 76 96 62 94 72 46 32 18 17 14 11 11 10 11 12 9 7 8 12 26
89 85 88 81 70 74 67 64 54 58 55 51 48 52 55 65 83 80 78 75 81 95 96 90 71 80 61 93 66 88 61 34 30 32 27 16 13 14 13 10 8 8 8 18 29
93 86 82 71 65 70 71 62 55 57 63 56 54 51 47 54 78 80 76 76 78 85 84 95 74 50 84 90 96 88 84 97 93 63 41 27 27 30 14 10 8 8 11 23 28
89 84 81 74 65 70 67 63 56 58 57 49 41 37 36 36 44 47 49 78 84 86 95 85 99 63 66 55 61 60 65 39 39 64 69 54 34 15 13 11 9 8 19 21 24
97 94 86 77 70 70 66 61 55 54 51 45 34 25 23 24 28 28 21 24 40 73 93 98 57 81 90 67 59 70 72 72 91 94 27 18 17 15 12 13 11 10 22 22 33
98 91 94 82 74 66 64 60 54 50 38 28 22 16 15 15 14 13 16 19 26 40 64 70 100 90 98 87 79 87 93 69 57 27 20 17 16 13 12 12 11 16 22 25 38
100 100 97 89 78 68 61 60 52 36 29 24 21 17 11 9 10 10 8 9 15 37 52 56 62 98 99 95 93 81 73 54 29 20 19 16 15 12 12 15 10 20 23 34 48
100 100 98 85 65 65 64 44 33 26 17 15 14 12 11 9 8 8 8 6 5 10 38 53 47 55 99 97 84 83 48 31 27 24 21 18 14 13 14 15 10 27 29 37 41
96 99 86 77 62 40 23 15 11 14 14 15 11 8 9 11 8 8 7 6 5 4 7 30 53 55 66 88 95 97 67 33 27 27 27 22 16 14 19 27 28 47 45 46 41
99 96 64 35 24 10 6 7 7 10 15 15 10 10 7 7 7 7 6 5 4 4 4 6 27 48 55 70 79 65 56 36 30 25 23 18 17 16 27 40 52 58 55 56 36
88 63 32 11 6 6 6 9 13 14 14 13 10 9 7 8 5 5 4 7 10 10 4 5 13 20 45 54 56 70 56 38 42 28 19 32 29 45 50 55 74 75 69 57 34
85 13 6 6 6 7 14 20 18 15 12 10 7 6 5 5 5 5 6 5 4 10 7 6 6 22 38 69 60 60 43 36 29 32 17 41 58 96 84 76 92 89 87 68 37
8 6 5 5 6 12 22 19 12 8 5 5 5 5 5 5 5 6 6 7 7 4 9 33 41 69 43 37 50 61 70 62 58 44 39 66 75 97 100 99 99 94 93 74 41
6 5 5 6 17 23 16 7 6 6 7 7 8 8 9 10 10 8 8 9 21 21 19 17 37 65 81 59 37 49 86 71 56 30 38 86 99 86 100 93 98 98 100 80 52
6 6 7 17 23 12 7 9 9 7 9 11 13 14 15 29 64 30 12 10 41 11 32 72 27 47 94 97 91 96 72 64 56 55 52 82 93 100 99 99 99 100 92 89 79
6 7 13 24 14 9 11 13 11 17 17 13 15 18 63 72 78 89 93 13 43 24 12 52 87 27 22 77 100 100 98 78 54 50 83 96 100 91 87 93 99 100 91 79 78
8 9 24 22 9 9 15 15 15 25 29 13 15 26 76 50 81 77 94 92 52 56 12 100 100 73 18 100 100 100 100 98 70 52 83 100 100 94 86 81 96 98 98 94 88
9 11 22 11 10 10 18 19 20 23 35 30 14 26 39 78 87 100 92 100 78 36 60 100 100 79 60 98 100 99 96 99 94 86 55 91 100 100 100 88 95 96 94 98 100

GFSSW_500_rhum_081.txt.gz
RH
44 49 50 49 48 47 46 46 44 43 45 39 34 32 27 25 25 24 22 28 32 29 33 32 32 32 44 55 60 62 47 33 38 35 27 27 22 16 14 11 7 5 6 6 6
53 51 51 55 54 51 53 52 52 50 46 41 32 28 27 28 24 22 21 28 32 31 28 32 36 37 38 50 59 63 59 49 46 39 32 30 25 16 12 8 5 5 6 5 5
54 56 56 58 57 57 54 45 39 36 37 36 32 29 27 26 24 20 23 26 33 32 34 34 38 41 48 48 58 63 57 66 56 46 41 33 26 13 10 7 4 4 5 5 4
66 56 55 56 53 52 48 42 39 33 30 27 27 25 27 22 22 18 23 27 28 26 24 24 25 28 40 46 50 58 64 73 70 54 44 32 23 13 8 8 10 10 9 5 5
72 70 62 54 49 47 45 42 38 34 31 29 29 29 25 21 23 19 21 22 22 20 20 24 33 38 36 53 67 61 73 71 69 63 50 32 22 14 9 6 6 8 10 7 6
70 65 66 62 54 52 46 38 39 35 34 30 30 27 25 24 22 20 20 19 17 16 21 34 38 42 52 66 78 85 76 75 77 60 39 24 19 12 10 6 6 6 6 6 7
78 77 68 62 63 55 48 47 42 40 37 36 32 26 27 25 22 20 22 23 28 31 35 44 51 53 75 86 91 92 88 84 80 36 25 16 23 14 10 8 7 7 7 6 6
74 82 76 67 62 59 56 54 51 47 42 36 32 28 26 31 31 33 36 36 34 34 39 44 56 76 100 95 89 78 79 89 83 70 25 37 38 13 9 9 8 8 8 8 8
87 84 82 72 72 68 62 58 55 53 42 38 39 37 37 38 40 42 42 36 36 43 46 55 66 90 100 97 98 98 92 94 66 46 48 52 34 12 13 11 10 8 9 12 14
99 95 91 83 71 70 67 64 60 48 49 51 50 49 44 41 37 38 41 40 42 48 56 59 66 83 96 98 94 100 97 82 87 56 75 42 30 26 12 10 10 10 11 12 10
99 94 95 92 85 80 74 72 70 69 64 58 52 46 36 41 39 40 44 47 57 64 70 68 69 81 94 95 95 99 76 72 92 82 65 67 60 32 13 10 10 10 11 8 6
96 98 95 91 94 93 87 81 82 68 59 57 51 47 45 42 41 36 34 36 42 61 67 70 70 86 93 63 93 97 96 89 93 98 79 70 45 28 25 22 21 13 10 8 8
97 98 93 96 100 98 95 83 72 70 62 55 50 49 47 44 38 31 25 27 39 50 50 77 90 82 91 95 84 99 89 97 84 68 75 71 75 53 34 19 21 22 11 10 8
99 96 97 97 97 98 87 75 71 69 58 50 47 41 38 32 27 24 20 19 23 29 41 37 48 78 98 78 98 79 96 90 90 94 68 100 99 92 80 63 19 13 11 11 11
98 97 99 97 100 93 86 79 71 66 49 49 42 33 28 24 22 19 17 16 17 18 20 39 52 46 62 99 66 94 64 71 69 81 91 71 83 59 48 22 16 14 13 11 14
100 98 100 98 97 92 86 78 72 58 52 45 32 26 23 21 20 19 16 13 10 11 8 9 25 45 51 79 96 98 99 97 98 85 90 64 32 72 100 56 15 12 11 11 21
98 99 100 99 98 92 84 76 60 53 42 32 22 17 16 16 18 18 16 15 11 9 26 61 21 22 51 49 69 96 100 89 100 88 74 99 58 66 100 21 14 13 12 12 19
100 100 97 100 99 97 86 70 53 37 24 13 13 14 16 16 18 16 13 11 9 10 9 23 100 94 35 56 64 89 99 99 100 100 100 100 91 99 39 19 16 15 10 23 26
100 100 97 99 100 97 68 46 30 14 12 12 14 17 19 18 18 15 13 11 8 60 23 98 100 74 38 23 55 75 99 81 94 75 57 44 47 100 25 18 18 20 16 37 35
100 100 99 98 90 58 22 10 13 11 15 21 24 23 22 14 18 15 15 18 10 9 12 15 73 100 98 19 23 48 76 100 91 84 82 74 94 99 86 46 26 27 45 52 53
98 100 96 98 70 14 7 6 9 15 22 22 19 15 12 10 8 8 9 27 13 28 50 49 63 63 100 50 37 58 58 90 91 88 100 96 100 93 78 72 46 39 48 63 61
100 98 89 46 13 6 5 10 21 24 17 11 7 5 4 4 4 5 5 6 28 9 31 61 66 58 99 100 100 94 59 96 100 76 75 81 85 89 95 89 70 80 78 73 64
95 68 30 8 6 6 13 24 22 14 8 6 5 5 4 5 7 8 8 8 9 8 56 45 33 72 94 99 100 44 23 53 83 98 97 99 100 84 75 96 96 77 85 92 83
64 17 6 6 6 12 23 20 13 8 7 8 8 6 8 11 12 16 46 35 11 11 17 52 17 56 91 100 99 100 80 34 65 89 96 92 86 76 98 99 96 82 94 95 94
17 8 7 8 12 23 24 11 9 10 13 14 10 10 10 12 14 34 80 99 93 77 11 62 36 33 66 82 90 75 99 97 98 100 73 97 79 82 79 81 89 97 100 95 97
10 8 8 8 16 27 13 10 10 17 20 17 14 18 17 12 41 49 54 87 94 88 57 60 34 100 70 57 72 63 93 100 90 64 52 56 97 100 77 83 76 78 97 100 97
11 9 9 13 24 24 11 11 16 23 24 22 20 18 23 12 24 44 66 82 59 98 98 89 56 100 64 97 50 40 100 99 100 95 78 66 61 67 78 86 76 74 93 97 99

GFSSW_500_rhum_084.txt.gz
RH
49 43 37 36 41 42 43 39 37 40 42 45 47 43 41 40 34 26 24 23 22 18 18 21 23 33 32 32 34 40 28 23 46 46 41 46 44 48 31 24 23 22 20 18 21
55 55 58 54 52 51 47 48 48 46 45 52 45 38 34 34 30 24 21 20 16 16 16 18 19 27 32 36 38 35 28 31 50 60 58 55 57 46 39 32 28 22 17 16 15
66 64 64 66 60 57 56 53 53 53 52 46 41 34 28 26 24 20 21 20 16 14 15 16 20 26 25 27 29 32 18 31 35 55 67 62 54 50 40 36 32 28 18 13 12
79 75 65 63 68 67 60 52 52 51 47 45 40 34 29 27 24 19 20 18 18 14 16 18 20 21 22 21 24 20 18 21 28 49 59 64 64 57 50 42 32 28 22 13 8
85 83 76 69 64 68 65 61 55 53 49 47 41 35 30 28 26 22 20 18 19 18 19 19 18 16 16 17 24 25 22 26 29 49 64 71 67 68 60 40 28 26 16 14 8
86 85 86 76 75 69 67 70 61 57 54 50 43 40 36 34 27 24 23 20 19 18 17 17 17 16 13 15 15 31 27 27 31 32 58 76 72 63 56 47 28 22 16 9 7
81 76 78 84 87 77 71 70 69 63 61 54 47 43 41 41 33 28 26 23 25 22 21 18 16 15 17 23 38 38 42 60 74 80 88 75 71 72 64 36 27 18 12 8 7
76 72 68 70 78 87 83 75 73 69 63 57 54 48 45 42 36 32 29 28 23 19 17 19 19 23 34 40 45 51 61 74 76 81 78 67 54 54 48 27 21 14 12 8 7
91 86 83 81 79 81 85 85 76 74 63 62 59 52 48 43 38 33 28 26 26 23 22 29 30 29 37 49 48 64 70 89 77 79 87 99 63 71 66 33 29 23 18 8 8
97 97 97 92 92 90 87 82 72 69 72 68 63 62 47 39 38 32 28 27 27 32 31 30 31 32 47 63 50 76 75 76 75 86 98 96 70 80 44 64 45 24 28 12 9
92 96 98 96 97 98 94 88 85 80 71 69 66 58 43 39 35 34 37 38 35 31 27 24 24 40 57 57 51 57 68 67 79 87 97 82 82 65 61 41 72 21 13 12 12
92 98 96 94 96 97 95 91 92 89 87 82 66 51 46 45 44 44 42 38 33 29 25 24 20 39 47 64 72 69 75 68 72 84 91 81 97 74 63 80 54 65 16 10 10
100 97 96 90 97 97 96 95 98 93 94 79 64 59 54 47 45 43 40 35 29 24 21 20 23 24 32 48 74 82 86 78 72 84 85 92 90 82 80 84 81 70 31 13 11
86 92 98 97 97 95 97 100 99 97 97 77 59 49 44 40 37 32 26 24 22 19 18 17 20 26 36 50 42 58 84 84 87 87 85 91 86 84 100 97 98 81 33 40 42
93 100 98 97 97 98 100 99 99 96 89 66 56 48 43 39 33 30 24 22 19 18 16 14 15 17 20 39 51 44 72 83 81 93 77 74 90 69 65 96 93 97 88 57 59
99 100 99 97 97 98 99 97 99 94 81 66 57 50 41 33 26 26 19 18 18 18 16 14 11 11 11 11 34 48 74 77 79 98 82 70 97 77 95 92 98 98 89 82 20
99 99 100 99 100 98 98 99 99 99 85 67 57 46 33 21 19 19 18 18 17 16 16 44 41 43 31 32 16 27 43 78 84 100 89 90 92 93 88 98 98 99 42 16 13
99 98 99 100 100 98 98 99 100 96 83 56 34 27 19 13 15 15 15 15 17 16 16 57 66 100 94 52 60 23 28 54 97 92 78 100 98 98 68 97 80 62 16 14 14
100 100 100 98 100 97 100 100 97 91 44 27 14 13 14 17 16 16 18 19 18 15 100 96 98 98 87 75 81 35 20 71 87 87 89 99 94 96 94 77 72 24 15 18 25
99 100 100 100 100 100 100 98 91 56 18 12 12 16 20 21 20 17 16 14 15 20 22 27 32 26 52 88 89 58 25 51 99 90 93 76 99 95 93 94 65 21 13 17 25
100 100 100 100 100 99 94 87 56 16 11 12 17 21 20 18 14 10 8 6 6 10 33 24 17 22 44 82 100 60 39 12 34 91 97 99 98 100 99 100 94 49 22 20 46
100 99 100 100 99 86 66 30 18 10 13 22 22 17 13 9 6 4 4 4 4 6 19 43 27 42 56 80 96 100 89 70 75 81 95 90 98 100 97 100 72 68 47 27 54
99 100 100 100 71 48 24 12 9 13 23 22 16 10 7 4 5 6 6 5 4 5 14 9 33 51 60 81 86 98 78 98 85 67 95 100 100 100 99 81 89 98 92 70 66
100 97 81 72 50 25 6 8 15 23 20 14 10 6 6 9 11 9 6 7 10 23 24 17 67 54 58 100 100 97 80 97 82 61 64 93 100 99 84 97 100 100 99 88 84
96 89 62 16 9 7 9 16 25 19 12 10 7 7 12 16 13 13 10 10 36 60 77 91 47 72 39 80 100 99 99 100 94 66 61 81 99 83 80 88 100 98 96 100 94
90 44 44 14 8 8 13 25 25 15 10 8 10 13 20 22 16 17 14 15 25 58 78 98 64 57 68 34 99 100 100 98 89 100 82 100 98 82 68 79 100 100 83 91 98
44 19 17 11 9 13 24 27 19 10 10 10 10 17 28 27 22 19 14 17 46 45 39 97 100 96 40 65 28 78 69 71 100 99 100 97 80 69 72 62 84 100 99 91 90

GFSSW_500_rhum_087.txt.gz
RH
48 43 40 36 44 45 38 36 39 41 43 39 35 32 33 36 40 38 35 32 30 27 22 22 20 17 12 17 21 21 13 15 26 30 35 46 52 52 47 39 42 53 62 42 33
56 47 48 59 59 56 53 49 52 52 49 46 44 44 41 39 42 38 32 28 24 23 22 20 18 18 14 19 16 17 14 18 30 32 33 36 48 57 56 45 38 37 43 43 30
67 63 60 61 62 68 70 66 62 60 53 49 49 47 45 42 39 36 33 29 25 24 22 20 17 16 14 15 20 20 9 22 23 24 22 18 24 43 47 52 55 46 39 43 37
85 79 79 83 82 78 78 75 68 67 60 60 52 49 48 46 44 36 36 32 29 25 22 20 19 17 14 16 23 15 15 16 20 26 24 21 27 28 43 43 60 59 57 49 43
93 90 90 92 94 93 85 78 74 68 65 63 57 52 49 47 49 43 40 33 30 29 26 22 21 19 19 16 17 16 17 14 13 13 12 12 10 27 27 50 56 63 60 54 47
97 97 96 96 96 98 94 91 82 81 74 66 63 57 50 50 42 43 42 36 33 32 30 28 24 24 22 18 16 16 14 13 11 11 8 7 10 46 44 64 68 65 61 50 35
95 94 96 95 96 96 96 90 81 74 73 69 64 59 57 56 46 44 49 42 38 36 34 32 28 24 22 18 17 14 11 10 10 13 21 48 35 40 56 75 79 74 55 41 37
90 94 95 94 92 88 86 85 82 82 78 73 68 66 65 57 54 44 46 49 45 41 36 33 28 23 20 16 14 11 14 15 31 48 42 77 54 58 67 68 62 72 82 73 37
94 94 96 96 97 88 84 83 86 84 84 82 74 68 65 64 60 58 52 48 43 38 32 28 23 20 19 17 14 26 22 34 17 38 52 77 69 47 58 62 70 72 64 67 71
97 96 96 98 97 95 96 78 86 90 87 89 79 72 66 66 66 61 55 47 38 31 29 26 21 19 24 20 20 28 32 28 29 35 70 60 52 57 64 73 73 74 72 78 55
100 98 97 96 97 98 96 96 89 87 79 84 79 75 76 77 70 63 50 38 31 27 29 26 21 26 23 22 21 21 19 16 20 49 84 61 56 65 89 98 89 74 52 77 48
89 97 80 94 92 95 94 90 98 93 87 92 88 88 84 82 69 52 42 35 33 34 34 31 26 26 22 20 17 15 17 19 24 60 76 62 54 60 86 81 74 69 65 56 56
8 43 45 61 68 80 83 81 96 94 93 96 95 87 94 77 58 48 43 39 38 40 36 27 22 20 18 15 14 16 28 24 36 51 62 66 50 58 64 73 73 71 71 75 70
32 91 96 87 70 89 86 100 100 97 97 97 100 97 90 72 56 46 42 39 35 27 23 23 19 16 14 14 17 10 23 29 44 50 54 69 41 51 63 73 93 90 90 90 71
49 89 72 31 75 89 100 99 100 94 98 93 94 90 80 62 48 38 35 31 28 25 22 19 16 14 15 14 13 13 14 17 37 50 60 57 64 40 65 72 100 82 76 85 96
71 67 67 85 100 98 98 100 98 99 100 89 92 84 69 56 50 44 35 32 26 20 17 17 16 16 15 13 14 13 14 12 19 40 51 80 56 90 73 75 65 96 84 75 57
100 83 100 85 100 100 99 98 99 100 99 94 77 81 76 52 43 44 37 24 18 18 17 17 16 15 17 15 22 35 43 26 15 29 47 74 71 99 98 90 75 94 97 98 95
96 100 100 100 98 99 99 98 99 97 92 89 88 86 70 36 27 20 25 17 16 17 14 13 11 34 19 14 16 25 46 44 20 26 59 78 54 88 97 96 91 98 99 100 100
100 100 100 100 99 99 99 100 99 98 98 96 99 93 25 15 24 22 18 19 24 17 15 16 12 13 19 32 30 36 63 64 26 23 56 69 97 94 96 99 98 99 97 85 58
100 100 99 100 100 99 100 99 100 100 100 99 75 67 27 20 19 19 18 19 16 14 12 15 12 14 34 42 51 24 83 57 60 62 84 88 98 100 98 99 97 99 96 46 24
100 100 98 100 100 100 100 99 100 96 85 63 35 20 15 20 20 20 17 14 8 8 6 6 6 6 20 75 58 36 37 63 55 51 43 69 91 95 100 97 94 96 96 82 29
100 100 100 100 100 100 100 100 95 72 57 32 23 19 22 21 20 16 10 7 6 5 4 5 5 4 3 35 64 50 100 99 96 50 43 72 76 96 98 96 97 100 98 94 60
100 100 100 100 100 100 97 71 38 23 16 15 20 22 21 18 13 9 6 5 4 7 7 6 6 5 4 6 53 64 65 91 74 71 100 100 90 98 99 98 98 98 95 96 81
100 100 100 100 100 88 48 36 17 10 14 19 22 18 15 12 8 5 5 6 10 11 9 7 5 9 6 11 58 92 90 100 68 96 86 92 94 97 95 87 100 96 94 97 100
100 100 100 98 88 67 46 20 10 13 19 22 17 16 12 7 5 5 9 15 15 14 10 9 32 69 38 21 86 100 90 100 63 73 92 97 71 62 90 99 100 99 100 99 95
100 99 94 74 31 11 13 15 12 20 26 22 16 13 7 6 6 10 21 21 16 13 14 25 31 52 92 36 67 99 85 83 100 98 91 58 100 85 63 99 99 100 99 100 98
100 98 90 66 47 20 16 17 19 28 22 17 14 8 7 8 12 15 17 16 12 20 26 32 41 44 82 97 46 71 100 100 100 100 74 75 100 89 74 84 95 98 97 98 98

GFSSW_500_rhum_090.txt.gz
RH
61 60 56 56 55 47 39 37 38 45 40 36 36 40 42 40 36 33 32 33 35 35 35 30 26 26 25 23 19 17 11 9 11 16 17 36 32 46 46 39 44 42 41 41 41
68 72 69 62 63 55 46 50 59 60 59 56 51 49 47 47 44 42 40 42 42 43 38 32 26 22 22 23 19 18 15 12 14 14 13 17 26 48 38 35 46 53 48 44 39
78 81 81 72 70 67 58 64 67 67 68 68 63 60 50 49 50 48 46 47 47 45 42 38 33 27 25 22 22 20 17 16 14 15 16 16 18 26 42 43 54 48 54 50 49
88 96 95 88 84 82 83 82 80 83 80 74 70 63 59 58 58 47 50 49 45 44 45 44 38 31 29 26 25 19 18 17 15 17 16 16 16 17 21 26 44 53 57 59 56
91 93 98 99 94 90 93 95 94 90 79 74 72 67 61 61 62 52 51 48 45 44 42 41 41 35 32 30 28 22 23 19 17 16 14 14 14 12 12 16 20 32 50 62 67
100 83 92 94 98 96 95 95 93 92 85 79 75 68 66 71 61 60 56 52 47 43 42 42 42 36 33 32 30 29 24 21 19 16 14 14 11 10 12 24 26 45 64 78 77
90 71 72 97 98 97 95 96 96 97 94 86 81 74 74 80 62 63 63 62 54 52 47 47 44 41 40 39 34 29 25 20 18 16 10 22 6 7 8 13 11 25 41 54 78
73 93 87 99 95 95 92 96 90 96 95 87 82 72 72 76 71 59 64 67 60 57 56 50 48 48 44 37 32 27 23 19 24 17 12 24 6 8 13 20 26 28 45 65 71
86 97 99 93 96 97 91 97 95 94 97 95 94 80 83 72 71 68 59 61 62 58 62 59 53 46 37 30 25 23 17 14 13 20 15 25 11 7 14 35 41 45 46 56 63
77 94 95 94 99 95 100 98 97 97 96 95 92 84 78 67 64 74 67 62 64 65 63 56 47 37 32 26 24 21 16 12 11 20 24 12 12 9 15 30 34 28 36 57 75
6 21 99 71 96 90 97 99 98 89 97 98 77 91 77 70 66 69 68 73 73 69 58 49 39 36 29 27 23 18 17 16 14 13 12 8 8 6 21 44 46 42 57 70 80
7 7 20 35 30 66 87 97 100 94 83 85 91 67 56 62 82 89 80 76 72 62 49 40 39 37 30 26 21 20 18 15 11 9 7 6 4 15 36 43 58 58 65 84 74
10 9 9 12 50 28 19 42 63 58 48 70 73 69 73 79 90 99 93 88 72 54 45 39 40 34 27 23 22 18 14 11 9 6 5 7 6 16 43 55 54 63 88 94 88
12 11 17 53 27 23 38 57 99 94 62 70 72 71 97 94 98 100 98 83 63 52 44 37 35 28 24 22 16 14 12 9 6 7 6 5 12 21 51 50 58 68 69 70 74
19 14 22 38 27 18 76 95 97 83 99 100 97 98 97 100 98 94 90 69 55 43 36 26 25 24 20 17 13 11 10 8 7 8 7 5 29 23 57 54 61 62 64 65 98
25 14 14 16 61 34 100 85 77 100 97 99 99 100 99 99 98 97 79 60 46 36 33 28 29 26 17 14 12 10 10 9 9 11 8 13 17 15 71 84 100 95 74 97 88
66 98 77 79 94 98 100 96 62 100 95 92 99 100 99 100 96 95 87 59 55 49 42 35 24 19 17 16 14 12 13 12 11 12 10 17 11 28 68 99 100 97 99 97 98
88 75 99 99 100 100 100 100 100 100 98 92 95 100 100 94 96 95 55 44 52 58 37 30 22 18 17 18 16 14 18 19 28 25 12 18 18 52 73 98 96 99 93 98 98
96 100 100 100 100 100 100 100 97 99 100 100 100 100 97 89 92 83 57 37 39 32 27 28 25 17 16 14 14 17 16 70 54 26 28 19 20 92 94 97 99 100 98 98 98
100 100 100 100 100 100 100 100 99 100 100 100 100 100 100 96 86 47 21 23 25 22 18 20 22 15 14 13 14 13 30 100 66 42 26 25 42 98 97 98 94 99 99 98 86
100 100 100 100 100 100 100 100 100 100 100 100 100 100 98 92 75 43 24 24 23 25 22 15 16 17 9 14 11 29 28 59 59 52 37 26 33 51 88 99 100 98 99 96 80
100 100 100 100 100 100 100 100 100 100 100 100 100 79 47 32 22 28 30 23 19 14 8 7 6 6 5 4 6 73 96 68 93 83 84 45 33 47 91 100 100 99 98 100 99
100 100 100 100 100 100 100 100 100 100 97 86 60 64 60 63 55 32 20 17 13 7 6 5 5 4 4 4 5 10 71 95 67 78 87 100 56 98 94 100 99 100 100 98 96
100 100 100 100 100 100 100 98 90 77 61 55 60 56 42 32 23 18 13 9 6 4 5 4 7 10 8 7 6 5 7 93 97 62 69 85 53 78 87 99 100 100 100 96 98
100 100 99 100 100 100 85 61 56 55 64 47 36 26 23 19 18 14 7 5 5 8 8 10 11 9 9 9 8 7 6 60 97 57 100 73 99 100 92 98 96 99 94 100 90
100 99 100 100 100 79 74 91 59 22 17 18 27 24 21 18 11 6 4 5 7 15 16 12 11 22 22 22 40 24 8 25 74 66 87 100 100 92 100 81 57 95 86 100 85
100 100 99 92 97 85 40 35 34 23 25 27 26 20 16 10 6 6 6 8 12 13 16 20 39 62 49 57 84 84 29 52 99 94 100 100 84 71 96 100 90 74 96 91 90

GFSSW_500_rhum_093.txt.gz
RH
48 46 44 47 53 55 64 58 55 52 44 37 36 34 35 36 36 41 46 45 40 39 36 35 35 34 36 35 29 25 23 19 19 21 18 24 18 30 26 21 44 54 42 38 36
59 57 58 58 60 69 70 70 63 62 52 45 46 54 49 51 53 54 51 51 48 45 44 44 44 42 43 38 33 30 23 20 21 21 19 18 17 26 19 22 40 53 46 49 43
32 62 65 68 75 77 79 79 76 72 61 55 65 64 61 64 69 65 56 56 53 54 51 51 49 48 46 41 40 36 29 27 24 23 21 18 18 19 19 18 24 45 53 48 53
8 32 66 79 81 83 94 95 90 80 76 65 61 68 63 64 74 62 61 65 63 59 57 53 51 47 43 40 43 36 34 32 28 28 25 21 17 17 17 18 25 31 58 45 46
3 6 33 65 77 94 96 96 96 96 91 75 74 76 73 72 88 66 70 66 62 59 56 51 46 42 40 38 38 34 35 33 31 30 28 25 22 18 16 20 31 34 57 59 49
4 4 14 26 45 83 94 100 96 91 96 92 83 78 75 79 89 81 79 74 67 65 62 58 52 47 44 43 42 40 33 35 36 35 31 26 22 20 16 16 15 16 21 35 55
4 4 4 42 30 62 90 85 92 97 89 92 90 82 74 100 83 77 85 83 84 73 65 60 53 47 45 50 46 42 42 40 42 36 31 27 22 18 15 12 12 16 17 19 26
4 4 4 4 33 52 54 89 76 87 84 84 84 72 61 99 81 87 78 87 75 69 64 60 56 50 50 54 50 47 45 44 39 34 29 25 19 22 16 8 6 6 9 17 21
4 4 4 4 6 49 83 65 88 99 86 63 71 68 72 85 95 88 82 84 68 58 60 56 55 54 58 57 53 52 46 40 33 31 25 21 15 9 8 7 6 6 6 6 8
4 5 4 6 11 23 61 79 79 98 92 79 66 65 70 81 93 95 89 74 68 55 48 53 44 54 67 61 49 47 42 35 27 30 22 16 10 8 7 6 5 5 4 5 7
7 7 8 9 10 11 63 100 100 92 56 97 73 99 91 87 90 84 74 61 53 62 65 62 43 67 64 58 54 44 33 26 25 20 16 14 8 7 5 5 5 4 4 4 14
15 14 13 12 11 10 60 99 91 95 93 86 87 98 97 91 95 91 76 68 52 68 71 66 67 68 61 53 46 37 29 25 22 20 14 11 8 6 5 5 4 4 4 7 22
14 16 16 12 13 12 29 100 68 100 92 72 58 83 96 82 69 58 59 70 59 76 84 82 74 67 55 47 39 34 29 24 20 15 11 9 8 7 6 5 12 19 23 26 31
39 40 45 77 16 17 25 26 65 97 90 28 53 40 68 65 64 76 82 91 94 100 93 82 69 67 53 44 39 33 24 21 16 13 10 10 9 7 6 5 9 36 44 47 41
44 62 67 23 17 32 33 69 100 100 97 84 69 50 80 70 76 92 97 96 100 100 90 76 59 54 46 33 27 26 20 17 13 10 11 12 21 7 6 4 7 22 55 76 54
100 100 72 29 39 21 100 66 92 57 68 100 88 67 69 84 87 100 93 95 97 96 91 68 48 45 28 25 24 24 19 14 11 11 12 12 13 8 6 4 5 25 54 89 80
100 92 98 100 70 61 60 47 84 93 91 93 93 86 98 100 100 100 100 96 92 88 86 64 55 38 37 42 26 18 17 16 15 15 13 14 11 8 5 7 7 31 89 98 79
100 100 99 99 100 100 80 85 79 86 97 99 97 100 100 100 100 99 100 97 94 99 85 71 48 59 45 22 20 18 18 21 18 17 15 11 11 9 11 20 17 58 75 91 85
87 78 96 92 99 100 98 94 95 100 100 100 100 99 100 100 100 100 98 93 98 98 91 85 72 32 25 20 20 22 25 30 29 15 14 16 16 13 20 26 51 97 96 79 93
93 99 99 96 100 100 100 100 100 100 100 100 100 100 100 100 100 100 100 94 96 98 93 60 40 26 21 19 18 17 16 18 22 20 23 20 19 14 22 36 79 87 80 95 100
98 90 100 97 97 100 100 100 100 100 100 100 100 100 100 100 100 99 94 80 66 59 48 41 42 33 24 19 16 16 14 15 15 42 36 32 14 31 38 37 85 96 98 99 100
80 82 83 93 95 100 100 100 99 100 100 100 100 100 100 100 100 97 87 82 69 44 44 35 45 39 29 12 6 6 5 6 17 99 73 28 21 34 55 47 90 92 97 98 100
82 86 83 96 100 100 100 100 100 100 100 100 100 100 100 100 93 57 37 68 96 76 48 22 19 17 12 8 5 5 4 4 4 6 16 42 31 51 49 66 90 100 99 100 98
81 91 96 98 100 100 100 100 100 100 100 100 100 100 94 75 68 88 94 70 26 13 12 12 10 6 4 4 4 4 5 7 7 5 10 28 23 60 64 59 81 98 100 100 100
100 100 100 100 100 100 100 100 100 100 97 88 74 69 81 86 75 52 31 17 16 15 8 4 4 4 4 6 6 6 6 8 8 6 5 27 38 31 57 97 100 93 98 98 96
100 100 100 100 100 100 100 100 89 62 68 77 81 66 66 44 25 17 16 14 7 4 4 4 6 8 9 10 16 21 15 11 7 7 6 6 26 42 62 98 100 100 100 100 100
100 100 100 100 100 100 88 68 93 90 72 61 53 44 31 23 19 17 8 5 5 7 8 8 11 12 14 36 73 55 33 57 66 11 7 7 22 77 74 95 94 100 100 100 100

GFSSW_500_rhum_096.txt.gz
RH
5 10 23 35 44 45 50 48 40 42 46 52 54 52 51 45 38 37 37 35 35 38 42 46 43 39 37 36 34 35 31 32 33 30 26 26 23 23 21 19 18 20 16 17 23
3 3 3 5 9 23 40 54 55 44 46 53 54 59 56 53 48 51 57 51 47 50 48 50 49 47 43 44 42 45 38 40 39 35 32 29 27 27 24 21 20 23 25 21 20
4 4 4 3 3 6 11 42 51 61 56 55 63 68 62 60 59 61 58 62 63 62 63 57 53 51 51 50 52 48 44 46 40 40 39 36 32 30 27 25 22 22 30 24 23
4 4 4 3 3 3 4 15 40 44 59 61 63 72 72 70 67 71 62 72 76 71 67 65 62 61 56 53 54 49 48 45 43 40 36 37 36 36 32 29 26 22 24 33 27
7 6 6 6 5 4 4 5 25 23 43 62 74 79 78 73 90 75 73 77 82 82 78 71 67 62 60 56 53 46 42 39 36 36 41 36 32 31 32 31 27 24 23 23 32
8 7 6 6 6 5 4 4 4 12 24 31 62 70 77 67 98 88 78 90 88 87 82 80 71 64 60 58 55 49 45 43 41 43 40 38 35 33 35 34 30 26 23 20 18
10 8 7 6 6 6 5 4 4 4 9 13 34 53 39 79 87 84 97 98 92 96 88 79 71 69 64 62 56 54 49 45 45 51 44 38 31 37 37 33 28 24 20 20 23
11 9 8 8 7 8 7 8 4 4 4 4 12 52 21 84 83 82 79 82 89 86 92 80 70 63 63 62 54 51 46 46 55 51 43 38 35 37 37 32 28 26 22 19 15
11 11 11 10 9 8 6 26 6 11 11 5 4 8 20 52 76 85 79 94 76 67 82 83 73 69 61 58 54 48 51 51 49 49 47 41 35 36 35 27 23 19 10 7 6
13 12 10 10 9 8 7 20 10 90 96 14 21 16 17 26 54 69 69 88 80 94 74 75 72 58 54 59 47 53 34 28 44 54 48 42 38 31 25 18 12 9 7 6 5
9 8 7 6 6 7 10 14 71 86 100 35 99 54 40 57 67 79 60 81 89 96 100 93 64 55 71 54 44 41 50 59 59 51 46 40 35 23 16 11 9 7 6 6 5
5 5 6 7 6 8 11 16 55 98 71 99 96 67 97 92 69 67 84 91 100 100 89 74 56 63 55 48 46 47 56 61 51 44 43 32 27 19 12 9 8 7 6 6 5
6 7 7 8 7 8 9 17 18 17 96 84 75 96 100 99 95 100 88 98 98 96 86 78 58 65 61 48 52 68 65 53 47 39 33 28 24 14 9 9 8 7 7 6 4
7 7 7 7 15 18 33 35 20 17 15 13 30 98 97 99 92 100 97 98 90 96 83 62 56 76 74 64 76 75 56 48 41 37 30 22 23 13 10 11 10 8 7 5 4
6 7 17 28 50 46 73 98 79 41 62 53 34 19 78 78 72 97 100 94 90 100 96 76 81 88 92 90 80 70 52 48 39 29 24 18 13 16 12 11 9 6 5 4 3
26 46 90 100 63 78 100 95 71 78 60 82 40 30 26 68 66 91 97 95 98 96 90 99 96 93 85 80 68 77 63 40 34 24 22 15 15 21 14 11 9 7 5 5 5
100 100 91 91 99 100 100 82 100 74 87 97 83 62 64 94 92 100 100 99 97 87 81 100 100 100 99 95 76 66 55 36 46 61 40 22 18 16 14 12 10 6 6 6 12
100 100 100 100 100 100 100 100 99 80 85 59 57 66 74 92 100 100 100 95 100 100 100 100 99 100 100 89 69 69 89 86 48 30 27 19 19 17 17 15 11 8 7 11 43
85 87 82 96 100 100 100 96 92 96 98 100 100 100 100 100 100 100 96 94 100 100 100 100 96 97 85 93 100 94 64 43 34 29 30 26 20 18 16 15 11 10 12 74 62
70 85 82 81 100 100 99 83 100 100 100 99 100 100 100 100 100 99 100 100 100 100 100 100 100 100 98 88 67 69 65 56 33 25 20 21 19 15 12 10 12 18 18 85 81
56 84 100 98 93 100 92 96 100 100 100 100 100 100 100 100 100 100 100 100 100 100 100 100 100 97 96 87 70 45 39 33 25 19 16 18 17 16 14 10 15 25 25 80 96
83 76 86 93 83 77 84 97 99 100 100 100 100 100 100 100 100 100 100 100 100 100 94 88 95 69 42 47 76 60 28 24 21 20 16 22 16 14 13 13 8 30 43 95 99
93 93 81 79 78 70 71 95 100 100 100 100 100 100 100 100 97 98 100 100 100 99 88 66 60 48 54 53 40 38 18 10 8 7 6 6 6 8 9 9 10 62 69 97 100
100 99 87 86 79 87 95 100 100 100 100 100 100 100 100 100 100 100 99 89 87 91 99 95 77 58 24 12 12 10 7 4 4 4 4 4 4 4 4 4 10 51 88 100 99
100 100 97 97 97 100 100 100 100 100 100 100 100 100 100 100 100 98 98 96 96 76 53 32 20 16 10 6 5 4 4 5 5 4 5 3 4 4 4 4 11 53 100 100 100
100 100 100 100 100 100 100 100 100 100 100 100 100 100 98 96 95 97 96 92 66 24 17 16 11 5 5 5 4 4 6 6 8 7 8 7 4 5 5 4 20 44 98 100 100
100 100 100 100 100 100 100 100 100 100 99 97 100 99 97 94 93 69 27 16 17 14 8 4 4 4 4 6 7 7 12 21 21 37 56 71 54 7 5 5 13 68 98 100 100

GFSSW_500_rhum_099.txt.gz
RH
4 3 4 4 4 3 3 4 5 7 9 21 32 42 45 41 42 46 49 51 44 41 40 39 38 37 40 43 41 38 31 28 35 41 44 42 38 35 31 25 24 23 21 20 20
4 4 4 4 4 4 4 4 4 4 4 5 13 26 37 48 52 56 57 54 54 48 47 48 48 48 46 50 46 44 38 40 41 44 43 46 45 43 39 37 33 29 25 23 22
7 8 8 9 8 7 6 6 6 5 4 4 4 5 18 38 45 66 67 64 62 56 56 56 53 56 55 54 52 46 42 48 45 52 50 48 47 44 41 38 40 36 32 28 25
9 10 11 12 11 10 8 7 6 6 6 5 5 4 4 12 37 63 63 71 72 66 66 62 66 66 63 59 60 51 55 56 53 52 49 47 42 42 34 35 37 33 32 30 27
13 13 13 14 13 12 11 9 7 6 6 6 6 5 5 4 30 46 52 68 78 79 74 76 78 79 74 72 70 65 62 61 58 53 50 46 44 39 41 46 40 38 37 35 31
16 13 13 12 12 12 12 11 9 8 6 6 5 6 5 5 24 24 38 53 70 80 83 84 87 83 77 78 79 72 66 62 58 58 53 48 44 41 46 48 46 43 40 37 33
18 19 18 14 14 15 16 15 10 9 8 6 5 5 5 7 14 16 15 44 56 70 75 75 83 83 79 78 75 74 66 65 64 62 51 47 42 43 42 46 44 41 38 35 32
20 23 22 20 21 23 21 18 11 8 7 6 6 5 4 4 7 9 11 16 40 67 76 72 74 72 73 81 81 78 65 59 60 58 50 40 34 39 46 44 42 40 37 33 31
24 28 27 25 22 17 14 10 8 7 6 5 6 6 5 6 6 10 11 25 57 42 57 65 61 73 66 63 91 83 72 62 56 53 45 37 33 40 47 44 41 38 34 30 27
27 28 26 21 16 11 6 6 6 6 6 6 5 6 9 12 9 13 34 58 49 65 55 47 63 70 64 83 91 90 66 52 44 47 46 34 30 37 49 46 40 34 31 26 21
28 26 16 10 7 5 5 5 6 8 8 8 9 12 64 82 77 50 41 96 84 64 43 73 59 40 86 96 73 74 71 57 46 56 35 36 28 45 48 42 33 26 22 18 12
19 10 6 5 5 5 5 7 7 8 8 7 8 9 13 21 71 96 91 96 88 78 100 94 51 57 100 95 78 76 57 51 48 49 35 38 40 48 44 35 26 20 16 12 9
10 6 5 5 4 5 6 6 5 7 12 6 8 9 12 66 90 94 99 99 99 98 99 100 99 100 98 94 80 72 63 70 61 57 54 44 48 49 37 27 22 17 12 9 9
5 5 4 4 5 4 5 6 9 15 95 12 22 24 17 15 47 62 90 96 98 83 100 93 89 100 100 97 89 84 79 77 68 62 63 53 45 46 33 22 16 12 11 11 10
4 4 3 3 3 4 10 17 75 68 80 68 52 39 34 26 37 32 37 66 92 100 98 99 100 98 96 99 98 86 84 75 73 72 67 60 53 46 29 16 13 13 13 11 10
3 2 2 2 13 32 66 100 95 88 100 99 74 60 66 44 63 51 42 40 65 79 93 100 98 99 98 98 97 99 96 87 79 70 68 61 52 48 29 16 15 16 15 12 11
2 2 2 8 60 100 96 100 100 87 91 99 94 100 85 84 59 67 65 47 62 77 54 73 89 99 98 100 100 98 77 75 86 89 70 51 43 36 28 27 24 17 15 14 12
2 4 98 100 100 100 99 100 100 92 100 99 82 82 56 65 54 62 99 92 96 100 100 100 100 98 100 100 100 100 98 91 69 54 48 49 50 49 43 30 20 18 17 13 8
4 14 62 77 98 99 94 82 89 98 99 100 100 100 88 99 63 77 86 100 100 100 100 100 100 100 100 100 98 95 85 71 63 62 72 67 60 45 34 28 21 19 16 10 6
7 24 48 68 82 77 73 84 95 95 99 99 100 100 91 100 100 89 100 100 100 100 100 100 100 100 100 100 100 100 98 93 92 85 67 55 50 44 34 26 24 20 13 8 6
6 22 58 72 64 76 73 84 100 100 100 100 99 100 100 99 100 100 98 100 100 100 99 99 97 99 99 97 100 100 99 92 83 78 79 72 52 41 32 26 25 19 16 11 10
11 22 38 66 86 100 100 100 100 100 100 96 100 100 100 100 100 100 100 100 100 100 100 100 100 100 98 100 100 99 96 90 75 80 76 48 38 34 28 26 19 14 9 8 13
17 27 34 53 81 92 100 100 99 89 100 98 100 100 100 100 100 100 100 100 100 100 100 100 100 100 98 98 95 93 85 68 65 75 68 56 35 21 13 10 9 8 6 4 18
30 34 29 48 71 98 100 94 95 92 100 100 100 100 100 100 100 97 95 100 100 100 100 97 95 98 98 99 100 86 63 43 23 18 14 15 9 6 5 6 5 4 4 3 17
49 56 71 89 98 100 100 92 91 93 100 100 100 100 100 100 100 100 100 100 100 99 99 100 99 89 46 24 16 14 10 8 6 5 6 5 5 4 4 4 3 3 3 3 14
71 94 100 100 100 100 100 99 91 99 100 100 100 100 100 100 100 100 100 99 98 99 92 86 50 21 13 11 7 5 5 5 5 5 4 3 4 8 4 4 3 3 3 3 20
93 100 99 100 100 100 98 98 98 100 100 100 99 100 100 100 100 99 98 98 85 51 21 14 13 7 5 5 5 5 6 8 8 12 12 16 24 28 56 35 13 5 4 6 75

GFSSW_500_rhum_102.txt.gz
RH
12 5 5 5 4 4 5 5 5 5 5 5 5 5 6 7 8 17 31 42 44 48 51 55 48 43 40 39 37 36 35 39 47 41 41 35 37 36 38 39 37 35 31 25 24
5 4 4 5 5 6 6 6 6 7 6 6 6 5 5 5 6 5 11 21 36 47 50 55 55 51 47 46 44 44 41 45 47 50 46 43 44 45 43 45 44 43 38 33 28
19 9 7 14 8 9 9 9 10 9 9 9 8 7 7 6 6 7 10 11 21 41 50 59 64 60 56 54 57 54 51 53 50 52 49 49 50 51 49 47 48 43 39 34 31
13 14 14 13 13 13 13 12 11 11 11 11 10 8 7 7 7 7 7 8 8 10 15 31 60 65 62 60 63 59 65 66 61 59 57 58 55 54 49 48 46 42 40 37 33
14 15 16 17 17 18 16 14 14 12 12 13 12 10 8 7 6 5 6 7 8 9 10 22 35 64 68 64 66 66 74 73 73 67 68 63 61 57 53 53 47 45 43 42 39
18 19 16 16 16 16 16 16 14 14 11 10 11 8 8 7 6 7 7 6 6 8 9 9 16 28 33 54 72 71 78 79 78 76 74 68 61 56 61 57 51 46 44 45 45
20 21 20 19 17 16 16 17 17 17 15 10 6 6 6 6 5 5 5 4 5 5 5 5 5 9 20 39 50 72 74 76 82 85 72 66 54 58 59 54 48 44 44 42 40
28 28 26 25 24 22 22 24 23 21 17 13 10 8 7 7 6 5 5 5 6 8 6 5 4 4 8 15 37 60 65 74 82 86 75 65 58 50 52 53 51 47 45 43 40
35 28 26 24 24 23 22 21 18 16 13 12 10 7 7 6 5 5 5 6 9 8 10 10 6 5 5 9 21 25 68 72 73 79 82 68 57 50 52 47 45 44 43 40 40
28 27 27 26 23 21 20 18 15 14 12 9 7 6 5 5 4 5 6 9 17 30 29 19 18 10 8 14 13 60 72 85 68 60 72 66 58 48 45 41 44 43 41 44 43
30 32 31 27 23 20 16 16 13 10 8 6 5 4 4 4 4 4 6 8 20 21 64 70 86 19 69 82 89 96 79 80 72 78 72 70 59 47 52 41 38 31 35 38 39
36 31 26 22 18 14 13 11 8 6 6 5 4 4 3 3 3 3 4 7 10 38 100 98 68 76 97 99 100 98 88 80 87 100 82 73 58 49 49 45 42 42 42 40 38
28 18 16 13 10 10 8 7 6 5 6 4 4 4 3 5 11 11 8 8 12 60 69 91 89 99 99 86 99 98 96 99 100 94 88 64 57 50 55 56 53 50 47 44 36
13 10 10 8 9 8 7 6 5 5 14 6 4 8 27 22 22 24 25 21 18 32 100 88 99 98 100 90 98 93 99 100 95 96 91 69 74 54 58 58 52 47 44 38 30
8 7 6 6 6 5 4 3 3 7 39 15 33 47 43 69 56 41 42 36 28 26 39 94 99 98 99 100 98 100 99 98 96 94 99 85 76 71 58 55 49 43 39 31 20
6 6 5 5 4 4 3 2 3 15 61 90 79 53 58 62 80 69 74 62 74 85 79 86 91 95 98 100 96 100 100 95 100 100 89 77 74 86 56 51 44 35 26 21 16
6 6 5 4 3 2 2 2 11 98 88 96 77 67 46 60 84 82 75 82 67 67 71 100 91 95 94 79 93 98 97 100 100 97 88 92 68 81 57 56 49 38 24 17 18
7 5 4 3 2 2 23 70 94 83 100 93 70 67 59 70 86 82 86 58 48 72 99 100 100 100 99 87 100 99 97 100 100 100 100 75 78 78 66 56 37 30 30 28 22
6 5 4 3 2 3 79 93 82 100 100 91 77 55 64 69 77 93 91 96 69 65 100 100 100 94 99 100 100 100 97 100 99 94 95 100 70 63 60 50 49 48 38 26 22
6 5 4 3 3 8 40 57 93 95 95 89 89 90 93 88 92 88 93 84 86 96 100 100 100 100 100 100 100 100 100 100 100 100 100 100 100 100 57 63 56 39 32 26 22
7 6 4 3 5 16 37 65 84 85 87 98 95 100 100 100 93 84 84 87 98 100 100 100 99 100 100 99 99 100 100 100 100 100 100 100 100 99 70 61 54 42 35 29 25
8 6 5 5 8 17 44 94 89 98 98 95 100 95 100 99 90 97 94 99 100 100 100 100 97 99 100 100 100 100 92 95 100 100 99 97 95 84 79 75 49 36 32 29 25
9 7 6 6 8 22 42 72 88 96 100 98 100 99 100 98 94 100 100 100 94 94 100 98 100 100 99 98 100 100 100 100 99 100 93 94 90 78 65 58 47 37 30 22 15
10 8 6 6 23 36 50 77 94 91 100 100 93 93 91 100 100 100 100 100 100 100 100 100 100 100 100 98 100 100 100 100 100 99 89 76 60 50 36 27 27 23 15 13 9
10 8 14 14 36 47 42 70 83 91 100 98 93 90 91 100 100 100 100 100 100 100 100 100 100 100 100 100 100 97 87 72 52 26 29 14 14 9 9 9 9 8 7 6 5
10 10 20 47 68 68 73 94 100 100 100 100 100 91 100 100 100 100 100 100 98 97 100 100 100 99 96 89 55 18 12 9 6 5 4 4 4 4 4 4 4 4 4 3 3
12 24 54 79 100 97 100 100 100 100 98 100 100 100 100 99 99 100 100 100 100 99 100 96 80 52 27 10 7 6 6 5 5 4 4 4 5 7 7 5 5 4 4 4 4

GFSSW_500_rhum_108.txt.gz
RH
20 18 22 23 19 16 13 18 20 10 4 4 4 4 5 6 6 6 7 7 7 7 7 8 9 8 9 24 40 49 43 43 49 48 46 43 42 35 38 36 33 31 29 30 29
25 19 18 16 12 8 13 30 11 4 4 5 6 6 6 7 8 9 10 10 10 9 8 7 7 7 7 8 10 14 19 30 56 56 53 48 47 43 39 41 37 37 37 31 30
17 14 10 8 5 10 16 23 15 16 8 9 12 9 9 9 10 10 12 12 12 10 9 7 6 5 5 5 7 8 8 11 19 40 53 52 59 59 50 42 44 44 41 39 34
7 6 6 8 9 10 13 21 11 14 12 13 14 15 12 13 15 14 14 14 13 12 11 10 8 6 5 4 4 4 4 4 4 8 19 21 45 58 63 57 53 53 48 42 44
8 7 9 12 20 14 19 25 15 14 14 15 14 14 14 14 16 16 14 14 13 12 9 7 6 6 5 5 5 4 4 4 4 4 4 4 6 25 49 66 67 65 57 56 55
9 10 14 20 32 26 36 40 19 18 16 19 20 15 14 13 15 14 15 15 14 11 9 8 8 7 7 7 6 6 5 5 4 4 4 4 3 6 21 53 64 67 70 65 62
11 13 15 21 29 43 48 35 37 30 28 31 37 29 23 19 18 16 16 15 14 12 10 9 9 8 8 7 7 7 6 6 6 6 5 13 4 4 18 33 40 52 64 74 67
11 15 26 27 43 40 47 47 56 54 42 39 42 43 24 24 20 19 18 16 14 11 10 10 10 10 9 8 7 6 5 4 5 8 8 32 5 22 24 29 35 46 73 77 75
25 36 40 45 41 53 60 59 47 45 40 35 34 41 38 32 26 21 19 15 13 12 13 13 12 11 10 8 7 5 5 4 4 4 7 57 12 15 32 51 28 24 68 82 82
50 49 53 50 42 46 45 44 43 40 37 41 34 35 34 34 28 24 22 17 16 16 15 12 11 12 10 7 6 4 4 3 3 4 19 29 95 34 44 64 28 30 72 86 82
72 73 74 62 57 53 53 58 57 51 46 45 44 41 35 31 27 22 20 18 15 13 12 11 11 10 7 5 5 4 4 3 3 3 54 91 89 73 87 78 69 33 68 98 100
66 63 67 70 72 66 58 60 57 49 50 50 46 38 31 22 25 20 16 15 14 13 12 10 7 6 5 5 7 8 5 4 7 6 47 100 89 80 98 87 92 81 100 100 98
60 67 67 69 70 68 62 62 55 38 47 44 38 32 23 21 19 16 10 11 13 13 11 8 6 13 9 6 10 11 12 10 13 50 42 60 89 96 77 86 99 100 100 99 87
75 74 72 74 70 62 60 49 32 26 25 35 29 25 23 18 17 14 14 15 13 10 12 10 22 22 22 14 24 26 29 25 19 97 90 100 91 89 84 87 99 99 100 98 78
79 81 77 72 67 58 41 31 26 21 19 29 30 29 30 23 14 14 13 12 10 17 31 25 40 37 42 48 54 35 32 29 30 37 73 77 100 36 97 99 96 100 92 100 88
72 73 68 63 55 53 42 26 20 24 29 23 25 24 24 23 17 13 11 9 30 49 48 43 59 43 47 40 48 32 43 87 100 100 86 64 100 71 99 98 98 100 94 92 85
62 49 45 36 37 28 22 16 28 29 34 28 21 22 22 16 11 5 16 31 45 53 60 72 48 48 47 41 46 51 74 98 100 100 75 100 100 88 100 98 100 94 91 85 98
53 42 36 29 23 17 16 26 43 21 14 11 11 10 15 8 10 10 10 78 63 44 62 59 43 50 50 53 54 56 81 91 100 99 98 100 98 100 92 100 97 92 99 99 99
8 11 14 12 9 8 34 50 49 38 20 10 10 8 8 28 71 79 89 60 54 61 64 82 74 57 40 50 58 55 59 100 93 99 100 100 99 100 99 95 99 100 100 100 92
5 5 6 11 62 74 56 43 45 20 22 20 14 12 20 84 100 88 95 88 81 61 76 88 80 95 71 50 60 77 88 100 92 99 100 96 97 98 99 100 100 100 95 100 100
5 5 6 6 16 9 53 63 34 39 37 100 78 55 42 82 74 80 100 100 83 68 96 98 94 91 99 78 93 84 87 97 100 94 100 98 99 100 100 100 100 99 100 95 86
5 7 6 6 6 25 21 35 19 62 47 8 11 17 28 37 66 68 100 100 74 79 100 100 93 87 100 100 96 91 98 98 100 100 100 100 99 100 100 100 100 100 86 68 96
19 11 9 7 6 5 5 8 11 11 22 7 7 14 40 38 58 65 99 96 100 99 100 91 87 99 100 91 78 80 100 99 84 95 100 100 100 100 100 100 92 73 77 100 97
39 71 12 10 8 6 6 10 16 9 9 8 6 9 25 50 85 77 98 100 100 100 100 100 100 100 100 99 83 74 90 98 100 94 89 100 100 100 94 73 50 46 69 69 68
76 90 62 12 8 8 8 12 14 11 10 15 11 16 31 70 85 89 100 94 99 100 100 100 99 100 100 83 84 88 81 79 78 87 87 99 100 96 64 53 50 60 69 71 73
63 100 94 24 15 12 19 18 15 18 15 14 15 43 52 67 92 100 100 95 95 95 100 92 97 100 96 92 100 97 98 100 93 88 93 100 100 76 66 67 76 61 35 19 19
51 92 100 62 60 24 19 16 16 23 19 20 36 56 68 91 100 98 100 94 77 95 100 100 100 99 100 100 100 100 94 90 98 81 54 44 51 38 11 6 5 5 5 5 4

GFSSW_500_rhum_111.txt.gz
RH
9 10 13 17 18 17 17 23 24 19 14 18 21 22 6 4 4 5 6 7 7 8 9 9 8 8 8 7 7 8 10 15 37 42 44 45 38 36 35 35 34 37 40 42 34
13 18 24 23 25 25 20 18 19 10 12 21 23 9 5 6 6 8 9 9 10 11 12 11 10 8 7 6 6 6 7 8 12 10 9 17 40 47 45 42 42 42 38 38 42
29 29 28 30 27 23 17 12 7 6 18 23 17 19 10 8 11 12 13 12 12 13 13 12 12 11 10 8 6 6 5 5 5 5 5 5 5 6 19 26 42 48 48 44 41
34 37 30 24 20 13 25 19 6 7 12 18 14 13 14 15 16 18 17 16 16 14 14 14 14 13 12 9 7 6 5 4 5 5 5 5 5 4 4 6 21 28 37 48 53
36 31 21 16 11 53 54 6 7 9 11 19 37 20 14 13 20 17 16 16 14 14 14 15 14 13 11 9 7 6 6 6 6 6 6 6 6 6 5 7 13 32 24 33 41
27 18 10 15 47 62 10 10 14 31 29 28 40 26 15 19 23 26 24 21 18 17 16 15 15 14 11 9 7 7 6 7 8 8 8 7 7 6 9 18 21 30 32 31 34
17 25 79 68 38 12 12 11 18 29 32 28 29 34 20 36 30 34 32 27 26 22 19 17 16 15 13 11 10 10 9 9 11 11 10 10 8 7 7 10 9 19 23 28 32
82 61 56 16 10 10 16 19 16 24 35 36 28 31 30 36 40 38 35 39 39 32 24 20 18 15 13 13 12 14 16 14 11 12 10 9 9 7 7 7 7 10 18 24 27
22 42 15 13 13 14 14 14 25 32 31 33 43 46 44 43 40 36 35 36 37 32 28 22 19 17 16 16 16 15 15 13 14 8 7 8 6 6 6 5 4 5 8 16 27
30 17 19 21 22 24 33 39 38 37 48 50 44 41 43 42 39 38 38 37 35 31 27 23 21 21 19 14 16 14 12 12 12 8 6 4 4 4 3 8 5 10 10 25 56
26 29 35 44 55 55 53 56 58 67 61 61 53 51 51 51 46 39 38 37 32 28 25 21 20 19 14 13 12 11 9 7 6 5 5 4 4 3 2 31 77 78 100 100 100
70 62 67 85 87 79 76 92 82 81 67 65 58 48 54 51 44 44 42 36 30 25 20 18 17 13 13 13 11 9 7 5 5 5 6 5 4 4 5 5 81 99 100 100 98
87 94 96 94 86 79 60 62 70 77 67 44 54 51 56 53 49 44 37 29 25 21 20 17 18 17 16 14 11 8 10 10 9 9 8 22 16 15 9 10 90 98 96 100 100
93 92 94 92 75 75 77 80 78 86 73 39 48 40 44 44 41 33 26 22 21 20 18 21 19 17 16 15 32 12 20 17 16 26 21 24 29 17 17 65 57 85 100 100 98
83 85 87 83 71 80 82 82 79 82 64 45 39 37 36 38 36 31 28 27 25 21 18 19 19 17 14 23 35 30 30 23 36 31 25 23 77 27 41 38 78 82 100 98 100
76 85 89 82 81 86 82 74 71 54 52 46 46 44 42 40 40 32 25 22 23 22 15 15 12 13 23 37 38 40 37 47 39 39 33 60 84 34 72 52 74 100 96 96 92
71 82 88 86 78 70 66 48 41 63 49 43 49 47 43 40 37 34 23 21 19 16 10 23 26 42 50 48 48 32 44 55 46 47 41 63 68 69 80 90 80 100 99 98 84
89 87 88 84 74 65 51 35 40 61 58 57 60 57 47 40 33 23 16 12 12 15 12 16 60 66 58 55 48 36 47 72 51 38 37 48 50 74 94 100 98 100 98 96 95
58 59 56 52 49 45 44 24 47 56 46 42 50 55 51 41 22 15 12 17 25 49 45 57 63 73 57 46 41 42 59 62 56 60 55 56 80 95 99 98 98 99 100 98 97
15 12 15 20 15 30 50 41 32 33 24 26 29 40 46 39 33 24 18 32 48 89 66 64 76 95 74 56 44 49 60 79 77 62 80 78 84 100 100 100 100 99 98 97 100
5 5 6 7 7 18 23 22 29 45 62 64 66 68 50 61 30 23 37 68 93 85 59 92 100 95 82 67 61 54 75 86 90 85 98 76 99 100 100 100 100 100 100 100 98
4 5 5 5 6 9 12 20 48 93 69 51 95 62 51 56 90 44 56 68 38 35 100 100 97 99 97 80 68 55 58 97 96 100 100 100 98 100 100 100 100 99 79 100 100
6 6 5 5 6 7 7 9 26 27 35 100 100 69 56 57 48 8 13 9 34 71 89 97 100 100 100 88 90 81 91 92 98 100 100 100 99 100 100 91 91 96 100 100 100
41 35 31 12 13 18 10 7 9 14 49 55 46 92 97 65 17 7 9 23 52 67 77 100 100 98 100 93 86 99 100 97 93 98 100 100 89 83 73 81 69 82 100 100 100
100 100 100 87 50 39 20 12 9 21 96 37 24 11 13 24 13 8 15 26 76 69 100 100 100 100 100 99 88 100 95 99 94 86 96 100 88 63 49 53 66 75 72 73 79
100 100 88 44 60 45 28 60 13 9 48 72 90 57 22 17 19 19 30 45 74 91 100 100 100 100 100 100 97 100 100 92 90 100 99 92 74 68 69 68 63 60 51 49 52
100 97 58 56 71 83 23 30 30 55 42 23 21 35 34 23 27 36 42 66 76 92 99 100 100 100 98 100 100 93 96 100 100 100 100 100 83 87 78 78 79 66 61 54 49

GFSSW_500_rhum_114.txt.gz
RH
6 6 6 7 7 8 8 10 10 13 16 16 22 26 20 16 17 13 5 5 6 6 7 8 9 9 8 8 8 9 9 8 12 20 38 44 41 36 35 34 34 35 38 38 41
6 7 7 8 8 10 12 15 19 18 22 20 19 19 14 16 8 6 7 7 9 9 10 11 11 12 12 10 9 8 7 6 8 9 11 18 21 46 39 39 42 39 36 40 44
8 8 10 12 13 17 21 24 26 28 25 20 16 13 14 15 11 11 8 10 12 13 14 14 14 14 14 13 13 11 10 7 6 5 5 6 7 8 8 13 15 12 8 6 9
10 12 16 19 18 26 32 36 33 24 19 23 43 17 12 13 15 16 17 15 17 18 18 17 15 15 15 15 14 14 11 10 7 6 6 6 5 6 7 6 7 8 11 10 7
14 16 24 28 26 31 33 34 32 21 33 49 38 7 9 12 12 21 25 14 16 18 22 19 17 16 15 15 15 15 13 11 9 7 6 6 6 7 8 8 8 9 10 12 15
41 23 24 30 30 33 33 32 18 41 39 48 15 9 19 21 28 28 32 29 30 33 34 32 31 26 23 23 21 19 15 13 10 9 10 8 6 8 9 12 11 10 9 7 7
64 64 73 49 38 34 25 22 33 68 59 17 10 15 21 29 28 32 44 30 30 40 38 35 36 35 31 27 25 22 19 16 13 12 11 10 7 9 10 9 9 10 9 7 7
76 63 64 66 75 51 18 30 65 61 20 12 20 22 17 28 33 32 36 38 38 36 42 38 35 39 37 33 27 25 22 20 17 16 14 12 11 12 12 12 12 11 9 6 5
96 96 96 91 77 72 72 66 43 18 10 9 15 32 23 20 27 34 39 42 43 42 36 36 36 36 34 27 27 23 28 29 24 21 17 14 18 16 12 11 10 6 4 4 6
88 99 97 92 89 66 28 56 40 16 12 12 20 34 33 31 28 43 43 42 50 47 42 41 37 35 33 28 27 24 22 22 21 18 14 11 12 9 7 6 6 5 4 4 8
63 75 60 44 41 46 28 19 24 27 21 22 24 42 37 42 52 43 46 51 53 49 48 44 35 31 29 26 23 20 20 18 15 14 14 12 14 13 12 9 6 4 4 12 32
58 58 45 48 25 32 60 41 50 49 47 40 39 48 66 59 44 46 48 49 49 48 47 44 37 34 28 22 20 18 17 18 17 16 15 13 12 10 8 5 8 11 13 94 99
39 48 60 83 89 88 66 71 77 70 61 42 60 48 52 61 50 49 51 47 46 43 44 39 32 28 25 22 20 21 19 18 17 15 14 11 9 7 5 9 13 15 17 37 65
59 72 65 85 69 73 86 95 95 86 70 40 50 46 46 51 48 51 48 47 42 42 39 29 27 25 25 24 21 20 20 19 16 13 9 11 10 5 8 12 22 34 21 25 20
78 84 86 85 83 92 100 99 96 95 80 49 40 39 42 44 44 43 44 42 41 39 35 28 28 27 25 23 20 19 16 15 20 18 15 12 25 8 11 35 51 61 48 38 44
99 99 95 93 86 100 99 98 98 92 61 58 45 43 46 50 47 46 45 48 50 47 42 36 28 24 24 21 16 16 21 45 38 30 20 22 32 12 24 34 66 66 54 58 55
67 79 83 85 87 90 84 81 80 70 50 52 54 48 49 46 48 46 47 46 45 41 37 30 26 21 17 16 24 36 55 58 48 35 20 30 33 26 23 43 79 75 96 83 48
84 89 87 85 88 82 78 81 87 50 55 69 64 69 59 52 49 52 53 50 49 42 31 23 17 18 21 27 48 54 60 62 67 33 34 30 39 25 30 61 73 76 100 88 100
100 100 99 98 100 100 80 72 70 55 60 71 82 67 58 52 52 49 49 49 47 42 30 20 20 33 50 72 72 59 59 71 57 61 43 38 42 44 51 80 97 98 98 100 100
98 97 90 72 79 89 87 96 59 61 66 61 63 61 52 47 46 42 40 36 38 39 31 29 35 49 67 72 69 80 66 69 71 69 54 54 40 47 76 100 100 100 100 100 100
34 33 38 23 11 19 48 59 55 42 29 45 42 42 35 32 42 50 47 37 35 36 37 65 89 57 56 73 92 100 72 76 93 83 69 55 54 62 85 97 96 100 100 100 100
10 12 16 10 9 9 16 32 21 22 20 30 35 21 30 66 74 71 69 59 52 38 51 77 75 46 34 99 97 100 86 80 88 99 83 66 91 63 98 100 91 96 100 100 100
7 6 6 6 6 6 6 5 5 5 12 16 28 43 92 80 77 62 82 71 62 80 100 59 42 24 100 100 87 84 86 84 96 100 91 79 79 85 83 94 100 100 97 99 100
8 7 6 6 6 6 5 5 6 6 5 10 37 61 100 71 44 87 75 64 100 96 24 22 41 51 90 100 100 85 96 85 96 96 97 74 80 77 79 83 85 80 65 69 82
10 9 8 8 7 6 11 12 11 8 7 17 46 80 52 57 100 97 68 58 43 16 8 9 22 71 82 95 96 94 100 100 96 100 91 78 79 83 81 75 71 67 66 55 48
15 14 16 19 40 43 36 32 35 27 33 68 41 41 75 46 56 87 100 97 92 13 7 11 56 83 82 85 90 100 100 99 100 98 82 82 75 74 71 62 63 65 70 62 56
18 21 94 63 70 100 64 36 26 37 50 27 36 100 100 88 49 23 19 21 11 17 34 44 82 89 96 100 100 94 95 100 99 100 95 82 81 74 81 86 78 70 68 62 59

GFSSW_500_rhum_117.txt.gz
RH
9 9 8 7 6 6 6 6 6 6 7 7 8 12 16 18 17 19 18 17 16 13 8 5 6 7 8 8 8 8 8 8 10 16 38 44 40 42 38 37 36 36 36 38 40
6 6 6 6 6 6 6 6 6 7 8 9 12 18 23 22 18 14 14 14 11 10 6 7 9 10 11 12 12 12 11 10 7 7 9 33 33 40 39 41 44 42 42 40 34
6 6 6 6 6 6 7 7 8 9 10 14 24 27 29 20 15 12 15 13 16 9 7 10 13 14 15 15 14 14 14 14 12 10 7 6 8 9 12 17 11 6 7 8 7
8 7 6 7 7 8 8 9 11 13 17 21 25 30 29 26 33 27 14 14 14 16 22 16 17 18 18 17 15 16 15 15 15 14 11 9 6 6 5 5 7 7 7 7 7
8 8 8 9 9 10 9 10 20 20 26 21 26 30 27 46 47 26 11 13 14 14 27 22 15 18 26 25 24 21 20 20 19 19 16 13 11 8 7 7 7 8 8 8 9
14 10 11 11 21 14 13 12 20 22 23 22 28 28 31 43 38 21 11 14 16 20 25 30 24 22 24 27 28 28 25 24 23 24 22 19 16 14 11 10 9 9 9 9 9
49 46 36 26 27 43 46 49 44 40 44 38 36 36 41 52 31 17 16 19 26 34 37 41 42 28 25 30 33 33 32 30 30 28 26 24 21 17 14 14 13 12 12 13 13
85 82 76 70 71 67 64 68 66 67 62 61 60 51 54 42 18 16 21 21 27 29 33 32 54 45 36 36 37 34 32 35 35 32 28 27 22 20 22 22 22 21 18 14 10
88 95 95 90 91 86 85 79 70 79 78 73 55 52 52 28 16 18 26 29 23 24 33 40 41 42 42 39 35 34 32 33 33 31 30 29 24 25 22 20 18 15 12 10 9
89 94 91 90 90 95 94 95 90 83 76 65 60 53 40 26 21 18 21 33 35 35 39 50 48 43 51 44 38 35 34 32 30 29 26 23 19 19 18 17 17 16 15 15 14
82 95 96 92 86 90 89 94 87 76 65 66 58 60 51 35 30 24 25 36 55 51 58 55 49 50 52 46 41 37 31 29 27 24 22 20 18 18 18 16 14 14 13 11 10
86 92 97 81 73 67 62 65 53 48 45 44 45 42 32 43 44 42 40 48 56 52 50 53 47 50 50 47 44 40 34 31 28 24 22 21 19 17 15 15 14 12 10 8 7
80 78 85 88 73 47 40 46 50 65 54 46 51 52 49 45 49 61 52 51 44 43 54 51 47 47 47 47 45 38 32 28 25 24 24 23 15 14 16 13 10 9 9 8 7
72 66 70 71 64 28 39 58 68 76 69 42 54 50 59 67 60 60 52 46 38 43 44 40 47 46 43 40 36 31 27 26 26 24 22 20 18 17 14 11 9 8 8 9 16
73 62 47 55 54 54 55 54 62 74 65 50 39 44 54 56 55 49 47 44 44 41 40 38 38 39 38 36 34 32 31 28 26 25 24 22 25 17 12 9 8 7 10 15 20
96 78 66 48 42 52 50 65 73 80 60 58 44 47 52 56 52 48 46 44 48 46 44 42 45 44 43 43 42 38 31 25 24 24 23 25 28 17 12 9 9 9 10 25 42
100 98 93 95 85 83 92 98 100 80 53 64 58 56 55 52 50 51 51 48 48 48 46 46 42 44 42 39 35 29 22 20 22 22 25 28 32 25 14 14 17 19 23 47 80
87 96 97 100 100 99 100 100 93 52 54 73 65 59 53 53 57 54 52 49 55 57 54 49 46 48 42 32 26 24 24 30 38 33 31 37 38 31 24 21 24 23 46 63 79
97 87 91 91 98 100 100 100 61 49 49 63 85 62 53 53 61 67 59 55 53 52 49 48 45 44 40 31 31 41 49 68 75 58 54 46 48 43 37 34 32 36 52 63 100
100 100 99 100 100 100 100 92 54 54 60 58 71 82 63 61 64 66 64 51 47 45 46 42 41 42 43 40 46 67 74 84 77 72 72 60 52 47 46 45 46 84 100 100 100
100 100 100 100 100 100 97 84 68 60 70 68 61 68 71 64 61 53 50 43 41 38 38 38 57 42 46 50 83 77 64 79 89 88 91 74 60 58 51 55 65 87 100 92 94
100 98 100 100 100 100 90 81 71 64 66 62 63 57 51 36 36 42 43 38 36 32 42 55 96 87 85 100 87 83 44 87 88 93 93 88 62 60 47 65 99 100 100 100 100
96 99 95 45 33 74 81 71 66 67 59 38 27 31 31 33 47 42 38 28 57 63 80 82 88 72 72 76 66 42 39 100 100 94 80 85 65 70 55 58 99 100 100 99 90
22 25 21 20 40 21 21 22 20 17 15 12 11 14 16 17 30 36 30 61 72 73 76 92 96 86 95 96 39 34 87 100 100 92 78 84 67 65 61 68 88 100 99 86 68
20 16 15 13 12 9 10 9 8 7 7 7 6 6 10 32 39 54 43 72 88 53 52 81 96 100 100 60 17 28 93 98 100 78 91 94 84 67 79 82 96 98 86 65 54
29 17 12 10 10 9 10 9 8 8 8 8 8 11 43 62 57 58 94 100 81 59 100 88 87 100 59 21 13 38 100 83 71 89 100 96 82 90 100 90 84 76 64 57 59
22 21 15 13 13 14 11 11 16 36 25 15 11 18 29 18 65 75 98 79 63 83 100 100 99 100 37 14 46 78 63 87 93 100 100 85 96 92 86 80 70 66 65 70 65

GFSSW_500_rhum_123.txt.gz
RH
16 16 15 15 15 15 15 15 14 13 13 12 11 10 7 6 6 6 7 7 10 19 23 28 37 45 26 20 15 8 7 8 8 8 8 9 10 16 28 40 43 43 43 41 41
15 15 14 14 13 13 13 12 12 12 11 10 9 7 6 6 6 6 9 9 12 16 20 26 39 48 21 19 15 12 8 9 11 12 12 12 9 8 9 11 14 20 32 38 36
8 8 8 9 9 9 9 10 9 9 8 7 6 6 6 6 6 8 12 15 20 21 20 28 39 46 27 18 15 26 24 10 12 13 14 14 13 11 8 7 7 7 9 12 16
5 5 5 5 7 6 6 6 6 6 6 6 6 6 7 7 10 14 17 21 24 24 24 31 43 43 21 15 16 25 28 32 16 15 15 16 16 15 16 13 10 8 7 6 6
7 7 6 6 6 6 6 6 6 6 6 7 7 8 10 11 11 16 19 17 18 25 35 37 48 44 15 14 15 18 23 26 31 18 19 20 23 22 22 24 20 16 14 10 8
11 10 8 8 9 9 9 8 8 9 8 9 8 11 21 27 21 22 20 24 51 46 50 45 45 34 14 13 14 15 20 28 33 40 25 19 20 22 26 27 25 29 36 19 18
31 21 14 11 11 12 13 15 12 21 14 29 32 34 27 43 36 51 50 56 59 54 51 45 49 36 16 14 15 17 23 25 29 32 38 41 31 28 28 31 32 30 31 36 27
72 76 61 28 22 26 24 37 31 48 38 54 62 70 73 63 69 72 59 64 51 42 46 47 52 33 23 21 20 23 29 30 27 30 37 42 42 38 35 33 32 32 32 31 29
90 92 83 72 70 64 60 64 54 53 58 61 62 64 78 78 74 72 65 61 51 45 51 52 50 46 23 20 22 26 29 36 36 32 37 40 37 40 39 36 34 33 32 31 30
74 95 91 86 86 79 82 81 74 63 69 69 62 72 75 79 76 70 62 62 71 62 56 49 44 37 23 18 20 24 34 40 43 48 42 40 35 33 37 35 37 32 29 26 25
84 76 99 96 85 76 82 87 80 72 73 60 53 72 76 77 78 64 67 77 65 49 48 48 45 31 26 26 27 29 38 41 42 43 37 42 38 40 37 38 36 33 30 28 25
84 77 99 99 90 86 93 96 83 76 64 53 45 54 67 70 80 89 84 74 68 58 52 46 42 42 43 45 44 41 40 42 38 40 35 35 38 37 36 37 37 33 29 26 24
85 91 99 98 94 88 94 96 86 78 60 54 40 47 60 61 82 79 75 64 47 43 49 50 52 48 45 48 48 40 39 36 33 38 38 33 34 32 30 30 28 29 29 27 26
91 74 98 97 100 100 95 85 94 85 69 50 50 39 46 61 60 64 55 52 57 65 61 50 56 50 48 48 46 41 40 36 33 30 29 29 27 25 23 24 29 29 27 24 23
98 97 82 98 98 100 96 96 98 91 73 50 43 41 41 44 42 44 46 51 55 57 56 56 56 52 51 49 46 43 41 40 37 33 28 27 30 21 22 24 24 23 23 25 26
98 95 98 94 99 96 98 98 97 89 66 54 45 39 43 44 47 43 44 49 59 63 64 65 58 56 53 51 48 45 45 44 38 37 29 30 33 22 26 26 27 27 27 27 28
99 98 99 100 100 94 99 100 99 82 62 54 50 49 46 44 45 47 50 56 60 63 65 66 58 56 52 51 51 50 49 46 41 41 40 36 34 28 27 27 31 30 30 30 29
99 99 97 100 99 96 100 100 90 62 68 69 59 54 51 48 47 50 52 51 62 68 70 65 59 58 55 53 52 52 54 52 48 44 40 35 28 24 24 29 32 36 34 32 31
98 99 99 100 100 100 100 99 69 64 70 74 73 64 56 51 50 48 49 55 71 73 75 62 55 54 54 56 55 52 52 54 49 46 43 36 30 26 30 39 40 36 30 35 42
96 96 100 100 100 100 100 86 68 71 76 90 84 72 66 59 56 61 69 72 79 74 72 62 60 56 55 56 56 55 53 51 54 55 50 40 35 31 37 46 40 37 55 61 59
100 97 95 100 100 100 95 67 68 72 84 93 96 91 77 73 85 92 89 85 78 74 78 72 69 62 56 52 56 51 47 50 59 74 71 63 36 41 52 42 52 72 76 66 63
100 99 97 100 100 95 90 75 72 76 88 94 94 93 95 97 100 96 87 88 80 80 76 76 69 63 55 48 46 47 45 57 88 100 90 100 43 55 51 49 100 92 84 68 67
88 100 100 100 100 91 81 74 75 84 97 97 93 93 97 98 99 99 98 87 83 81 73 72 85 74 52 58 70 82 90 99 100 100 84 100 56 58 42 97 100 100 92 78 80
100 93 100 100 100 99 97 92 90 82 89 88 88 85 87 92 93 93 96 94 88 76 69 76 69 89 83 100 100 100 85 96 100 97 95 74 80 63 41 56 100 100 88 89 80
100 100 94 100 98 99 99 90 95 91 100 100 97 98 100 100 100 98 100 90 75 63 53 46 62 67 76 82 100 97 79 83 95 96 100 67 74 69 40 90 100 100 96 94 86
100 100 91 100 100 100 100 91 88 79 90 87 92 98 100 100 100 100 95 82 68 63 44 35 59 79 67 66 67 69 80 79 88 94 90 100 61 72 62 54 100 97 90 94 86
91 100 100 57 54 81 98 97 98 100 100 100 100 100 100 99 100 98 90 78 57 49 34 25 32 44 47 51 68 70 37 63 88 84 72 62 64 51 24 57 86 100 97 95 89

GFSSW_500_rhum_126.txt.gz
RH
15 16 17 17 17 18 17 16 16 16 15 15 15 14 13 12 12 11 8 7 6 6 6 7 14 18 20 30 38 24 16 7 8 8 8 9 9 9 10 12 17 30 38 42 45
13 13 13 16 16 16 16 16 15 14 14 13 13 12 12 11 9 8 7 6 6 6 7 10 18 21 22 31 40 20 16 18 11 9 11 10 11 11 9 8 8 8 8 11 24
7 8 10 11 13 13 13 12 12 11 9 10 10 9 9 8 12 7 6 6 7 9 10 18 23 27 31 38 42 22 15 20 29 22 10 12 13 14 13 11 10 9 8 7 6
6 6 6 6 6 6 7 7 7 13 16 7 6 6 6 6 6 9 8 8 10 10 12 15 20 30 42 42 46 28 14 14 23 24 30 14 14 15 16 15 15 15 13 12 10
7 7 6 6 5 5 5 5 5 8 21 7 5 6 6 7 7 7 8 9 9 11 13 18 44 48 45 46 45 36 14 14 16 19 23 33 23 15 18 20 20 20 21 21 18
12 9 9 9 8 8 7 7 6 6 23 9 7 8 8 10 10 11 17 22 18 21 28 41 52 55 46 43 37 31 19 14 14 14 19 24 28 36 26 19 20 22 24 25 24
32 21 18 19 14 12 10 12 9 8 12 10 10 10 15 28 32 36 34 29 40 41 43 48 57 53 47 43 41 36 25 16 14 17 23 27 31 28 34 39 27 24 21 20 28
91 83 72 46 42 28 20 19 16 13 10 11 19 21 29 37 41 54 60 66 66 64 64 64 61 47 46 46 51 45 36 25 25 24 26 29 34 35 28 33 41 40 38 32 31
86 94 95 95 87 65 55 59 64 48 41 32 37 34 49 51 54 53 60 68 75 71 67 61 48 40 34 44 50 48 42 35 28 22 26 31 37 38 38 37 44 40 38 38 36
94 97 96 88 96 92 87 84 79 70 66 64 61 55 52 56 63 62 66 76 76 69 66 63 56 58 54 51 46 41 36 33 24 29 30 34 37 37 34 40 42 40 40 40 38
98 91 92 83 93 88 82 91 88 77 77 66 68 66 66 67 64 61 73 76 72 68 62 61 66 64 53 48 46 39 35 34 36 39 36 36 36 33 30 33 35 37 37 37 37
95 95 85 88 98 94 80 79 71 86 81 66 72 69 73 69 54 50 71 77 75 68 68 71 68 61 56 50 45 42 40 42 40 39 35 30 30 25 27 31 38 39 37 35 32
98 99 100 98 98 98 90 80 68 93 89 74 70 72 71 64 55 48 63 74 80 80 81 73 64 50 45 46 46 44 45 45 40 36 35 28 28 23 25 28 30 31 31 29 28
98 100 97 98 97 100 100 85 68 93 95 66 75 64 65 67 56 57 53 66 73 77 68 59 48 48 53 50 45 42 42 41 38 36 36 30 29 26 22 27 29 28 26 25 24
99 98 98 97 98 94 100 93 87 74 97 75 64 68 66 67 52 52 50 57 63 63 51 43 48 53 53 50 46 44 44 42 40 37 34 34 30 30 24 24 27 27 27 26 26
79 77 98 98 99 98 89 96 99 100 80 81 66 63 60 59 55 50 52 46 47 46 44 47 51 56 58 58 51 47 48 46 42 39 35 35 34 32 26 32 32 31 29 27 24
67 77 86 99 100 98 99 99 100 88 76 78 78 75 69 68 63 56 50 47 46 46 45 50 58 64 64 62 58 54 51 50 46 42 43 38 37 32 29 36 35 32 29 27 26
18 52 72 93 98 86 97 100 92 56 70 82 76 78 75 66 64 63 51 46 45 47 49 56 62 61 64 66 57 53 52 52 51 52 44 34 32 29 32 34 34 33 31 29 29
18 16 29 79 100 100 100 99 78 75 71 75 87 86 82 78 70 64 54 49 50 54 58 58 62 68 69 66 60 50 51 54 53 52 47 40 33 28 31 35 36 36 35 38 37
97 57 34 40 82 100 100 91 83 73 76 79 91 97 100 93 76 64 59 58 53 53 55 57 67 65 67 64 60 57 53 55 58 57 55 40 34 30 25 33 40 45 53 42 33
94 100 91 76 89 100 96 67 78 76 87 94 99 100 100 96 96 78 62 62 55 56 66 72 82 77 69 58 64 60 53 54 65 71 73 49 40 24 26 38 49 56 49 54 53
100 100 100 100 100 100 89 64 79 76 96 100 100 100 100 100 100 99 98 94 80 70 92 100 94 91 74 70 64 60 57 55 96 78 83 87 38 45 49 64 76 62 48 60 76
100 100 100 100 100 78 82 100 94 94 100 100 100 100 100 100 99 100 100 100 97 99 100 100 90 100 89 78 77 64 74 63 99 100 70 100 81 62 59 67 85 70 51 80 84
100 100 99 97 100 100 83 99 100 100 100 96 96 100 100 100 100 100 100 100 100 100 100 100 97 100 98 100 100 96 99 100 99 95 96 87 100 87 91 68 78 64 47 60 100
74 92 95 78 79 90 84 78 94 98 100 100 99 100 100 100 100 99 100 100 100 100 100 99 88 99 87 87 99 99 100 96 91 97 100 74 98 62 100 71 80 70 63 88 100
100 99 98 82 91 100 100 94 90 87 88 98 94 100 100 99 100 100 100 100 99 100 100 100 86 96 80 83 77 71 62 59 91 88 100 90 58 88 83 76 64 53 59 53 68
100 100 100 100 100 100 93 84 76 100 100 100 100 100 100 97 100 100 100 100 99 100 100 100 100 100 88 92 89 90 58 67 56 62 57 61 56 64 70 65 55 65 46 27 40